[[{"header":{"parameterUnit":"m.s-1","parameterCategory":1,"la1":30.6,"la2":29.2853,"lo1":-89.7004,"lo2":-87.6739,"dx":0.0162,"dy":0.0183,"nx":112,"ny":82,"refTime":"2023-02-10T06:00:00:Z","depth":0,"parameterNumber":2,"parameterNumberName":"U-component_of_WINDS"},"data":[0.0,0.0,0.0,0.0,0.0,0.0,0.0,0.0,0.0,0.0,0.0,0.0,0.0,0.0,0.0,0.0,0.0,0.0,0.0,0.0,0.0,0.0,0.0,0.0,0.0,0.0,0.0,0.0,0.0,0.0,0.0,0.0,0.0,0.0,0.0,0.0,0.0,0.0,0.0,0.0,0.0,0.0,0.0,0.0,0.0,0.0,0.0,0.0,0.0,0.0,0.0,0.0,0.0,0.0,0.0,0.0,0.0,0.0,0.0,0.0,0.0,0.0,0.0,0.0,0.0,0.0,0.0,0.0,0.0,0.0,0.0,0.0,0.0,0.0,0.0,0.0,0.0,0.0,0.0,0.0,0.0,0.0,0.0,0.0,0.0,0.0,0.0,0.0,0.0,0.0,0.0,2.318,2.5915,2.7751,2.8071,2.7996,2.727,2.5795,0.0,0.0,0.0,0.0,0.0,0.0,0.0,0.0,0.0,0.0,0.0,0.0,0.0,0.0,0.0,0.0,0.0,0.0,0.0,0.0,0.0,0.0,0.0,0.0,0.0,0.0,0.0,0.0,0.0,0.0,0.0,0.0,0.0,0.0,0.0,0.0,0.0,0.0,0.0,0.0,0.0,0.0,0.0,0.0,0.0,0.0,0.0,0.0,0.0,0.0,0.0,0.0,0.0,0.0,0.0,0.0,0.0,0.0,0.0,0.0,0.0,0.0,0.0,0.0,0.0,0.0,0.0,0.0,0.0,0.0,0.0,0.0,0.0,0.0,0.0,0.0,0.0,0.0,0.0,0.0,0.0,0.0,0.0,0.0,0.0,0.0,0.0,0.0,0.0,0.0,0.0,0.0,0.0,0.0,0.0,0.0,0.0,0.0,0.0,0.0,0.0,0.0,0.0,0.0,2.2464,2.4797,2.608,2.7142,2.8034,2.7475,2.6693,2.5758,0.0,0.0,0.0,0.0,0.0,0.0,0.0,0.0,0.0,0.0,0.0,0.0,0.0,0.0,0.0,0.0,0.0,0.0,0.0,0.0,0.0,0.0,0.0,0.0,0.0,0.0,0.0,0.0,0.0,0.0,0.0,0.0,0.0,0.0,0.0,0.0,0.0,0.0,0.0,0.0,0.0,0.0,0.0,0.0,0.0,0.0,0.0,0.0,0.0,0.0,0.0,0.0,0.0,0.0,0.0,0.0,0.0,0.0,0.0,0.0,0.0,0.0,0.0,0.0,0.0,0.0,0.0,0.0,0.0,0.0,0.0,0.0,0.0,0.0,0.0,0.0,0.0,0.0,0.0,0.0,0.0,0.0,0.0,0.0,0.0,0.0,0.0,0.0,0.0,0.0,0.0,0.0,0.0,0.0,0.0,0.0,0.0,0.0,0.0,0.0,0.0,0.0,0.0,2.296,2.4356,2.5878,2.6759,2.7516,2.8202,2.7115,2.6301,2.6042,2.5863,0.0,0.0,0.0,0.0,0.0,0.0,0.0,0.0,0.0,0.0,0.0,0.0,0.0,0.0,0.0,0.0,0.0,0.0,0.0,0.0,0.0,0.0,0.0,0.0,0.0,0.0,0.0,0.0,0.0,0.0,0.0,0.0,0.0,0.0,0.0,0.0,0.0,0.0,0.0,0.0,0.0,0.0,0.0,0.0,0.0,0.0,0.0,0.0,0.0,0.0,0.0,0.0,0.0,0.0,0.0,0.0,0.0,0.0,0.0,0.0,0.0,0.0,0.0,0.0,0.0,0.0,0.0,0.0,0.0,0.0,0.0,0.0,0.0,0.0,0.0,0.0,0.0,0.0,0.0,0.0,0.0,0.0,0.0,0.0,0.0,0.0,0.0,0.0,0.0,0.0,0.0,0.0,0.0,0.0,0.0,0.0,0.0,0.0,0.0,0.0,0.0,0.0,2.452,2.5642,2.6245,2.7034,2.7647,2.8029,2.6798,2.6061,2.6211,2.5631,0.0,0.0,0.0,0.0,0.0,0.0,0.0,0.0,0.0,0.0,0.0,0.0,0.0,0.0,0.0,0.0,0.0,0.0,0.0,0.0,0.0,0.0,0.0,0.0,0.0,0.0,0.0,0.0,0.0,0.0,0.0,0.0,0.0,0.0,0.0,0.0,0.0,0.0,0.0,0.0,0.0,0.0,0.0,0.0,0.0,0.0,0.0,0.0,0.0,0.0,0.0,0.0,0.0,0.0,0.0,0.0,0.0,0.0,0.0,0.0,0.0,0.0,0.0,0.0,0.0,0.0,0.0,0.0,0.0,0.0,0.0,0.0,0.0,0.0,0.0,0.0,0.0,0.0,0.0,0.0,0.0,0.0,0.0,0.0,0.0,0.0,0.0,0.0,0.0,0.0,0.0,0.0,0.0,0.0,0.0,0.0,0.0,0.0,0.0,0.0,0.0,0.0,2.4869,2.5421,2.5495,2.619,2.6774,2.6991,2.6397,2.6001,2.6008,2.5573,0.0,0.0,0.0,0.0,0.0,0.0,0.0,0.0,0.0,0.0,0.0,0.0,0.0,0.0,0.0,0.0,0.0,0.0,0.0,0.0,0.0,0.0,0.0,0.0,0.0,0.0,0.0,0.0,0.0,0.0,0.0,0.0,0.0,0.0,0.0,0.0,0.0,0.0,0.0,0.0,0.0,0.0,0.0,0.0,0.0,0.0,0.0,0.0,0.0,0.0,0.0,0.0,0.0,0.0,0.0,0.0,0.0,0.0,0.0,0.0,0.0,0.0,0.0,0.0,0.0,0.0,0.0,0.0,0.0,0.0,0.0,0.0,0.0,0.0,0.0,0.0,0.0,0.0,0.0,0.0,0.0,0.0,0.0,0.0,0.0,0.0,0.0,0.0,0.0,0.0,0.0,0.0,0.0,0.0,0.0,0.0,0.0,0.0,0.0,0.0,0.0,0.0,2.4887,2.5462,0.0,2.5856,2.6171,2.6484,2.5811,2.5431,2.5562,0.0,0.0,0.0,0.0,0.0,0.0,0.0,0.0,0.0,0.0,0.0,0.0,0.0,0.0,0.0,0.0,0.0,0.0,0.0,0.0,0.0,0.0,0.0,0.0,0.0,0.0,0.0,0.0,0.0,0.0,0.0,0.0,0.0,0.0,0.0,0.0,0.0,0.0,0.0,0.0,0.0,0.0,0.0,0.0,0.0,0.0,0.0,0.0,0.0,0.0,0.0,0.0,0.0,0.0,0.0,0.0,0.0,0.0,0.0,0.0,0.0,0.0,0.0,0.0,0.0,0.0,0.0,0.0,0.0,0.0,0.0,0.0,0.0,0.0,0.0,0.0,0.0,0.0,0.0,0.0,0.0,0.0,0.0,0.0,0.0,0.0,0.0,0.0,0.0,0.0,0.0,0.0,0.0,0.0,0.0,0.0,0.0,0.0,0.0,0.0,0.0,0.0,2.4135,2.4887,2.5371,0.0,2.5558,2.5714,2.582,2.5323,2.5065,2.5203,0.0,0.0,0.0,0.0,0.0,0.0,0.0,0.0,0.0,0.0,0.0,0.0,0.0,0.0,0.0,0.0,0.0,0.0,0.0,0.0,0.0,0.0,0.0,0.0,0.0,0.0,0.0,0.0,0.0,0.0,0.0,0.0,0.0,0.0,0.0,0.0,0.0,0.0,0.0,0.0,0.0,0.0,0.0,0.0,0.0,0.0,0.0,0.0,0.0,0.0,0.0,0.0,0.0,0.0,0.0,0.0,0.0,0.0,0.0,0.0,0.0,0.0,0.0,0.0,0.0,0.0,0.0,0.0,0.0,0.0,0.0,0.0,0.0,0.0,0.0,0.0,0.0,0.0,0.0,0.0,0.0,0.0,0.0,0.0,0.0,0.0,0.0,0.0,0.0,0.0,0.0,0.0,0.0,0.0,0.0,0.0,0.0,0.0,0.0,0.0,0.0,0.0,2.4208,2.4905,2.5188,2.459,2.5222,2.5458,2.4884,2.493,2.4991,0.0,0.0,0.0,0.0,0.0,0.0,0.0,0.0,0.0,0.0,0.0,0.0,0.0,0.0,0.0,0.0,0.0,0.0,0.0,0.0,0.0,0.0,0.0,0.0,0.0,0.0,0.0,0.0,0.0,0.0,0.0,0.0,0.0,0.0,0.0,0.0,0.0,0.0,0.0,0.0,0.0,0.0,0.0,0.0,0.0,0.0,0.0,0.0,0.0,0.0,0.0,0.0,0.0,0.0,0.0,0.0,0.0,0.0,0.0,0.0,0.0,0.0,0.0,0.0,0.0,0.0,0.0,0.0,0.0,0.0,0.0,0.0,0.0,0.0,0.0,0.0,0.0,0.0,0.0,0.0,0.0,0.0,0.0,0.0,0.0,0.0,0.0,0.0,0.0,0.0,0.0,0.0,0.0,0.0,0.0,0.0,0.0,0.0,0.0,0.0,0.0,0.0,0.0,0.0,2.5256,2.5592,2.6154,2.6032,2.591,2.5853,2.5459,2.5214,2.5214,0.0,0.0,0.0,0.0,0.0,0.0,0.0,0.0,0.0,0.0,0.0,0.0,0.0,0.0,0.0,0.0,0.0,0.0,0.0,0.0,0.0,0.0,0.0,0.0,0.0,0.0,0.0,0.0,0.0,0.0,0.0,0.0,0.0,0.0,0.0,0.0,0.0,0.0,0.0,0.0,0.0,0.0,0.0,0.0,0.0,0.0,0.0,0.0,0.0,0.0,0.0,0.0,0.0,0.0,0.0,0.0,0.0,0.0,0.0,0.0,0.0,0.0,0.0,0.0,0.0,0.0,0.0,0.0,0.0,0.0,0.0,0.0,0.0,0.0,0.0,0.0,0.0,0.0,0.0,0.0,0.0,0.0,0.0,0.0,0.0,0.0,0.0,0.0,0.0,0.0,0.0,0.0,0.0,0.0,0.0,0.0,0.0,0.0,0.0,0.0,0.0,0.0,2.5411,2.5523,2.5949,2.7069,2.6855,2.6583,2.6434,2.6039,2.5668,2.5322,0.0,0.0,0.0,0.0,0.0,0.0,0.0,0.0,0.0,0.0,0.0,0.0,0.0,0.0,0.0,0.0,0.0,0.0,0.0,0.0,0.0,0.0,0.0,0.0,0.0,0.0,0.0,0.0,0.0,0.0,0.0,0.0,0.0,0.0,0.0,0.0,0.0,0.0,0.0,0.0,0.0,0.0,0.0,0.0,0.0,0.0,0.0,0.0,0.0,0.0,0.0,0.0,0.0,0.0,0.0,0.0,0.0,0.0,0.0,0.0,0.0,0.0,0.0,0.0,0.0,0.0,0.0,0.0,0.0,0.0,0.0,0.0,0.0,0.0,0.0,0.0,0.0,0.0,0.0,0.0,0.0,0.0,0.0,0.0,0.0,0.0,0.0,0.0,0.0,0.0,0.0,0.0,0.0,0.0,0.0,0.0,0.0,0.0,0.0,0.0,0.0,0.0,2.5667,2.5814,2.632,2.7646,2.7739,2.7478,2.6858,2.6687,2.6255,2.5457,0.0,0.0,0.0,0.0,0.0,0.0,0.0,0.0,0.0,0.0,0.0,0.0,0.0,0.0,0.0,0.0,0.0,0.0,0.0,0.0,0.0,0.0,0.0,0.0,0.0,0.0,0.0,0.0,0.0,0.0,0.0,0.0,0.0,0.0,0.0,0.0,0.0,0.0,0.0,0.0,0.0,0.0,0.0,0.0,0.0,0.0,0.0,0.0,0.0,0.0,0.0,0.0,0.0,0.0,0.0,0.0,0.0,0.0,0.0,0.0,2.1851,0.0,0.0,0.0,0.0,0.0,0.0,0.0,0.0,0.0,0.0,0.0,0.0,0.0,0.0,0.0,0.0,0.0,0.0,0.0,0.0,0.0,0.0,0.0,0.0,0.0,0.0,0.0,0.0,0.0,0.0,0.0,0.0,0.0,0.0,0.0,0.0,0.0,0.0,0.0,0.0,0.0,2.6432,2.6655,2.7323,2.9068,2.884,2.8483,2.8351,2.7275,2.6524,2.6332,0.0,0.0,0.0,0.0,0.0,0.0,0.0,0.0,0.0,0.0,0.0,0.0,0.0,0.0,0.0,0.0,0.0,0.0,0.0,0.0,0.0,0.0,0.0,0.0,0.0,0.0,0.0,0.0,0.0,0.0,0.0,0.0,0.0,0.0,0.0,0.0,0.0,0.0,0.0,0.0,0.0,0.0,0.0,0.0,0.0,0.0,0.0,0.0,0.0,0.0,0.0,0.0,0.0,0.0,0.0,0.0,0.0,0.0,0.0,0.0,0.0,2.3282,0.0,0.0,0.0,0.0,0.0,0.0,0.0,0.0,0.0,0.0,0.0,0.0,0.0,0.0,0.0,0.0,0.0,0.0,0.0,0.0,0.0,0.0,0.0,0.0,0.0,0.0,0.0,0.0,0.0,0.0,0.0,0.0,0.0,0.0,0.0,0.0,0.0,0.0,0.0,0.0,2.7378,2.7336,2.7848,2.9836,2.9759,2.9404,2.8983,2.7884,2.7044,2.664,2.5793,0.0,0.0,0.0,0.0,0.0,0.0,0.0,0.0,0.0,0.0,0.0,0.0,0.0,0.0,0.0,0.0,0.0,0.0,0.0,0.0,0.0,0.0,0.0,0.0,0.0,0.0,0.0,0.0,0.0,0.0,0.0,0.0,0.0,0.0,0.0,0.0,0.0,0.0,0.0,0.0,0.0,0.0,0.0,0.0,0.0,0.0,0.0,0.0,0.0,0.0,0.0,0.0,0.0,0.0,2.4106,2.4804,2.4861,2.4962,2.5019,2.4524,2.4697,2.5303,0.0,0.0,0.0,0.0,0.0,0.0,0.0,0.0,0.0,0.0,0.0,0.0,0.0,0.0,0.0,0.0,0.0,0.0,0.0,0.0,0.0,0.0,0.0,0.0,0.0,2.456,2.469,0.0,0.0,0.0,0.0,0.0,0.0,0.0,0.0,0.0,0.0,0.0,0.0,2.7961,2.7837,2.8255,3.0182,3.0398,3.0121,2.939,2.8448,2.7582,2.6871,2.587,2.5303,0.0,0.0,0.0,0.0,0.0,0.0,0.0,0.0,0.0,0.0,0.0,0.0,0.0,0.0,0.0,0.0,0.0,0.0,0.0,0.0,0.0,0.0,0.0,0.0,0.0,0.0,0.0,0.0,0.0,0.0,0.0,0.0,2.1767,2.2575,0.0,0.0,0.0,0.0,0.0,0.0,0.0,0.0,0.0,0.0,0.0,0.0,0.0,0.0,2.3878,2.3897,2.3971,2.4081,2.4454,2.4691,2.4818,2.5103,2.5243,2.5264,2.5187,0.0,2.5303,2.5303,0.0,0.0,0.0,0.0,0.0,0.0,0.0,0.0,0.0,0.0,0.0,0.0,0.0,0.0,0.0,0.0,0.0,0.0,0.0,0.0,0.0,0.0,2.5503,2.5501,2.6041,2.6599,0.0,2.5464,2.419,2.419,0.0,0.0,0.0,0.0,0.0,0.0,0.0,0.0,2.728,2.7988,2.8867,3.0259,3.0398,3.034,3.0237,2.8794,2.7852,2.7736,2.6197,2.5303,2.5303,2.6024,0.0,0.0,0.0,0.0,0.0,0.0,0.0,0.0,0.0,0.0,0.0,0.0,0.0,0.0,0.0,0.0,0.0,0.0,0.0,0.0,0.0,0.0,0.0,0.0,0.0,0.0,0.0,0.0,0.0,2.0756,2.1931,2.2281,2.3125,2.3676,0.0,0.0,0.0,0.0,0.0,0.0,0.0,0.0,0.0,2.419,2.419,2.419,2.419,2.4321,2.4428,2.4545,2.4716,2.5162,2.5798,2.5845,2.62,2.6755,2.6755,2.6755,2.6697,2.5687,2.5303,2.5303,0.0,0.0,0.0,0.0,0.0,2.6024,2.6024,0.0,0.0,0.0,0.0,0.0,0.0,0.0,0.0,0.0,0.0,0.0,0.0,0.0,0.0,2.6599,2.6862,2.7109,2.7075,2.6357,2.5579,0.0,2.4579,2.4337,2.4795,0.0,0.0,0.0,0.0,0.0,2.777,2.8385,2.9112,3.029,3.0398,3.0398,3.0398,2.9275,2.8371,2.7928,2.7178,2.6544,2.6063,2.6871,2.7332,0.0,0.0,0.0,0.0,0.0,0.0,0.0,0.0,0.0,0.0,0.0,0.0,0.0,0.0,0.0,0.0,0.0,0.0,0.0,0.0,0.0,0.0,0.0,0.0,0.0,0.0,0.0,0.0,2.118,2.2097,2.2097,2.3345,2.419,0.0,0.0,0.0,0.0,0.0,0.0,2.419,2.419,2.419,2.419,2.4392,2.4502,2.4502,2.4857,2.5144,2.5336,2.5397,2.5918,2.6856,2.6749,2.7136,2.789,2.789,2.789,2.7775,2.6255,2.563,2.561,2.538,2.5437,2.563,2.563,2.6178,2.6928,2.6928,2.6928,2.6928,2.6928,0.0,2.5967,2.5967,0.0,0.0,0.0,0.0,2.6517,2.6683,0.0,2.8048,2.829,2.8452,2.8466,2.8103,2.7923,2.7475,0.0,2.5337,2.4942,2.5329,0.0,0.0,0.0,0.0,2.7015,2.8679,2.9212,2.9767,3.0636,3.0737,3.0641,3.0417,2.9602,2.8832,2.8236,2.8005,2.7601,2.6967,2.7755,2.8198,2.8198,0.0,0.0,0.0,0.0,0.0,0.0,0.0,0.0,0.0,0.0,0.0,0.0,0.0,0.0,0.0,0.0,0.0,0.0,0.0,0.0,0.0,0.0,0.0,0.0,0.0,0.0,0.0,0.0,0.0,2.2942,2.3694,0.0,0.0,0.0,0.0,2.419,2.419,2.419,2.419,2.419,2.419,2.419,2.4924,2.5348,2.5348,2.6119,2.6593,2.6785,2.6994,2.7233,2.7555,2.7727,2.7852,2.789,2.789,2.789,2.7832,2.6909,2.6524,2.6447,2.561,2.5813,2.6524,2.6524,2.7082,2.7832,2.7832,2.7832,2.7832,2.7832,2.7794,2.7775,2.7775,2.7755,0.0,0.0,2.7783,2.7942,2.8517,2.9251,3.0094,3.0977,3.1585,3.1786,3.121,3.0734,2.9646,0.0,2.6502,2.6245,2.5531,0.0,2.6543,2.5853,2.724,2.8771,2.9875,3.071,3.1303,3.1597,3.1641,3.1295,3.0456,2.9602,2.9083,2.9044,2.8313,2.7871,2.7832,2.8602,2.9044,2.9044,2.989,0.0,0.0,0.0,0.0,0.0,0.0,0.0,0.0,0.0,0.0,0.0,0.0,0.0,0.0,0.0,0.0,0.0,0.0,0.0,0.0,0.0,0.0,0.0,0.0,0.0,0.0,0.0,0.0,2.2997,2.3712,0.0,0.0,2.419,2.419,2.419,2.419,2.419,2.419,2.419,2.419,2.419,2.4598,2.5078,2.5579,2.5498,2.5796,2.6502,2.6461,2.6925,2.7823,2.8274,2.8867,2.9506,2.9506,2.9506,2.9448,2.8563,2.789,2.7409,2.7082,2.7159,2.7448,2.7448,2.7948,2.8659,2.8659,2.8659,2.8582,2.8063,2.789,2.789,2.789,2.8255,2.8659,2.8659,2.9486,3.0398,3.0599,3.1258,3.1955,3.2294,3.2508,3.255,3.2218,3.2015,3.1559,3.0434,2.878,2.7656,2.7914,2.7512,2.7253,2.7478,2.8184,2.9032,2.998,3.0942,3.1789,3.2398,3.2006,3.1564,3.1256,3.0448,2.9698,2.914,2.9352,2.9256,2.8698,2.9486,2.9948,2.9948,3.0237,3.0679,0.0,0.0,0.0,0.0,0.0,0.0,0.0,0.0,0.0,0.0,0.0,0.0,0.0,0.0,0.0,0.0,0.0,0.0,0.0,0.0,0.0,0.0,0.0,0.0,0.0,0.0,2.34,2.34,2.3878,2.419,2.419,2.419,2.419,2.419,2.419,2.419,2.419,2.419,2.419,2.419,2.4598,2.5059,2.5597,2.5808,2.628,2.7034,2.7262,2.7826,2.8756,2.9161,2.973,3.0398,3.0398,3.0398,3.0359,2.9775,2.9217,2.8698,2.8121,2.8255,2.8736,2.8736,2.9448,3.0371,3.0371,3.0371,3.0294,2.9756,2.9583,2.9583,2.9583,2.9948,3.0371,3.0371,3.1218,3.2179,3.2468,3.316,3.3853,3.4122,3.4107,3.394,3.3528,3.3375,3.3178,3.2694,3.0923,2.9495,2.9532,2.928,2.9083,2.9045,2.9684,3.0502,3.1377,3.2109,3.2756,3.3276,3.2852,3.2314,3.1756,3.1429,3.0756,2.9602,3.0371,3.0448,2.9563,3.039,3.0852,3.0852,3.1121,3.1525,3.2102,0.0,0.0,0.0,0.0,0.0,0.0,0.0,0.0,0.0,0.0,0.0,0.0,0.0,0.0,0.0,0.0,0.0,0.0,0.0,0.0,0.0,0.0,0.0,2.4245,2.4245,2.4245,2.4263,2.4263,2.4263,2.4263,2.4263,2.4263,2.4245,2.4245,2.4245,2.4245,2.4208,2.4226,2.4263,2.5017,2.5421,2.5476,2.7212,2.8221,2.8518,2.9505,3.0098,3.0359,3.0379,3.0398,3.0398,3.0398,3.0417,3.0436,3.0436,3.0456,3.0302,2.8659,2.9006,3.0436,3.0456,3.1506,3.2891,3.2891,3.2891,3.2891,3.2891,3.2891,3.291,3.2929,3.2949,3.2949,3.2968,3.3006,3.3218,3.4064,3.493,3.5776,3.6565,3.653,3.6114,3.5327,3.4945,3.4526,3.3639,3.2864,3.1824,3.0215,3.1423,3.2061,3.0433,3.1738,0.0,3.4083,3.4199,3.4199,3.4237,3.4218,3.3545,3.1929,3.2468,3.2218,3.0571,3.1256,3.1333,3.0513,3.1256,3.1718,3.1737,3.2526,3.2949,3.2949,0.0,0.0,0.0,0.0,0.0,0.0,0.0,0.0,0.0,0.0,0.0,0.0,0.0,0.0,0.0,0.0,0.0,0.0,0.0,0.0,0.0,0.0,2.5072,2.5072,2.5072,2.5291,2.5878,2.5952,2.5952,2.5952,2.5952,2.5695,2.5127,2.5072,2.5072,2.5072,2.452,2.4722,2.5897,2.5744,2.6172,2.7361,2.7417,2.7865,2.8722,2.8994,2.9251,2.9486,3.0121,3.0398,3.0398,3.0398,3.0756,3.1352,3.1352,3.1698,3.2102,3.1064,3.0948,3.141,3.2006,3.2506,3.2891,3.2891,3.2891,3.2891,3.2891,3.2891,3.3026,3.3641,3.3833,3.3968,3.4622,3.5218,3.5718,3.5949,3.6661,3.7373,3.7584,3.7578,3.7298,3.6435,3.6197,3.5902,3.5078,3.5228,3.4856,3.3032,3.2771,3.2653,3.2205,3.2558,0.0,3.4083,3.4199,3.443,3.5084,3.4584,3.4007,3.3545,3.3141,3.2699,0.0,3.1891,3.1852,3.2199,3.1891,3.1968,3.2564,3.341,3.3833,0.0,0.0,0.0,0.0,0.0,0.0,0.0,0.0,0.0,0.0,0.0,0.0,0.0,0.0,0.0,0.0,0.0,0.0,0.0,0.0,0.0,0.0,2.509,2.5642,2.6321,2.6117,2.608,2.6539,2.6612,2.6612,2.6612,2.6612,2.641,2.5933,2.5897,2.5897,2.5897,2.5456,2.564,2.6576,2.6277,2.6522,2.7449,2.7658,2.8061,2.8677,2.9216,2.9525,2.966,3.0179,3.059,0.0,3.0948,3.1429,3.2199,3.2199,3.2487,0.0,0.0,0.0,0.0,0.0,3.4199,3.4487,3.4487,3.4487,3.4545,3.493,3.4795,3.4661,3.5526,3.5795,3.5892,3.6411,3.6892,3.7238,3.7238,3.7892,3.8546,3.8546,3.8546,3.8411,3.7892,3.7507,3.7103,3.6642,0.0,0.0,3.5745,3.5264,3.4911,3.4545,3.4795,3.5218,0.0,3.5795,3.5988,3.6488,3.6084,3.5507,3.4795,3.4584,0.0,0.0,0.0,3.2968,3.343,3.3006,0.0,0.0,0.0,3.4737,0.0,0.0,0.0,0.0,3.5026,3.5238,0.0,0.0,0.0,0.0,0.0,0.0,0.0,0.0,0.0,0.0,0.0,0.0,0.0,0.0,0.0,0.0,2.5697,2.6337,2.786,2.753,2.7071,2.6906,2.6869,2.6869,2.6869,2.6869,2.6833,2.6741,2.6741,2.6741,2.6741,0.0,0.0,0.0,0.0,2.6799,2.6912,2.8035,2.8617,2.8666,2.992,3.0521,3.0552,3.0629,3.1102,3.1833,3.1833,3.2295,3.3045,3.3045,3.3103,3.3179,3.3083,3.3583,3.443,3.5218,3.6007,0.0,0.0,0.0,0.0,3.7757,3.7488,3.7007,3.7873,3.8084,3.8027,3.8123,3.8142,3.8142,3.8142,3.8796,3.9431,3.9431,3.9431,3.9411,3.9315,3.8681,3.8123,3.8027,3.8084,3.8142,3.8142,3.8065,3.7738,3.6969,3.7507,0.0,3.8007,3.8007,3.8007,3.8007,0.0,0.0,3.5911,3.6353,3.5738,3.3468,3.3968,3.4295,3.4199,3.4295,3.4718,3.5474,3.5493,3.5493,3.5493,3.5493,3.5493,3.5493,3.5493,3.5565,0.0,0.0,0.0,0.0,0.0,0.0,0.0,0.0,0.0,0.0,0.0,0.0,0.0,0.0,0.0,2.6245,2.7457,2.865,2.9604,3.0155,2.9989,2.8682,2.8535,2.8535,2.8535,2.8535,2.8282,2.7622,2.7567,2.7567,2.7567,2.6961,0.0,2.848,2.7915,2.7969,2.8847,2.9097,2.9399,2.9726,0.0,0.0,3.1468,3.2122,3.2506,3.2679,3.2679,3.316,3.3949,3.3949,3.4353,3.493,3.4218,3.4487,3.5276,3.5449,3.6007,3.6699,3.6699,3.7161,3.7777,3.795,3.7892,3.7911,3.8777,3.8565,0.0,3.8854,3.9046,3.9046,3.9046,3.9662,4.0258,4.0258,4.0258,4.0085,3.9431,3.9161,3.8834,3.8142,3.8565,3.9046,3.9046,3.8469,3.795,3.7777,3.7892,3.8007,3.8007,3.8007,3.8007,3.8007,3.8007,3.7873,3.7546,3.7007,3.6488,3.6007,3.5507,3.493,3.4218,3.4872,3.5334,3.5507,3.5493,3.5493,3.5493,3.5493,3.5493,3.5493,3.5493,3.5853,0.0,0.0,0.0,0.0,0.0,0.0,0.0,0.0,0.0,0.0,0.0,2.4795,0.0,0.0,2.6851,2.7677,2.8815,2.9879,3.0687,3.0797,3.0503,2.9714,2.9604,2.9457,2.903,2.8994,2.881,2.8429,2.8411,2.8411,2.8411,2.8026,2.8168,2.8957,2.8728,2.9066,2.9992,3.0227,3.0665,3.1306,3.1833,3.2179,3.2314,3.2718,3.3141,3.3545,3.3545,3.4045,3.4853,3.4853,3.5122,3.5507,3.5468,3.5468,3.5565,3.5949,3.6642,3.7411,3.7853,3.8296,3.8719,3.9123,3.8969,3.8815,3.9642,3.9604,3.9335,3.9777,3.9892,3.9892,3.9892,4.02,4.0489,4.0489,4.0489,4.0392,3.9988,4.0239,4.0412,3.9988,4.0604,4.12,4.12,4.0835,4.0258,3.9373,3.9238,3.9238,3.9238,3.9238,3.9238,3.9238,3.9238,3.9084,3.8681,3.7853,3.7353,3.7353,3.6969,3.6353,3.5488,3.5872,3.5911,3.5526,3.5911,3.6103,3.6103,3.6546,3.6757,3.6757,3.6757,3.6738,0.0,0.0,0.0,0.0,0.0,0.0,0.0,0.0,2.4483,2.463,2.5309,2.588,2.588,2.7163,2.8521,2.9347,3.0155,3.0944,3.1751,3.1164,3.0613,3.0448,3.0173,2.9714,2.9049,2.8994,2.8994,2.8994,2.8994,2.8994,2.8994,2.914,2.926,2.931,2.9659,3.0219,3.0977,3.136,3.1913,3.2645,3.2979,3.3141,3.316,3.3333,3.3795,3.4449,3.4449,3.4949,3.5738,3.5738,3.5738,3.5815,3.6642,3.6565,3.6065,3.6719,3.7507,3.8354,3.9065,3.9392,3.9642,4.0277,4.0046,3.9642,4.0296,4.0623,4.0739,4.0739,4.0739,4.0777,4.095,4.0873,4.0796,4.095,4.1008,4.1008,4.1008,4.1566,4.2047,4.2047,4.2624,4.3104,4.3104,4.3104,4.2624,4.1219,4.0854,4.0739,4.0739,4.0585,4.0489,4.0489,4.0489,4.0162,3.9373,3.8661,3.818,3.8007,3.8007,3.77,3.6988,3.6949,3.6661,3.6007,3.6622,3.6949,3.6949,3.7661,3.8007,3.8007,3.8161,3.7873,2.1145,2.1713,0.0,2.2997,2.3547,2.4281,0.0,0.0,2.5456,2.619,2.6961,2.753,2.753,2.8851,3.0191,3.0999,3.1806,3.2614,3.3421,3.2852,3.2082,3.1347,3.0008,2.9085,2.8994,2.8994,2.8994,2.8994,2.8994,2.8994,2.8994,2.9696,3.0167,3.0416,3.1147,3.1805,3.2368,3.2435,3.2579,3.2885,3.368,3.4045,3.4083,3.4872,3.5257,3.5353,3.5353,3.5834,3.6584,3.6584,3.6584,3.6661,3.7526,3.7796,3.7738,3.7815,3.8411,3.9161,3.9258,3.9758,4.0373,4.0469,4.0431,4.0373,4.0469,4.1046,4.1662,4.1662,4.1662,4.1835,4.2604,4.2239,4.1854,4.2624,4.2816,4.2816,4.2816,4.2893,4.2951,4.2951,4.3028,4.3104,4.3104,4.3104,4.3028,4.2835,4.2143,4.1662,4.1662,4.0969,4.0489,4.0489,4.0489,4.0162,3.9373,3.92,3.8815,3.8046,3.8007,3.7969,3.7853,3.7853,3.7815,3.7719,3.7815,3.7853,3.7853,3.795,3.8007,3.8027,3.8796,3.9104,2.2902,0.0,0.0,0.0,2.4649,2.5107,2.5915,2.6447,2.6888,2.7236,2.7952,2.865,2.9108,3.0136,3.1164,0.0,3.2779,3.3256,3.3128,3.2412,3.1421,3.0155,2.8998,2.8503,2.8938,2.8994,2.8994,2.8994,2.8994,2.9195,2.9677,3.0175,3.0705,3.1281,3.1939,3.261,3.3287,3.3451,3.3824,3.443,3.4776,3.4968,3.4968,3.5334,3.5757,3.6199,3.6199,3.668,3.7469,3.7469,3.7469,3.7546,3.8411,3.8757,3.8757,3.8757,3.8988,3.9431,4.0412,4.0642,4.0566,4.1085,4.0912,4.0489,4.0489,4.1104,4.1797,4.1797,4.2181,4.2643,4.3008,4.2835,4.2643,4.3008,4.3104,4.3104,4.3104,4.347,4.3797,4.3797,4.4201,4.4547,4.4547,4.4547,4.4547,4.4547,4.3412,4.2566,4.2566,4.2239,4.2008,4.2008,4.1566,4.1123,4.0777,4.0758,4.0373,3.9508,3.945,3.9238,3.8777,3.8757,3.8527,3.8007,3.8507,3.8757,3.8757,3.9219,3.945,3.945,3.9815,3.9988,2.4192,0.0,0.0,2.5256,2.5733,2.6264,2.709,2.7714,2.8191,2.8411,2.8925,2.9512,3.0099,3.0852,0.0,3.2173,3.2761,3.2926,3.2357,3.1384,3.032,2.9122,2.8099,2.7695,2.8278,2.8558,2.8686,2.8686,2.8865,2.9342,3.0173,3.0661,3.1341,3.2208,3.2917,3.3589,3.4263,3.4471,3.4872,3.5493,3.5493,3.5493,3.5526,3.5738,3.6276,3.7065,3.7065,3.7546,3.8354,3.8354,3.8354,3.843,3.9296,3.9777,3.9988,3.9988,3.9988,4.02,4.1662,4.1585,4.095,4.1585,4.1373,4.0854,4.0854,4.1623,4.2489,4.2489,4.2951,4.3489,4.372,4.3605,4.3489,4.372,4.3797,4.3797,4.3797,4.4239,4.4662,4.4662,4.5163,4.5586,4.5586,4.5586,4.5586,4.5586,4.4566,4.3701,4.3451,4.3239,4.3104,4.3104,4.2547,4.2162,4.2162,4.195,4.1527,4.0893,4.0623,4.0239,3.9662,3.9623,3.9335,3.87,3.9296,3.9623,3.9623,4.0219,4.0489,4.0489,4.0489,4.0489,0.0,0.0,2.5384,2.5403,2.6557,2.7934,2.8737,2.8938,2.9177,2.9971,3.0155,3.0173,3.021,3.0852,3.1403,3.1421,3.1458,3.1458,3.1439,3.0081,2.9049,2.8994,2.7603,2.6649,0.0,2.7383,2.7842,2.7842,2.8576,2.9342,3.0173,3.1199,3.2248,3.3317,3.4448,3.5165,3.5455,3.5455,3.5468,3.5493,3.5493,3.5493,3.5545,3.6315,3.7142,3.7969,3.7969,3.845,3.9258,3.9258,3.9258,3.9335,4.0142,4.0969,4.172,4.172,4.172,4.1854,4.2758,4.2489,4.1758,4.1797,4.1777,4.1758,4.1758,4.2912,4.422,4.422,4.4239,4.4451,4.5297,4.4893,4.447,4.5316,4.5509,4.5509,4.5509,4.5528,4.5547,4.5547,4.5566,4.5586,4.5586,4.5586,4.5586,4.5586,4.5547,4.522,4.4374,4.3585,4.3104,4.3104,4.3085,4.3066,4.3066,4.2297,4.1797,4.1758,4.0969,4.0489,4.045,4.045,4.045,4.0412,4.045,4.045,4.045,4.0489,4.0489,4.0489,4.0489,4.0489,0.0,0.0,2.566,2.6722,2.7805,2.8815,2.9622,3.021,3.0522,3.0246,2.9787,2.9402,2.9402,2.92,2.9347,3.043,3.0595,3.0595,3.0595,3.0136,2.9402,2.8338,2.7732,0.0,0.0,0.0,0.0,2.7787,2.9035,3.0155,3.0944,3.2011,3.3019,3.3911,3.468,3.5405,3.6023,3.5686,3.5776,3.6295,3.5757,3.5493,3.5532,3.6334,3.718,3.8027,3.8604,3.9335,4.0085,4.0085,4.0085,4.0181,4.1027,4.1546,4.1873,4.245,4.2662,4.2701,4.3008,4.2527,4.1912,4.247,4.2662,4.2662,4.2662,4.3431,4.4297,4.4297,4.472,4.522,4.5509,4.5374,4.524,4.5528,4.5586,4.5586,4.5586,4.5586,4.5586,4.5586,4.5586,4.5586,4.5586,4.5586,4.5586,4.5586,4.5586,4.549,4.5201,4.4412,4.4124,4.4701,4.4239,4.3893,4.3893,4.3624,4.3239,4.2701,4.1835,4.1354,4.1354,4.0796,4.0489,4.0489,4.0489,4.0489,4.0489,4.0489,4.0489,4.0489,4.0489,4.0489,0.0,2.6025,2.6924,2.797,2.9274,3.0356,3.0577,3.0797,3.0742,2.9953,2.8906,2.8132,2.8132,2.7732,2.7714,2.876,2.8906,2.9017,2.9292,2.909,2.865,2.7879,2.7548,0.0,0.0,0.0,0.0,2.8227,2.9457,3.0687,3.177,3.2567,3.3361,3.4181,3.5059,3.5772,3.6304,3.604,3.6199,3.6699,3.618,3.593,3.5968,3.6796,3.7469,3.8065,3.9219,4.0008,4.0489,4.0489,4.0681,4.1027,4.1585,4.1989,4.2335,4.2893,4.3104,4.3143,4.3431,4.297,4.2412,4.3258,4.3528,4.3528,4.3528,4.4105,4.4759,4.4759,4.5163,4.5586,4.5586,4.5586,4.5586,4.5586,4.5586,4.5586,4.5586,4.5586,4.5586,4.5586,4.5586,4.5586,4.5586,4.5586,4.5586,4.5586,4.5586,4.5586,4.5586,4.5105,4.497,4.5528,4.5086,4.4759,4.4759,4.447,4.4085,4.3566,4.2739,4.2124,4.1816,4.1258,4.0816,4.0508,4.0489,4.0489,4.0489,4.0489,4.0489,4.0489,4.0489,4.0489,2.555,2.7255,2.9012,2.9085,3.0852,3.2339,3.1513,3.0723,2.9898,2.903,2.764,2.6539,0.0,0.0,2.6521,2.6649,2.6631,2.6906,2.7732,2.7236,2.7071,0.0,0.0,0.0,0.0,0.0,0.0,2.9177,0.0,3.0999,3.2522,3.2876,3.3413,3.4232,3.557,3.6325,3.642,3.6692,3.6815,3.6776,3.6776,3.6738,3.6738,3.7642,3.8046,3.8084,3.9758,4.0489,4.0489,4.0489,4.0989,4.1739,4.1777,4.2316,4.3028,4.3028,4.3028,4.3143,4.3951,4.3778,4.3297,4.4047,4.4335,4.4374,4.4374,4.4932,4.5586,4.5586,4.5586,4.5586,4.5586,4.5586,4.5586,4.5586,4.5586,4.5586,4.5586,4.5586,4.5586,4.5586,4.5586,4.5586,4.5586,4.5586,4.5586,4.5586,4.5586,4.5586,4.5586,4.5586,4.5586,4.5586,4.5586,4.5586,4.5586,4.4836,4.4374,4.4374,4.3566,4.2739,4.1912,4.1777,4.1335,4.0508,4.0489,4.0489,4.0489,4.0489,4.0489,4.0489,4.0489,4.0489,2.7585,2.8517,2.9287,3.0485,3.1237,3.1494,3.0687,2.9879,2.8902,2.7512,2.641,2.5695,0.0,0.0,0.0,2.72,2.6998,0.0,2.8503,2.9035,0.0,0.0,0.0,3.0173,3.0173,3.054,0.0,0.0,3.188,3.2173,3.2596,3.3224,3.3957,3.476,3.5578,3.6592,3.786,3.8391,3.8315,3.768,3.768,3.7334,3.6757,3.8277,3.8604,3.8084,3.9758,4.0489,4.0489,4.0489,4.0623,4.0893,4.1546,4.195,4.2143,4.2143,4.2143,4.2258,4.3104,4.3662,4.4028,4.422,4.4739,4.5259,4.5259,4.5413,4.5586,4.5586,4.5586,4.5586,4.5586,4.5586,4.5586,4.5586,4.5586,4.5586,4.5586,4.5586,4.5586,4.5586,4.5586,4.5586,4.5586,4.5586,4.5586,4.5586,4.5586,4.5586,4.5586,4.5586,4.5586,4.5586,4.5586,4.5586,4.5586,4.5393,4.5259,4.5259,4.3893,4.3008,4.2777,4.1527,4.0719,4.0489,4.0489,4.0489,4.0489,4.0489,4.0489,4.0489,4.0489,4.0489,2.8627,2.9764,3.0723,3.1256,3.1384,3.1091,2.9953,2.8796,2.7603,2.6337,2.5419,0.0,0.0,0.0,0.0,0.0,0.0,0.0,2.8264,2.9182,2.9806,0.0,3.0907,0.0,3.1384,3.1715,3.2118,0.0,3.2614,3.2761,3.3109,3.3899,3.4541,3.4972,3.6162,3.7299,3.8354,3.9223,3.921,3.8348,3.8501,3.8315,3.7873,3.8854,3.9027,3.8642,0.0,4.0489,4.0489,4.0489,4.0719,4.1123,4.1604,4.1797,4.1797,4.1797,4.1797,4.1931,4.2797,4.3624,4.4355,4.4739,4.5201,4.5586,4.5586,4.5586,4.5586,4.5586,4.5586,4.5586,4.5586,4.5586,4.5586,4.5586,4.5586,4.5586,4.5586,4.5586,4.5586,4.5586,4.5586,4.572,4.6105,4.5836,4.572,4.6105,4.5836,4.5586,4.5586,4.5586,4.5586,4.5586,4.5586,4.5586,4.5586,4.5586,4.5586,4.5586,4.472,4.3874,4.3124,4.2162,4.1277,4.0508,4.0489,4.0681,4.1066,4.1066,4.1258,4.1643,4.1643,4.1643,2.925,3.0925,3.243,3.1733,3.1403,3.0815,2.9219,2.7603,2.6209,2.5421,0.0,0.0,2.5274,0.0,2.4887,2.6502,0.0,2.6117,2.7732,2.8741,2.9586,3.0283,3.1164,3.1715,3.1715,3.2449,3.2926,3.2926,3.3036,3.3348,3.3935,3.4633,3.511,3.5368,3.7116,3.8159,3.8357,3.9524,3.9662,3.8879,3.926,3.9392,3.9296,3.9411,3.9392,3.9335,0.0,0.0,4.0489,4.0489,4.095,4.1643,4.1643,4.1643,4.1643,4.1758,4.1797,4.195,4.2912,4.372,4.4432,4.5316,4.5586,4.5586,4.5586,4.5586,4.5586,4.5586,4.5586,4.5586,4.5586,4.5586,4.5586,4.5586,4.5586,4.5586,4.5586,4.5586,4.5586,4.5586,4.5682,4.6009,4.6778,4.6355,4.6144,4.6797,4.6259,4.572,4.5605,4.5586,4.5586,4.5586,4.5586,4.5586,4.5586,4.5586,4.5586,4.5586,4.549,4.472,4.3162,4.2989,4.222,4.07,4.0662,4.1104,4.197,4.197,4.2354,4.3104,4.3104,4.3104,3.0613,3.177,3.2577,3.243,3.1403,2.9989,2.8374,2.6759,0.0,0.0,0.0,2.5237,2.5384,0.0,0.0,2.7328,0.0,0.0,0.0,0.0,0.0,0.0,0.0,0.0,0.0,0.0,0.0,0.0,0.0,0.0,3.4807,3.4917,3.5745,3.7363,3.8364,3.882,3.8708,3.9623,3.9794,3.9231,3.9954,3.9931,3.9315,3.9988,3.9931,3.9335,0.0,0.0,4.0489,4.0489,4.0585,4.0719,4.0719,4.0719,4.0796,4.1527,4.1797,4.2027,4.3566,4.4182,4.4432,4.5316,4.5586,4.5586,4.5586,4.5586,4.5586,4.5586,4.5586,4.5586,4.5586,4.5586,4.5586,4.5586,4.5586,4.5586,4.5586,4.5586,4.5586,4.5586,4.6182,4.6721,4.6874,4.7336,4.749,4.699,4.6778,4.6413,4.5682,4.5586,4.5586,4.5586,4.5586,4.5586,4.5586,4.5586,4.5586,4.5586,4.4913,4.4105,4.3143,4.2412,4.1893,4.1585,4.1566,4.2008,4.2874,4.2874,4.2951,4.3104,4.3104,4.3104,3.1072,3.2284,3.3018,3.2173,3.0779,2.9163,2.7548,0.0,0.0,0.0,0.0,2.566,2.6484,0.0,0.0,0.0,0.0,0.0,0.0,0.0,0.0,0.0,0.0,0.0,0.0,0.0,0.0,0.0,0.0,0.0,3.5679,3.6083,3.6922,3.8256,3.8709,3.8832,3.8765,3.9022,3.9256,3.9452,3.9739,3.9892,3.9931,4.0315,4.0277,3.995,4.0315,0.0,4.0489,4.0489,4.0489,4.0489,4.0489,4.0777,4.1239,4.1662,4.2085,4.2643,4.3874,4.4297,4.4432,4.5316,4.5586,4.5586,4.5586,4.5586,4.5586,4.5586,4.5586,4.5586,4.5586,4.5586,4.5586,4.5586,4.5586,4.5586,4.5586,4.5586,4.5586,4.5586,4.6297,4.6913,4.6913,4.7221,4.7336,4.6971,4.6509,4.6067,4.5643,4.5586,4.5586,4.5586,4.5586,4.5586,4.5586,4.5586,4.5586,4.5586,4.5201,4.4605,4.3758,4.3316,4.2893,4.2489,4.2489,4.2893,4.372,4.372,4.3951,4.4393,4.4393,4.4393,3.1127,3.2449,3.3164,3.1531,3.0063,2.8517,2.6759,2.5236,0.0,0.0,0.0,0.0,0.0,0.0,0.0,0.0,0.0,0.0,0.0,0.0,0.0,0.0,0.0,0.0,0.0,0.0,0.0,0.0,0.0,0.0,3.6505,3.7312,3.7955,3.8432,3.8615,3.8481,3.8019,3.8308,3.8704,3.9183,3.9391,3.9826,4.0489,4.0489,4.0489,4.0489,4.0489,0.0,0.0,4.0566,4.0604,4.0777,4.0777,4.12,4.1854,4.22,4.2777,4.347,4.4297,4.4586,4.4682,4.5374,4.5586,4.5586,4.5586,4.5586,4.5586,4.5586,4.5586,4.5586,4.5586,4.5586,4.5586,4.5586,4.5586,4.5586,4.5586,4.574,4.5817,4.5624,4.6586,4.7317,4.6971,4.7201,4.7317,4.6951,4.6317,4.5797,4.5605,4.5586,4.5586,4.5586,4.5586,4.5586,4.5586,4.5586,4.5586,4.5586,4.5586,4.5201,4.4335,4.4297,4.3989,4.3374,4.3355,4.3758,4.4586,4.4586,4.4932,4.5586,4.5586,4.5586,3.098,3.2045,3.232,3.0705,2.9659,2.8393,2.6025,0.0,0.0,0.0,0.0,0.0,0.0,0.0,0.0,0.0,0.0,0.0,0.0,0.0,0.0,0.0,0.0,0.0,0.0,0.0,0.0,0.0,0.0,0.0,0.0,3.8157,3.8285,3.7606,3.8322,3.7753,3.5808,3.7951,3.8611,3.7812,3.9319,4.0192,4.0489,4.0489,4.0489,4.0489,0.0,0.0,0.0,4.0835,4.0969,4.1681,4.1681,4.1739,4.1989,4.3508,4.4124,4.4316,4.5182,4.547,4.549,4.5566,4.5586,4.5586,4.5586,4.5586,4.5586,4.5586,4.5586,4.5586,4.5586,4.5586,4.5586,4.5586,4.5586,4.5586,4.5586,4.622,4.6547,4.574,4.7528,4.8682,4.7163,4.8163,4.8644,4.7144,4.6836,4.649,4.5701,4.5586,4.5586,4.5586,4.5586,4.5586,4.5586,4.5586,4.5586,4.5586,4.5586,4.5201,4.4335,4.4297,4.4259,4.4182,4.4182,4.4624,4.547,4.547,4.5509,4.5586,4.5586,4.5586,2.9659,3.0907,3.1494,2.9879,2.887,2.7769,2.5844,0.0,0.0,0.0,2.5823,2.6649,0.0,0.0,0.0,0.0,0.0,0.0,0.0,0.0,0.0,0.0,0.0,0.0,0.0,0.0,0.0,0.0,0.0,0.0,0.0,3.779,3.8046,3.8212,3.8524,3.829,3.7423,3.8052,3.8527,3.8793,3.9146,3.9734,4.0489,4.0489,4.0489,4.0489,0.0,0.0,0.0,4.0854,4.1316,4.2527,4.2008,4.2431,4.3393,4.4047,4.4624,4.5124,4.547,4.5586,4.5586,4.5586,4.5586,4.5586,4.5586,4.5586,4.5586,4.5586,4.5586,4.5586,4.5586,4.5586,4.5586,4.5586,4.599,4.6374,4.6374,4.6663,4.6797,4.6451,4.7201,4.7528,4.6317,4.7105,4.749,4.6297,4.6124,4.599,4.5624,4.5586,4.5586,4.5586,4.5586,4.5586,4.5586,4.5586,4.5586,4.5586,4.5586,4.5432,4.5086,4.5066,4.5066,4.5066,4.5066,4.524,4.5586,4.5586,4.5586,4.5586,4.5586,4.5586,2.8223,2.941,3.0008,2.8631,2.786,2.7016,0.0,0.0,0.0,2.5237,2.6043,2.6851,2.764,0.0,0.0,0.0,0.0,0.0,0.0,0.0,0.0,0.0,0.0,0.0,0.0,0.0,0.0,0.0,0.0,0.0,0.0,3.7349,3.7753,3.8322,3.8579,3.8469,3.7991,3.8079,3.8499,3.9222,3.9098,3.9547,4.0489,4.0489,4.0489,4.0508,0.0,0.0,0.0,4.1412,4.1989,4.3066,4.2701,4.3258,4.4335,4.4586,4.5066,4.5586,4.5586,4.5586,4.5586,4.5586,4.5586,4.5586,4.5586,4.5586,4.5586,4.5586,4.5586,4.5663,4.5913,4.5778,4.572,4.622,4.6624,4.6913,4.6913,4.7086,4.7105,4.6605,4.6932,4.6894,4.5778,4.6528,4.6971,4.6105,4.6182,4.6336,4.6336,4.6124,4.597,4.597,4.574,4.5586,4.5586,4.5586,4.5586,4.5586,4.5586,4.5586,4.5586,4.5586,4.5586,4.5586,4.5586,4.5586,4.5586,4.5586,4.5586,4.5586,4.5586,4.5586,2.6886,2.7588,2.764,2.6833,2.6631,2.619,0.0,0.0,0.0,0.0,2.6043,2.6851,2.764,2.8466,2.8994,2.8994,0.0,0.0,0.0,0.0,0.0,0.0,0.0,0.0,0.0,0.0,0.0,0.0,0.0,0.0,0.0,3.7055,3.7507,3.7496,3.8285,3.7936,3.634,3.79,3.8591,3.8414,3.9226,3.9905,4.0489,4.0489,4.0489,0.0,0.0,0.0,0.0,4.272,4.3085,4.3181,4.397,4.4278,4.4393,4.5259,4.5586,4.5586,4.5586,4.5586,4.5586,4.5586,4.5586,4.5586,4.5586,4.5586,4.5586,4.5586,4.5586,4.5797,4.6663,4.624,4.6009,4.7682,4.7471,4.6913,4.6913,4.7528,4.7605,4.5932,4.6951,4.7567,4.5893,4.6971,4.7817,4.7009,4.7567,4.8067,4.8067,4.7375,4.6894,4.6894,4.6105,4.5586,4.5586,4.5586,4.5586,4.5586,4.5586,4.5586,4.5586,4.5586,4.5586,4.5586,4.5586,4.5586,4.5586,4.5586,4.5586,4.5586,4.5586,4.5586,2.5474,2.6131,2.6504,2.591,2.5768,2.5493,2.4428,0.0,0.0,0.0,0.0,2.6851,2.764,2.8466,2.8833,2.8282,2.797,0.0,0.0,0.0,0.0,0.0,0.0,0.0,0.0,0.0,0.0,0.0,0.0,0.0,0.0,3.7881,3.8322,3.8322,3.8579,3.8469,3.7955,3.8625,3.9066,3.9222,3.9705,4.0139,4.0489,4.0489,0.0,0.0,0.0,0.0,0.0,4.2104,4.2893,4.3951,4.4201,4.4662,4.522,4.549,4.5586,4.5586,4.5586,4.5586,4.5586,4.5586,4.5586,4.5586,4.5586,4.5586,4.5586,4.5586,4.5586,4.5663,4.5932,4.624,4.6471,4.6413,4.7067,4.7567,4.7028,4.7105,4.7124,4.6586,4.6932,4.7105,4.6586,4.7375,4.8009,4.7759,4.7952,4.8105,4.8105,4.7413,4.6913,4.6913,4.6124,4.5586,4.5586,4.5586,4.5586,4.5586,4.5586,4.5586,4.5586,4.5586,4.5586,4.5586,4.5586,4.5586,4.5586,4.5586,4.5586,4.5586,4.5586,4.5586,0.0,2.4725,2.5153,2.4992,2.4962,0.0,0.0,0.0,0.0,0.0,0.0,0.0,2.764,2.8466,2.8851,2.8338,2.8246,0.0,0.0,0.0,0.0,0.0,0.0,0.0,0.0,0.0,0.0,0.0,0.0,0.0,0.0,0.0,3.8707,3.8707,3.8707,3.8707,3.8707,3.8961,3.9264,3.9599,3.9943,4.0232,4.0489,4.0489,0.0,0.0,0.0,0.0,0.0,4.2354,4.3181,4.3912,4.4528,4.5124,4.5586,4.5586,4.5586,4.5586,4.5586,4.5586,4.5586,4.5586,4.5586,4.5586,4.5586,4.5586,4.5586,4.5586,4.5586,4.5682,4.6009,4.624,4.6432,4.6509,4.7336,4.7971,4.7471,4.7605,4.7759,4.7432,4.7355,4.7355,4.7355,4.8048,4.8586,4.8586,4.8586,4.8702,4.9048,4.8067,4.749,4.7817,4.6797,4.6086,4.6086,4.5778,4.5586,4.5586,4.5586,4.5586,4.5586,4.5586,4.5586,4.5586,4.5586,4.5586,4.5586,4.5586,4.5586,4.5586,4.5586,4.5586,0.0,0.0,0.0,0.0,0.0,0.0,0.0,0.0,0.0,0.0,0.0,0.0,2.764,2.8411,2.8902,2.8902,2.8902,0.0,0.0,0.0,0.0,0.0,0.0,0.0,0.0,0.0,0.0,0.0,0.0,0.0,0.0,0.0,3.8652,3.8707,3.8652,3.8652,3.8707,3.8971,3.9289,3.9599,3.9963,4.025,4.0489,4.0489,0.0,0.0,0.0,0.0,0.0,4.3258,4.3855,4.3355,4.497,4.5586,4.5586,4.5586,4.5586,4.5586,4.5586,4.5586,4.5586,4.5586,4.5586,4.5586,4.5586,4.5586,4.5586,4.5586,4.5586,4.5778,4.6605,4.624,4.6086,4.7644,4.8067,4.8105,4.8105,4.874,4.9067,4.8259,4.8144,4.8202,4.8202,4.8913,4.949,4.949,4.949,4.9779,5.0587,4.9183,4.8413,4.9221,4.7817,4.6817,4.6817,4.6067,4.5586,4.5586,4.5586,4.5586,4.5586,4.5586,4.5586,4.5586,4.5586,4.5586,4.5586,4.5586,4.5586,4.5586,4.5586,4.5586,0.0,0.0,0.0,0.0,0.0,0.0,0.0,0.0,0.0,0.0,0.0,0.0,2.753,2.7952,2.8081,2.8081,0.0,0.0,0.0,0.0,0.0,0.0,0.0,0.0,0.0,0.0,0.0,0.0,0.0,0.0,0.0,0.0,3.8065,3.8689,3.8102,3.8065,3.8689,3.9216,3.9529,3.9599,4.0138,4.0441,4.0489,4.0489,0.0,0.0,0.0,0.0,4.1643,4.3528,4.4182,4.4124,4.5182,4.5586,4.5586,4.5586,4.5586,4.5586,4.5586,4.5586,4.5586,4.5586,4.5586,4.5586,4.5586,4.5586,4.5586,4.5586,4.5586,4.5643,4.5836,4.624,4.6701,4.7086,4.7663,4.8105,4.8105,4.8259,4.8336,4.8144,4.8644,4.9086,4.9086,4.9817,5.0375,5.0375,5.0375,5.0471,5.0664,4.9183,4.8182,4.8375,4.6913,4.5913,4.5913,4.572,4.5586,4.5586,4.5586,4.5586,4.5586,4.5586,4.5586,4.5586,4.5586,4.5586,4.5586,4.5586,4.5586,4.5586,4.5586,4.5586,0.0,0.0,0.0,0.0,0.0,0.0,0.0,0.0,0.0,0.0,0.0,0.0,0.0,0.0,0.0,0.0,0.0,0.0,0.0,0.0,0.0,0.0,0.0,0.0,0.0,0.0,0.0,0.0,0.0,0.0,0.0,0.0,3.7514,3.7606,3.7165,3.74,3.8319,3.8814,3.9101,3.925,4.0074,4.0489,4.0489,4.0489,0.0,0.0,0.0,0.0,4.1912,4.322,4.397,4.4393,4.5259,4.5586,4.5586,4.5586,4.5586,4.5586,4.5586,4.5586,4.5586,4.5586,4.5586,4.5586,4.5586,4.5586,4.5586,4.5586,4.5586,4.5586,4.5586,4.624,4.6913,4.6913,4.7817,4.8702,4.8702,4.9009,4.9298,4.9298,4.9663,4.999,4.999,5.0375,5.0702,5.0702,5.0356,5.024,5.0644,4.9529,4.8702,4.8702,4.7528,4.6605,4.622,4.5817,4.5586,4.5586,4.5586,4.5586,4.5586,4.5586,4.5586,4.5586,4.5586,4.5586,4.5586,4.5586,4.5586,4.5586,4.5586,4.5586,0.0,0.0,0.0,0.0,0.0,0.0,0.0,0.0,0.0,0.0,0.0,0.0,0.0,0.0,0.0,0.0,0.0,0.0,0.0,0.0,0.0,0.0,0.0,0.0,0.0,0.0,0.0,0.0,0.0,0.0,0.0,0.0,0.0,3.6321,3.6174,3.6574,3.7578,3.8122,3.8525,3.8804,3.997,4.0489,4.0489,4.0489,4.0489,0.0,0.0,0.0,4.1873,4.2739,4.3566,4.4374,4.5105,4.547,4.5586,4.5586,4.5586,4.5586,4.5586,4.5586,4.5586,4.5586,4.5586,4.5586,4.5586,4.5586,4.5586,4.5586,4.5586,4.5624,4.5759,4.624,4.6797,4.7201,4.8259,4.926,4.9529,5.0183,5.0702,5.0702,5.0702,5.0702,5.0702,5.0702,5.0702,5.0702,5.0067,4.9875,5.0587,4.9933,4.9394,4.9394,4.8625,4.7778,4.6971,4.622,4.574,4.5605,4.5586,4.5586,4.5586,4.5586,4.5586,4.5586,4.5586,4.5586,4.5586,4.5586,4.5586,4.5586,4.5586,4.5586,0.0,0.0,0.0,0.0,0.0,0.0,0.0,0.0,0.0,0.0,0.0,0.0,0.0,0.0,0.0,0.0,0.0,0.0,0.0,0.0,0.0,0.0,0.0,0.0,0.0,0.0,0.0,0.0,0.0,0.0,0.0,0.0,0.0,3.6266,3.5587,3.5518,3.6189,3.7672,3.8525,3.8804,3.997,4.0489,4.0489,4.0489,4.0489,0.0,0.0,4.1681,4.1873,4.2739,4.3566,4.4316,4.4451,4.4951,4.5586,4.5586,4.5586,4.5586,4.5586,4.5586,4.5586,4.5586,4.5586,4.5586,4.5586,4.5586,4.5586,4.5586,4.5586,4.5759,4.6509,4.624,4.6336,4.849,4.8644,4.8702,5.0183,5.0606,5.0702,5.0702,5.0702,5.0702,5.0702,5.0702,5.0702,5.0702,5.0587,5.0548,5.0664,4.9933,4.9394,4.9394,4.8625,4.7778,4.6971,4.6778,4.6394,4.5643,4.5586,4.5586,4.5586,4.5586,4.5586,4.5586,4.5586,4.5586,4.5586,4.5586,4.5586,4.5586,4.5586,4.5586,0.0,0.0,0.0,0.0,0.0,0.0,0.0,0.0,0.0,0.0,0.0,0.0,0.0,0.0,0.0,0.0,0.0,0.0,0.0,0.0,0.0,0.0,0.0,0.0,0.0,0.0,0.0,0.0,0.0,0.0,0.0,0.0,0.0,0.0,3.4559,3.4541,3.4986,3.6346,3.7489,3.8369,3.9384,4.0065,4.0489,4.0489,4.0489,4.0508,0.0,4.1354,4.1835,4.2239,4.2893,4.3643,4.3643,4.4162,4.4951,4.5432,4.5586,4.5586,4.5586,4.5586,4.5586,4.5586,4.5586,4.5586,4.5586,4.5586,4.5586,4.5586,4.5586,4.5682,4.6086,4.624,4.6701,4.8317,4.8759,4.9144,5.0433,5.0702,5.0702,5.0702,5.0702,5.0702,5.0702,5.0702,5.0702,5.0702,5.0702,5.0702,5.0702,5.0337,4.9913,4.9452,4.9048,4.8298,4.7009,4.6913,4.6528,4.5663,4.5586,4.5586,4.5586,4.5586,4.5586,4.5586,4.5586,4.5586,4.5586,4.5586,4.5586,4.5586,4.5586,4.5586,2.3588,0.0,0.0,0.0,0.0,0.0,0.0,0.0,0.0,0.0,0.0,0.0,0.0,0.0,0.0,0.0,0.0,0.0,0.0,0.0,0.0,0.0,0.0,0.0,0.0,0.0,0.0,0.0,0.0,0.0,0.0,0.0,0.0,0.0,3.3807,3.3979,3.4292,3.5112,3.6217,3.7621,3.855,3.9431,4.0219,4.0219,4.0315,4.0489,4.0489,4.0873,4.1508,4.1508,4.2008,4.2797,4.2797,4.3412,4.4374,4.5047,4.5413,4.5586,4.5586,4.5586,4.5586,4.5586,4.5586,4.5586,4.5586,4.5586,4.5586,4.5586,4.5586,4.5643,4.5836,4.624,4.6855,4.7855,4.8606,4.9336,5.0202,5.0548,5.0702,5.0702,5.0702,5.0702,5.0702,5.0702,5.0702,5.0702,5.0702,5.0702,5.0702,5.0702,5.0433,4.9779,4.9702,4.9106,4.7605,4.7144,4.6624,4.5951,4.5701,4.5586,4.5586,4.5586,4.5586,4.5586,4.5586,4.5586,4.5586,4.5586,4.5586,4.5586,4.5586,4.5586,2.3522,2.3714,0.0,0.0,0.0,0.0,0.0,0.0,0.0,0.0,0.0,0.0,0.0,0.0,0.0,0.0,0.0,0.0,0.0,0.0,0.0,0.0,0.0,0.0,0.0,0.0,0.0,0.0,0.0,0.0,0.0,0.0,0.0,0.0,0.0,3.4062,3.4653,3.4435,3.5023,3.6436,3.7552,3.8546,3.9392,3.9392,3.9777,4.0489,4.0489,4.0527,4.0585,4.0585,4.1104,4.1893,4.1893,4.2874,4.4316,4.4374,4.4913,4.5586,4.5586,4.5586,4.5586,4.5586,4.5586,4.5586,4.5586,4.5586,4.5586,4.5586,4.5586,4.5778,4.6605,4.624,4.6086,4.7721,4.8144,4.8432,4.9317,5.0125,5.0702,5.0702,5.0702,5.0702,5.0702,5.0702,5.0702,5.0702,5.0702,5.0702,5.0702,5.0702,5.0664,5.0606,5.0606,5.0221,4.9298,4.7798,4.6874,4.6817,4.6047,4.5586,4.5586,4.5586,4.5586,4.5586,4.5586,4.5586,4.5586,4.5586,4.5586,4.5586,4.5586,4.5586,2.3774,2.3876,0.0,0.0,0.0,0.0,0.0,0.0,0.0,0.0,0.0,0.0,0.0,0.0,0.0,0.0,0.0,0.0,0.0,0.0,0.0,0.0,0.0,0.0,0.0,0.0,0.0,0.0,0.0,0.0,0.0,0.0,0.0,0.0,0.0,3.3247,3.3652,3.4223,3.4866,3.5562,3.6504,3.7785,3.9296,3.9296,3.9738,4.0489,4.0489,4.0489,4.0489,4.0489,4.0681,4.1104,4.2181,4.3008,4.3682,4.472,4.5316,4.5586,4.5586,4.5586,4.5586,4.5586,4.5586,4.5586,4.5586,4.5586,4.5586,4.5586,4.5586,4.5682,4.6009,4.5836,4.5893,4.7067,4.774,4.8336,4.9202,5.0067,5.0702,5.0702,5.0702,5.0702,5.0702,5.0702,5.0702,5.0702,5.0702,5.0702,5.0702,5.0702,5.0702,5.0702,5.0221,4.9529,4.8663,4.7548,4.6682,4.6124,4.5778,4.5586,4.5586,4.5586,4.5586,4.5586,4.5586,4.5586,4.5586,4.5586,4.5586,4.5586,4.5586,4.5586,2.3955,2.3955,0.0,0.0,0.0,0.0,0.0,0.0,0.0,0.0,0.0,0.0,0.0,0.0,0.0,0.0,0.0,0.0,0.0,0.0,0.0,0.0,0.0,0.0,0.0,0.0,0.0,0.0,0.0,0.0,0.0,0.0,0.0,0.0,0.0,3.273,3.3007,3.403,3.4715,3.5105,3.5658,3.6824,3.8469,3.8469,3.9084,4.0123,4.0123,4.0258,4.0489,4.0489,4.0489,4.0604,4.1816,4.2624,4.3239,4.4393,4.5143,4.5586,4.5586,4.5586,4.5586,4.5586,4.5586,4.5586,4.5586,4.5586,4.5586,4.5586,4.5586,4.5586,4.5586,4.5586,4.574,4.6355,4.7317,4.8259,4.8856,4.9894,5.0702,5.0702,5.0702,5.0702,5.0702,5.0702,5.0702,5.0702,5.0702,5.0702,5.0702,5.0702,5.0702,5.0702,4.9913,4.9163,4.8567,4.7528,4.6759,4.6413,4.5893,4.5586,4.5586,4.5586,4.5586,4.5586,4.5586,4.5586,4.5586,4.5586,4.5586,4.5586,4.5586,4.5586,0.0,0.0,0.0,0.0,0.0,0.0,0.0,0.0,0.0,0.0,0.0,0.0,0.0,0.0,0.0,0.0,0.0,0.0,0.0,0.0,0.0,0.0,0.0,0.0,0.0,0.0,0.0,0.0,0.0,0.0,0.0,0.0,0.0,0.0,0.0,0.0,3.297,3.3771,3.4473,3.5086,3.5086,3.5659,3.6699,3.6699,3.7642,3.9277,3.9296,3.9738,4.0469,4.0489,4.0489,4.0489,4.0508,4.1566,4.3085,4.3104,4.4162,4.5586,4.5586,4.5586,4.5586,4.5586,4.5586,4.5586,4.5586,4.5586,4.5586,4.5586,4.5586,4.5586,4.5586,4.5586,4.5586,4.5586,4.6874,4.8086,4.8105,4.9452,5.0683,5.0702,5.0702,5.0702,5.0702,5.0702,5.0702,5.0702,5.0702,5.0702,5.0702,5.0702,5.0702,5.0702,4.9933,4.9413,4.9394,4.7875,4.7259,4.8048,4.6528,4.5605,4.5605,4.5586,4.5586,4.5586,4.5586,4.5586,4.5586,4.5586,4.5586,4.5586,4.5586,4.5586,0.0,0.0,0.0,0.0,0.0,0.0,0.0,0.0,0.0,0.0,0.0,0.0,0.0,0.0,0.0,0.0,0.0,0.0,0.0,0.0,0.0,0.0,0.0,0.0,0.0,0.0,0.0,0.0,0.0,0.0,0.0,0.0,0.0,0.0,0.0,0.0,3.1297,3.2308,3.3242,3.4203,3.4385,3.524,3.6699,3.6699,3.7315,3.8411,3.9027,3.9084,3.8796,3.9392,3.9988,4.0546,4.1162,4.1739,4.2258,4.2874,4.3778,4.4682,4.4682,4.5086,4.5586,4.5586,4.5586,4.5586,4.5586,4.5586,4.5586,4.5586,4.5586,4.5586,4.5586,4.5586,4.5586,4.5586,4.6451,4.7413,4.799,4.899,4.9971,5.0567,5.0702,5.0702,5.0702,5.0702,5.0702,5.0702,5.0702,5.0702,5.0702,5.0702,5.0702,5.0702,5.0471,5.0067,4.9452,4.8933,4.8509,4.8125,4.7105,4.6509,4.6509,4.5932,4.5586,4.5586,4.5586,4.5586,4.5586,4.5586,4.5586,4.5586,4.5586,4.5586,0.0,0.0,0.0,0.0,0.0,0.0,0.0,0.0,0.0,0.0,0.0,0.0,0.0,0.0,0.0,0.0,0.0,0.0,0.0,0.0,0.0,0.0,0.0,0.0,0.0,0.0,0.0,0.0,0.0,0.0,0.0,0.0,0.0,0.0,0.0,0.0,3.0435,3.1936,3.3014,3.365,3.4247,3.5149,3.6219,3.6219,3.668,3.7526,3.8411,3.8488,3.8046,3.8565,3.9258,4.0065,4.0604,4.1219,4.1912,4.2777,4.3605,4.4355,4.4701,4.5163,4.5586,4.5586,4.5586,4.5586,4.5586,4.5586,4.5586,4.5586,4.5586,4.5586,4.5586,4.5586,4.5586,4.5586,4.6278,4.7124,4.7932,4.8779,4.9663,5.0529,5.0702,5.0702,5.0702,5.0702,5.0702,5.0702,5.0702,5.0702,5.0702,5.0702,5.0702,5.0702,5.0375,4.9971,4.9433,4.9086,4.8817,4.8625,4.7548,4.7048,4.7355,4.622,4.5586,4.5586,4.5586,4.5586,4.5586,4.5586,4.5586,4.5586,4.5586,4.5586,0.0,0.0,0.0,0.0,0.0,0.0,0.0,0.0,0.0,0.0,0.0,0.0,0.0,0.0,0.0,0.0,0.0,0.0,0.0,0.0,0.0,0.0,0.0,0.0,0.0,0.0,0.0,0.0,0.0,0.0,0.0,0.0,0.0,0.0,0.0,0.0,3.021,3.2152,3.3222,0.0,3.4432,3.513,3.546,3.546,3.5921,3.6738,3.7469,3.7853,3.7988,3.7911,3.8392,3.9181,3.9258,4.0219,4.1681,4.2547,4.3374,4.4201,4.5066,4.5413,4.549,4.5566,4.5586,4.5586,4.5586,4.5586,4.5586,4.5586,4.5586,4.5586,4.5586,4.5586,4.5586,4.5586,4.6201,4.7028,4.7913,4.8721,4.9548,5.051,5.0702,5.0702,5.0702,5.0702,5.0702,5.0702,5.0702,5.0702,5.0702,5.0702,5.0702,5.0702,4.999,4.951,4.951,4.8798,4.8663,4.9471,4.7952,4.7336,4.8067,4.649,4.5586,4.5586,4.5586,4.5586,4.5586,4.5586,4.5586,4.5586,4.5586,4.5586,0.0,0.0,0.0,0.0,0.0,0.0,0.0,0.0,0.0,0.0,0.0,0.0,0.0,0.0,0.0,0.0,0.0,0.0,0.0,0.0,0.0,0.0,0.0,0.0,0.0,0.0,0.0,0.0,0.0,0.0,0.0,0.0,0.0,0.0,0.0,2.9567,3.0191,3.0872,3.1848,0.0,3.354,3.4244,3.519,3.519,3.5745,3.668,3.6238,3.6776,3.795,3.7257,3.7488,3.8354,3.9027,3.9508,3.9931,4.0758,4.1604,4.247,4.3335,4.4047,4.4682,4.5374,4.5586,4.5586,4.5586,4.5586,4.5586,4.5586,4.5586,4.5586,4.5586,4.5586,4.5586,4.5586,4.574,4.6278,4.7778,4.8259,4.8836,5.0394,5.0702,5.0702,5.0702,5.0702,5.0702,5.0702,5.0702,5.0702,5.0702,5.0702,5.0702,5.0702,5.0529,5.0414,5.0414,5.024,5.0221,5.0414,4.8798,4.7932,4.8086,4.649,4.5586,4.5586,4.5586,4.5586,4.5586,4.5586,4.5586,4.5586,4.5586,4.5586,0.0,0.0,0.0,0.0,0.0,0.0,0.0,0.0,0.0,0.0,0.0,0.0,0.0,0.0,0.0,0.0,0.0,0.0,0.0,0.0,0.0,0.0,0.0,0.0,0.0,0.0,0.0,0.0,0.0,0.0,0.0,0.0,0.0,0.0,2.9384,2.9787,3.021,3.1232,3.2169,3.3007,3.3515,3.4078,3.4676,3.5102,3.5599,3.6103,3.568,3.6007,3.6776,3.6315,3.6622,3.7469,3.8334,3.8931,3.945,4.0662,4.1412,4.1931,4.2797,4.3624,4.4374,4.4836,4.5259,4.5586,4.5586,4.5586,4.5586,4.5586,4.5586,4.5586,4.5586,4.5586,4.5586,4.5586,4.5586,4.6047,4.774,4.8105,4.8625,5.0356,5.0702,5.0702,5.0702,5.0702,5.0702,5.0702,5.0702,5.0702,5.0702,5.0702,5.0702,5.0702,5.0702,5.0702,5.0702,5.0702,5.0702,5.0702,4.9067,4.8105,4.8105,4.649,4.5586,4.5586,4.5586,4.5586,4.5586,4.5586,4.5586,4.5586,4.5586,4.5586,0.0,0.0,0.0,0.0,0.0,0.0,0.0,0.0,0.0,0.0,0.0,0.0,0.0,0.0,0.0,0.0,0.0,0.0,0.0,0.0,0.0,0.0,0.0,0.0,0.0,0.0,0.0,0.0,0.0,0.0,0.0,0.0,2.9049,2.9195,2.9861,3.0338,3.0613,3.2149,3.3013,3.3162,3.386,3.42,3.4223,3.5015,3.5383,3.5432,3.5493,3.5493,3.5493,3.5493,3.5892,3.6603,3.7603,3.843,3.9277,4.0969,4.1585,4.17,4.2566,4.3412,4.4124,4.4239,4.4893,4.5586,4.5586,4.5586,4.5586,4.5586,4.5586,4.5586,4.5586,4.5586,4.5586,4.5586,4.5586,4.6009,4.7567,4.8009,4.8567,5.0164,5.0587,5.0702,5.0702,5.0702,5.0702,5.0702,5.0702,5.0702,5.0702,5.0702,5.0702,5.0702,5.0702,5.0702,5.0702,5.0702,5.0702,5.0702,4.9067,4.8105,4.8105,4.649,4.5586,4.5586,4.5586,4.5586,4.5586,4.5586,4.5586,4.5586,4.5586,4.5586,0.0,0.0,0.0,0.0,0.0,0.0,0.0,0.0,0.0,0.0,0.0,0.0,0.0,0.0,0.0,0.0,0.0,0.0,0.0,0.0,0.0,0.0,0.0,0.0,0.0,0.0,0.0,0.0,0.0,0.0,0.0,2.8994,2.9305,3.0026,3.0136,3.087,3.2284,3.2529,3.2996,3.3703,3.4037,3.42,3.42,3.4614,3.4944,3.5174,3.5398,3.5493,3.5493,3.5493,3.5551,3.5834,3.7392,3.8065,3.8373,4.0046,4.0662,4.0796,4.1681,4.2547,4.3374,4.4066,4.4893,4.5586,4.5586,4.5586,4.5586,4.5586,4.5586,4.5586,4.5586,4.5586,4.5586,4.5586,4.5586,4.5874,4.6855,4.7605,4.8394,4.9375,5.0183,5.0702,5.0702,5.0702,5.0702,5.0702,5.0702,5.0702,5.0702,5.0702,5.0702,5.0702,5.0702,5.0702,5.0702,5.0702,5.0702,5.0702,4.9067,4.8105,4.8105,4.649,4.5586,4.5586,4.5586,4.5586,4.5586,4.5586,4.5586,4.5586,4.5586,4.5586,0.0,0.0,0.0,0.0,0.0,0.0,0.0,0.0,0.0,0.0,0.0,0.0,0.0,0.0,0.0,0.0,0.0,0.0,0.0,0.0,0.0,0.0,0.0,0.0,0.0,0.0,0.0,0.0,0.0,0.0,2.8994,2.8994,2.9384,3.0173,3.0632,3.1421,3.2596,3.3054,3.3458,3.3788,3.3928,3.3986,3.3986,3.4288,3.4675,3.5105,3.5223,3.5369,3.5493,3.5493,3.5493,3.568,3.7353,3.8007,3.82,3.9873,4.0489,4.0546,4.0931,4.1643,4.2508,4.3355,4.4182,4.4951,4.5451,4.5586,4.5586,4.5586,4.5586,4.5586,4.5586,4.5586,4.5586,4.5586,4.5586,4.5701,4.6086,4.7182,4.8509,4.9856,5.0433,5.0702,5.0702,5.0702,5.0702,5.0702,5.0702,5.0702,5.0702,5.0702,5.0702,5.0702,5.0702,5.0702,5.0702,5.0702,5.0702,5.0702,4.9067,4.8105,4.8105,4.649,4.5586,4.5586,4.5586,4.5586,4.5586,4.5586,4.5586,4.5586,4.5586,4.5586,0.0,0.0,0.0,0.0,0.0,0.0,0.0,0.0,0.0,0.0,0.0,0.0,0.0,0.0,0.0,0.0,0.0,0.0,0.0,0.0,0.0,0.0,0.0,0.0,0.0,0.0,0.0,0.0,0.0,0.0,2.8994,2.8994,2.9475,3.0467,3.1091,3.188,3.2908,3.3495,3.3807,3.3807,3.3807,3.3807,3.3807,3.3993,3.4383,3.4889,3.5034,3.5207,3.5398,3.546,3.5493,3.5641,3.7103,3.7796,3.818,3.9642,4.0315,4.0489,4.0489,4.1066,4.195,4.2816,4.3643,4.4451,4.5336,4.5586,4.5586,4.5586,4.5586,4.5586,4.5586,4.5586,4.5586,4.5586,4.5586,4.5663,4.5874,4.7067,4.8548,5.0067,5.0548,5.0702,5.0702,5.0702,5.0702,5.0702,5.0702,5.0702,5.0702,5.0702,5.0702,5.0702,5.0702,5.0702,5.0702,5.0702,5.0702,5.0702,4.9067,4.8105,4.8105,4.649,4.5586,4.5586,4.5586,4.5586,4.5586,4.5586,4.5586,4.5586,4.5586,4.5586,0.0,0.0,0.0,0.0,0.0,0.0,0.0,0.0,0.0,0.0,0.0,0.0,0.0,0.0,0.0,0.0,0.0,0.0,0.0,0.0,0.0,0.0,0.0,0.0,0.0,0.0,0.0,0.0,0.0,0.0,2.8994,2.8994,2.9732,3.1274,3.1366,3.2137,3.3715,3.377,3.3807,3.3807,3.3807,3.3807,3.3807,3.3815,3.3986,3.4269,3.4851,3.5105,3.5138,3.5403,3.5493,3.557,3.6449,3.7276,3.8104,3.9027,3.9835,4.0489,4.0489,4.1066,4.195,4.2816,4.3643,4.4451,4.5336,4.5586,4.5586,4.5586,4.5586,4.5586,4.5586,4.5586,4.5586,4.5586,4.5586,4.5817,4.6644,4.7509,4.8375,4.9298,5.0125,5.0702,5.0702,5.0702,5.0702,5.0702,5.0702,5.0702,5.0702,5.0702,5.0702,5.0702,5.0702,5.0702,5.0702,5.0702,5.0702,5.0702,4.9067,4.8105,4.8105,4.649,4.5586,4.5586,4.5586,4.5586,4.5586,4.5586,4.5586,4.5586,4.5586,4.5586,0.0,0.0,0.0,0.0,0.0,0.0,0.0,0.0,0.0,0.0,0.0,0.0,0.0,0.0,0.0,0.0,0.0,0.0,0.0,0.0,0.0,0.0,0.0,0.0,0.0,0.0,0.0,0.0,0.0,0.0,2.9769,3.0265,3.1035,3.2137,3.2173,3.2687,3.3788,3.3807,3.3807,3.3807,3.3807,3.3807,3.3807,3.3807,3.3868,3.3986,3.4572,3.4944,3.5105,3.5207,3.5335,3.5584,3.6392,3.7238,3.8104,3.8969,3.9796,4.0489,4.0489,4.07,4.12,4.2624,4.3297,4.3797,4.5182,4.5586,4.5586,4.5586,4.5586,4.5586,4.5586,4.5586,4.5586,4.5586,4.5586,4.5682,4.599,4.7144,4.8355,4.9221,5.0087,5.0702,5.0702,5.0702,5.0702,5.0702,5.0702,5.0702,5.0702,5.0702,5.0702,5.0702,5.0702,5.0702,5.0702,5.0702,5.0702,5.0702,4.9067,4.8105,4.8105,4.649,4.5586,4.5586,4.5586,4.5586,4.5586,4.5586,4.5586,4.5586,4.5586,4.5586,0.0,0.0,0.0,0.0,0.0,0.0,0.0,0.0,0.0,0.0,0.0,0.0,0.0,0.0,0.0,0.0,0.0,0.0,0.0,0.0,0.0,0.0,0.0,0.0,0.0,0.0,0.0,0.0,0.0,0.0,3.021,3.0962,3.177,3.2577,3.2871,3.3256,3.3788,3.3807,3.3807,3.3807,3.3807,3.3807,3.3807,3.3807,3.3807,3.3815,3.433,3.4695,3.4981,3.5155,3.5354,3.5551,3.6103,3.6988,3.8065,3.8642,3.9546,4.0489,4.0489,4.0489,4.0777,4.2527,4.3104,4.3412,4.5086,4.5586,4.5586,4.5586,4.5586,4.5586,4.5586,4.5586,4.5586,4.5586,4.5586,4.5586,4.5586,4.6701,4.7952,4.8798,4.9663,5.0356,5.0644,5.0702,5.0702,5.0702,5.0702,5.0702,5.0702,5.0702,5.0702,5.0702,5.0702,5.0702,5.0702,5.0702,5.0567,5.0279,4.8894,4.799,4.7721,4.6355,4.5586,4.5586,4.5586,4.5586,4.5586,4.5586,4.5586,4.5586,4.5586,4.5586,0.0,0.0,0.0,0.0,0.0,0.0,0.0,0.0,0.0,0.0,0.0,0.0,0.0,0.0,0.0,0.0,0.0,0.0,0.0,0.0,0.0,0.0,0.0,0.0,0.0,0.0,0.0,0.0,0.0,3.0246,3.0246,3.1017,3.1825,3.2614,3.3385,3.3807,3.3807,3.3807,3.3807,3.3807,3.3807,3.3807,3.3807,3.3807,3.3807,3.3815,3.4074,3.4401,3.4734,3.5273,3.5493,3.5493,3.5493,3.6526,3.8007,3.8007,3.9065,4.0489,4.0489,4.0489,4.0777,4.2489,4.3085,4.3412,4.5047,4.5566,4.5586,4.5586,4.5586,4.5586,4.5586,4.5586,4.5586,4.5586,4.5586,4.5586,4.5586,4.6259,4.7105,4.7952,4.8798,4.9683,5.0548,5.0702,5.0702,5.0702,5.0702,5.0702,5.0702,5.0702,5.0702,5.0702,5.0664,5.0664,5.0702,5.0664,5.0298,4.949,4.8606,4.7759,4.6971,4.6086,4.5586,4.5586,4.5586,4.5586,4.5586,4.5586,4.5586,4.5586,4.5586,4.5586,2.419,0.0,0.0,0.0,0.0,0.0,0.0,0.0,0.0,0.0,0.0,0.0,0.0,0.0,0.0,0.0,0.0,0.0,0.0,0.0,0.0,0.0,0.0,0.0,0.0,0.0,0.0,0.0,3.0283,3.1072,3.1072,3.2375,3.3238,3.3458,3.3678,3.3807,3.3807,3.3807,3.3807,3.3807,3.3807,3.3807,3.3807,3.3807,3.3807,3.3815,3.433,3.4614,3.4733,3.507,3.532,3.5493,3.5493,3.6526,3.8007,3.8007,3.9065,4.0489,4.0489,4.0489,4.0681,4.1797,4.2585,4.3297,4.4335,4.5086,4.5586,4.5586,4.5586,4.5586,4.5586,4.5586,4.5586,4.5586,4.5586,4.5586,4.5586,4.5778,4.6374,4.7817,4.8798,4.9683,5.0548,5.0702,5.0702,5.0702,5.0702,5.0702,5.0702,5.0702,5.0702,5.0702,5.0144,5.001,5.0644,5.0106,4.9933,5.0317,4.8933,4.8009,4.7778,4.6374,4.5586,4.5586,4.5586,4.5586,4.5586,4.5586,4.5586,4.5586,4.5586,4.5586,0.0,0.0,0.0,0.0,0.0,0.0,0.0,2.419,0.0,0.0,0.0,0.0,0.0,0.0,0.0,0.0,0.0,0.0,0.0,0.0,0.0,0.0,0.0,0.0,0.0,0.0,0.0,0.0,3.0485,3.1678,3.2357,3.3293,3.3807,3.3807,3.3807,3.3807,3.3807,3.3807,3.3807,3.3807,3.3807,3.3807,3.3807,3.3807,3.3807,3.3815,3.4439,3.4694,3.4714,3.5105,3.5369,3.5493,3.5493,3.6526,3.8007,3.8007,3.9065,4.0489,4.0489,4.0489,4.0642,4.1527,4.2143,4.2777,4.3951,4.4643,4.5124,4.549,4.5586,4.5586,4.5586,4.5586,4.5586,4.5586,4.5586,4.5586,4.5586,4.5586,4.599,4.7336,4.8009,4.8625,4.9471,4.9913,5.0164,5.0164,5.0471,5.0567,5.0202,5.0164,5.001,4.9644,4.9163,4.9202,5.0067,4.9683,4.9452,4.9606,4.8663,4.7798,4.7086,4.6124,4.5586,4.5586,4.5586,4.5586,4.5586,4.5586,4.5586,4.5586,4.5586,4.5586,0.0,0.0,0.0,0.0,0.0,0.0,2.4227,2.4209,2.443,0.0,0.0,0.0,0.0,0.0,0.0,0.0,0.0,0.0,0.0,0.0,0.0,0.0,0.0,0.0,0.0,0.0,2.8994,2.8994,3.0485,3.2045,3.3587,3.3752,3.3807,3.3807,3.3807,3.3807,3.3807,3.3807,3.3807,3.3807,3.3807,3.3807,3.3807,3.3807,3.3807,3.3815,3.4439,3.4694,3.4734,3.5289,3.5493,3.5493,3.5493,3.6469,3.7873,3.7969,3.8988,4.0373,4.0469,4.0489,4.0623,4.1393,4.172,4.2104,4.3682,4.422,4.447,4.5336,4.5586,4.5586,4.5586,4.5586,4.5586,4.5586,4.5586,4.5586,4.5586,4.5586,4.5817,4.6605,4.6836,4.7163,4.7971,4.874,4.926,4.926,4.9913,5.0125,4.9356,4.926,4.8952,4.8182,4.8029,4.8355,4.9317,4.9317,4.9009,4.8432,4.8298,4.7586,4.6067,4.5932,4.5836,4.574,4.5643,4.5586,4.5586,4.5586,4.5586,4.5586,4.5586,4.5586,0.0,0.0,0.0,0.0,0.0,0.0,2.4247,2.4339,2.443,0.0,0.0,0.0,0.0,0.0,0.0,0.0,0.0,0.0,0.0,0.0,0.0,0.0,0.0,0.0,0.0,0.0,2.8994,2.8994,3.0485,3.1825,3.2797,3.3458,3.3807,3.3807,3.3807,3.3807,3.3807,3.3807,3.3807,3.3807,3.3807,3.3807,3.3807,3.3807,3.3807,3.3815,3.4439,3.4694,3.4734,3.5289,3.5493,3.5493,3.5493,3.6103,3.7046,3.7738,3.8642,3.9623,4.0277,4.0489,4.0527,4.07,4.1239,4.1989,4.3028,4.3797,4.447,4.5336,4.5586,4.5586,4.5586,4.5586,4.5586,4.5586,4.5586,4.5586,4.5586,4.5586,4.5643,4.5817,4.6413,4.7163,4.7971,4.824,4.8355,4.8355,4.8509,4.8548,4.8375,4.8355,4.8298,4.8125,4.7528,4.7759,4.926,4.8759,4.8875,5.0106,4.9529,4.899,4.8663,4.7971,4.7317,4.6663,4.5951,4.5586,4.5586,4.5586,4.5586,4.5586,4.5586,4.5586,0.0,0.0,0.0,2.4654,0.0,0.0,0.0,2.4594,2.4623,0.0,0.0,0.0,0.0,0.0,0.0,0.0,0.0,0.0,0.0,0.0,0.0,0.0,0.0,0.0,0.0,0.0,2.9159,2.9586,3.0723,3.1751,3.2577,3.3366,3.3807,3.3807,3.3807,3.3807,3.3807,3.3807,3.3807,3.3807,3.3807,3.3807,3.3807,3.3807,3.3876,3.4037,3.4486,3.4793,3.4926,3.532,3.5493,3.5493,3.5493,3.5988,3.6815,3.768,3.8546,3.9411,4.0219,4.0489,4.0489,4.0489,4.0796,4.1316,4.22,4.3316,4.4393,4.4816,4.5259,4.5586,4.5586,4.5586,4.5586,4.5586,4.5586,4.5586,4.5586,4.5586,4.5586,4.5586,4.5951,4.6374,4.6778,4.7221,4.7509,4.7509,4.7836,4.7971,4.7548,4.7509,4.7336,4.6894,4.649,4.6778,4.8048,4.7759,4.7875,4.874,4.8779,4.8375,4.7528,4.7509,4.7105,4.6278,4.5817,4.5586,4.5586,4.5586,4.5586,4.5586,4.5586,4.5586,0.0,0.0,0.0,0.0,0.0,2.4865,0.0,0.0,0.0,2.5253,0.0,0.0,0.0,0.0,0.0,0.0,0.0,0.0,0.0,0.0,0.0,0.0,0.0,0.0,0.0,0.0,2.925,2.9934,3.0852,3.1678,3.2339,3.3275,3.3807,3.3807,3.3807,3.3807,3.3807,3.3807,3.3807,3.3807,3.3807,3.3807,3.3807,3.3807,3.3935,3.4223,3.4551,3.4851,3.5122,3.5383,3.5493,3.5493,3.5493,3.5911,3.6584,3.743,3.8296,3.9161,3.9988,4.0354,4.0489,4.0489,4.0604,4.0873,4.1585,4.297,4.4297,4.4297,4.4932,4.5586,4.5586,4.5586,4.5586,4.5586,4.5586,4.5586,4.5586,4.5586,4.5586,4.5586,4.5586,4.5586,4.5586,4.6182,4.6644,4.6644,4.7201,4.7375,4.674,4.6644,4.6374,4.5682,4.5586,4.5951,4.6836,4.6913,4.6971,4.7124,4.774,4.749,4.6144,4.6605,4.6567,4.5855,4.5682,4.5586,4.5586,4.5586,4.5586,4.5586,4.5586,4.5586,0.0,0.0,0.0,0.0,2.4974,0.0,0.0,0.0,2.6287,2.6885,0.0,0.0,0.0,0.0,0.0,0.0,0.0,0.0,0.0,0.0,0.0,0.0,0.0,0.0,0.0,0.0,0.0,2.9122,3.054,3.1439,3.1513,3.2981,3.3807,3.3807,3.3807,3.3807,3.3807,3.3807,3.3807,3.3807,3.3807,3.3807,3.3807,3.3807,3.3935,3.4223,3.4551,3.4851,3.5122,3.5383,3.5493,3.5493,3.5493,3.5565,3.5738,3.6546,3.7411,3.8277,3.9142,3.9892,4.0489,4.0489,4.1027,4.1681,4.1777,4.297,4.4297,4.4297,4.4932,4.5586,4.5586,4.5586,4.5586,4.5586,4.5586,4.5586,4.5586,4.5586,4.5586,4.5586,4.5586,4.5586,4.5586,4.5682,4.574,4.574,4.5817,4.5836,4.5759,4.574,4.5701,4.5605,4.5586,4.5951,4.6836,4.6913,4.7201,4.7932,4.8048,4.8009,4.7817,4.724,4.6855,4.6759,4.599,4.5586,4.5586,4.5586,4.5586,4.5586,4.5586,4.5586,0.0,0.0,0.0,0.0,0.0,0.0,0.0,0.0,2.7309,0.0,0.0,0.0,0.0,0.0,0.0,0.0,0.0,0.0,0.0,0.0,0.0,0.0,0.0,0.0,0.0,0.0,0.0,0.0,0.0,3.0705,3.0705,3.1788,3.2412,3.2412,3.2412,3.2632,3.3109,3.3109,3.3348,3.3807,3.3807,3.3807,3.3807,3.3807,3.3935,3.4223,3.4551,3.4851,3.5122,3.5383,3.5493,3.5493,3.5493,3.5493,3.5603,3.6411,3.7257,3.8123,3.8988,3.9815,4.0489,4.0489,4.0739,4.1143,4.1662,4.2643,4.3701,4.4162,4.4932,4.5586,4.5586,4.5586,4.5586,4.5586,4.5586,4.5586,4.5586,4.5586,4.5586,4.5586,4.5586,4.5586,4.5586,4.5586,4.5586,4.5586,4.5586,4.5586,4.5586,4.5586,4.5586,4.5586,4.5586,4.574,4.6105,4.6144,4.6297,4.6624,4.6644,4.6874,4.7375,4.6586,4.6144,4.6144,4.5778,4.5586,4.5586,4.5586,4.5586,4.5586,4.5586,4.5586,2.7659,0.0,0.0,0.0,0.0,0.0,0.0,0.0,0.0,0.0,0.0,0.0,0.0,0.0,0.0,0.0,0.0,0.0,0.0,0.0,0.0,0.0,0.0,0.0,0.0,0.0,0.0,0.0,2.9751,0.0,3.021,3.0962,3.1494,3.1715,3.1513,3.188,3.2926,3.2724,3.2999,3.3807,3.3807,3.3807,3.3807,3.3807,3.3935,3.4223,3.4551,3.4851,3.5122,3.5383,3.5493,3.5493,3.5493,3.5493,3.557,3.6161,3.7065,3.8084,3.8719,3.9623,4.0489,4.0489,4.0489,4.0623,4.1258,4.222,4.322,4.3816,4.4759,4.5586,4.5586,4.5586,4.5586,4.5586,4.5586,4.5586,4.5586,4.5586,4.5586,4.5586,4.5586,4.5586,4.5586,4.5586,4.5586,4.5586,4.5586,4.5586,4.5586,4.5586,4.5586,4.5586,4.5586,4.5586,4.5586,4.5586,4.5586,4.5586,4.5586,4.5874,4.6528,4.5932,4.5586,4.5586,4.5586,4.5586,4.5586,4.5586,4.5586,4.5586,4.5586,4.5586,0.0,0.0,0.0,2.789,0.0,0.0,0.0,0.0,2.9294,0.0,0.0,0.0,0.0,0.0,0.0,0.0,0.0,0.0,0.0,0.0,0.0,0.0,0.0,0.0,0.0,0.0,0.0,2.8994,2.9751,3.021,3.021,3.0962,3.1751,3.254,3.1806,3.2155,3.3752,3.2999,3.2999,3.3807,3.3807,3.3807,3.3807,3.3807,3.3935,3.4223,3.4551,3.4851,3.5122,3.5383,3.5493,3.5493,3.5493,3.5493,3.5493,3.5532,3.6584,3.8007,3.8027,3.9123,4.0489,4.0489,4.0489,4.0508,4.0527,4.1739,4.3104,4.3124,4.4335,4.5586,4.5586,4.5586,4.5586,4.5586,4.5586,4.5586,4.5586,4.5586,4.5586,4.5586,4.5586,4.5586,4.5586,4.5586,4.5586,4.5586,4.5586,4.5586,4.5586,4.5586,4.5586,4.5586,4.5586,4.5586,4.5586,4.5586,4.5586,4.5586,4.5586,4.5605,4.5624,4.5605,4.5586,4.5586,4.5586,4.5586,4.5586,4.5586,4.5586,4.5586,4.5586,4.5586,0.0,0.0,2.8832,2.941,0.0,0.0,0.0,0.0,0.0,0.0,0.0,0.0,0.0,0.0,0.0,0.0,0.0,0.0,0.0,0.0,0.0,0.0,0.0,0.0,0.0,0.0,0.0,2.8994,2.9255,2.942,0.0,2.9659,3.0191,3.0999,3.0742,3.1384,3.2999,3.2742,3.2999,3.3807,3.3807,3.3807,3.3807,3.3807,3.3868,3.3935,3.4242,3.4551,3.487,3.5122,3.5354,3.5493,3.5493,3.5493,3.5551,3.6103,3.7026,3.8161,3.9258,4.0027,4.0489,4.0489,4.0489,4.0604,4.1181,4.2162,4.3201,4.3739,4.472,4.5586,4.5586,4.5586,4.5586,4.5586,4.5586,4.5586,4.5586,4.5586,4.5586,4.5586,4.5586,4.5586,4.5586,4.5586,4.5586,4.5586,4.5586,4.5586,4.5586,4.5586,4.5586,4.5586,4.5586,4.5586,4.5586,4.5586,4.5586,4.5586,4.5586,4.5586,4.5586,4.5586,4.5586,4.5586,4.5586,4.5586,4.5586,4.5586,4.5893,4.6471,4.6471,4.6471,3.016,2.9987,0.0,3.0275,3.0398,0.0,3.0398,0.0,0.0,0.0,0.0,0.0,0.0,0.0,0.0,0.0,0.0,0.0,0.0,0.0,0.0,0.0,0.0,0.0,0.0,0.0,2.8994,2.8994,2.8994,2.8994,0.0,0.0,2.9806,3.0595,3.0632,3.1403,3.3018,3.2742,3.2999,3.3807,3.3807,3.3807,3.3807,3.3807,3.3807,3.3815,3.4074,3.4379,3.4714,3.4889,3.5174,3.5493,3.5383,3.5417,3.5603,3.6411,3.745,3.8623,3.97,4.0258,4.0489,4.0489,4.0489,4.0585,4.1162,4.195,4.2816,4.3643,4.447,4.5201,4.5509,4.5586,4.5586,4.5586,4.5586,4.5586,4.5586,4.5586,4.5586,4.5586,4.5586,4.5586,4.5586,4.5586,4.5586,4.5586,4.5586,4.5586,4.5586,4.5586,4.5586,4.5586,4.5586,4.5586,4.5586,4.5586,4.5586,4.5586,4.5586,4.5586,4.5586,4.5586,4.5874,4.6471,4.5893,4.5893,4.649,4.5893,4.6047,4.6913,4.7201,4.749]},{"header":{"parameterUnit":"m.s-1","parameterCategory":1,"la1":30.6,"la2":29.2853,"lo1":-89.7004,"lo2":-87.6739,"dx":0.0162,"dy":0.0183,"nx":112,"ny":82,"refTime":"2023-02-10T06:00:00:Z","depth":0,"parameterNumber":3,"parameterNumberName":"V-component_of_WINDS"},"data":[0.0,0.0,0.0,0.0,0.0,0.0,0.0,0.0,0.0,0.0,0.0,0.0,0.0,0.0,0.0,0.0,0.0,0.0,0.0,0.0,0.0,0.0,0.0,0.0,0.0,0.0,0.0,0.0,0.0,0.0,0.0,0.0,0.0,0.0,0.0,0.0,0.0,0.0,0.0,0.0,0.0,0.0,0.0,0.0,0.0,0.0,0.0,0.0,0.0,0.0,0.0,0.0,0.0,0.0,0.0,0.0,0.0,0.0,0.0,0.0,0.0,0.0,0.0,0.0,0.0,0.0,0.0,0.0,0.0,0.0,0.0,0.0,0.0,0.0,0.0,0.0,0.0,0.0,0.0,0.0,0.0,0.0,0.0,0.0,0.0,0.0,0.0,0.0,0.0,0.0,0.0,-0.8437,-0.9432,-0.9691,-0.8851,-0.8894,-0.8664,-0.7948,0.0,0.0,0.0,0.0,0.0,0.0,0.0,0.0,0.0,0.0,0.0,0.0,0.0,0.0,0.0,0.0,0.0,0.0,0.0,0.0,0.0,0.0,0.0,0.0,0.0,0.0,0.0,0.0,0.0,0.0,0.0,0.0,0.0,0.0,0.0,0.0,0.0,0.0,0.0,0.0,0.0,0.0,0.0,0.0,0.0,0.0,0.0,0.0,0.0,0.0,0.0,0.0,0.0,0.0,0.0,0.0,0.0,0.0,0.0,0.0,0.0,0.0,0.0,0.0,0.0,0.0,0.0,0.0,0.0,0.0,0.0,0.0,0.0,0.0,0.0,0.0,0.0,0.0,0.0,0.0,0.0,0.0,0.0,0.0,0.0,0.0,0.0,0.0,0.0,0.0,0.0,0.0,0.0,0.0,0.0,0.0,0.0,0.0,0.0,0.0,0.0,0.0,0.0,0.0,-0.8176,-0.8964,-0.9492,-0.9479,-0.8839,-0.8729,-0.8416,-0.7937,0.0,0.0,0.0,0.0,0.0,0.0,0.0,0.0,0.0,0.0,0.0,0.0,0.0,0.0,0.0,0.0,0.0,0.0,0.0,0.0,0.0,0.0,0.0,0.0,0.0,0.0,0.0,0.0,0.0,0.0,0.0,0.0,0.0,0.0,0.0,0.0,0.0,0.0,0.0,0.0,0.0,0.0,0.0,0.0,0.0,0.0,0.0,0.0,0.0,0.0,0.0,0.0,0.0,0.0,0.0,0.0,0.0,0.0,0.0,0.0,0.0,0.0,0.0,0.0,0.0,0.0,0.0,0.0,0.0,0.0,0.0,0.0,0.0,0.0,0.0,0.0,0.0,0.0,0.0,0.0,0.0,0.0,0.0,0.0,0.0,0.0,0.0,0.0,0.0,0.0,0.0,0.0,0.0,0.0,0.0,0.0,0.0,0.0,0.0,0.0,0.0,0.0,0.0,-0.8357,-0.8805,-0.9419,-0.974,-0.9475,-0.8287,-0.7968,-0.748,-0.6796,-0.5793,0.0,0.0,0.0,0.0,0.0,0.0,0.0,0.0,0.0,0.0,0.0,0.0,0.0,0.0,0.0,0.0,0.0,0.0,0.0,0.0,0.0,0.0,0.0,0.0,0.0,0.0,0.0,0.0,0.0,0.0,0.0,0.0,0.0,0.0,0.0,0.0,0.0,0.0,0.0,0.0,0.0,0.0,0.0,0.0,0.0,0.0,0.0,0.0,0.0,0.0,0.0,0.0,0.0,0.0,0.0,0.0,0.0,0.0,0.0,0.0,0.0,0.0,0.0,0.0,0.0,0.0,0.0,0.0,0.0,0.0,0.0,0.0,0.0,0.0,0.0,0.0,0.0,0.0,0.0,0.0,0.0,0.0,0.0,0.0,0.0,0.0,0.0,0.0,0.0,0.0,0.0,0.0,0.0,0.0,0.0,0.0,0.0,0.0,0.0,0.0,0.0,0.0,-0.8925,-0.9269,-0.9552,-0.984,-0.9452,-0.7971,-0.7369,-0.68,-0.6112,-0.5098,0.0,0.0,0.0,0.0,0.0,0.0,0.0,0.0,0.0,0.0,0.0,0.0,0.0,0.0,0.0,0.0,0.0,0.0,0.0,0.0,0.0,0.0,0.0,0.0,0.0,0.0,0.0,0.0,0.0,0.0,0.0,0.0,0.0,0.0,0.0,0.0,0.0,0.0,0.0,0.0,0.0,0.0,0.0,0.0,0.0,0.0,0.0,0.0,0.0,0.0,0.0,0.0,0.0,0.0,0.0,0.0,0.0,0.0,0.0,0.0,0.0,0.0,0.0,0.0,0.0,0.0,0.0,0.0,0.0,0.0,0.0,0.0,0.0,0.0,0.0,0.0,0.0,0.0,0.0,0.0,0.0,0.0,0.0,0.0,0.0,0.0,0.0,0.0,0.0,0.0,0.0,0.0,0.0,0.0,0.0,0.0,0.0,0.0,0.0,0.0,0.0,0.0,-0.9051,-0.919,-0.9216,-0.9532,-0.935,-0.8445,-0.7569,-0.7028,-0.6847,-0.5378,0.0,0.0,0.0,0.0,0.0,0.0,0.0,0.0,0.0,0.0,0.0,0.0,0.0,0.0,0.0,0.0,0.0,0.0,0.0,0.0,0.0,0.0,0.0,0.0,0.0,0.0,0.0,0.0,0.0,0.0,0.0,0.0,0.0,0.0,0.0,0.0,0.0,0.0,0.0,0.0,0.0,0.0,0.0,0.0,0.0,0.0,0.0,0.0,0.0,0.0,0.0,0.0,0.0,0.0,0.0,0.0,0.0,0.0,0.0,0.0,0.0,0.0,0.0,0.0,0.0,0.0,0.0,0.0,0.0,0.0,0.0,0.0,0.0,0.0,0.0,0.0,0.0,0.0,0.0,0.0,0.0,0.0,0.0,0.0,0.0,0.0,0.0,0.0,0.0,0.0,0.0,0.0,0.0,0.0,0.0,0.0,0.0,0.0,0.0,0.0,0.0,0.0,-0.9058,-0.9017,0.0,-0.8714,-0.8252,-0.7034,-0.6435,-0.593,-0.5433,0.0,0.0,0.0,0.0,0.0,0.0,0.0,0.0,0.0,0.0,0.0,0.0,0.0,0.0,0.0,0.0,0.0,0.0,0.0,0.0,0.0,0.0,0.0,0.0,0.0,0.0,0.0,0.0,0.0,0.0,0.0,0.0,0.0,0.0,0.0,0.0,0.0,0.0,0.0,0.0,0.0,0.0,0.0,0.0,0.0,0.0,0.0,0.0,0.0,0.0,0.0,0.0,0.0,0.0,0.0,0.0,0.0,0.0,0.0,0.0,0.0,0.0,0.0,0.0,0.0,0.0,0.0,0.0,0.0,0.0,0.0,0.0,0.0,0.0,0.0,0.0,0.0,0.0,0.0,0.0,0.0,0.0,0.0,0.0,0.0,0.0,0.0,0.0,0.0,0.0,0.0,0.0,0.0,0.0,0.0,0.0,0.0,0.0,0.0,0.0,0.0,0.0,-0.8784,-0.9058,-0.8922,0.0,-0.812,-0.7678,-0.6318,-0.5788,-0.5328,-0.4842,0.0,0.0,0.0,0.0,0.0,0.0,0.0,0.0,0.0,0.0,0.0,0.0,0.0,0.0,0.0,0.0,0.0,0.0,0.0,0.0,0.0,0.0,0.0,0.0,0.0,0.0,0.0,0.0,0.0,0.0,0.0,0.0,0.0,0.0,0.0,0.0,0.0,0.0,0.0,0.0,0.0,0.0,0.0,0.0,0.0,0.0,0.0,0.0,0.0,0.0,0.0,0.0,0.0,0.0,0.0,0.0,0.0,0.0,0.0,0.0,0.0,0.0,0.0,0.0,0.0,0.0,0.0,0.0,0.0,0.0,0.0,0.0,0.0,0.0,0.0,0.0,0.0,0.0,0.0,0.0,0.0,0.0,0.0,0.0,0.0,0.0,0.0,0.0,0.0,0.0,0.0,0.0,0.0,0.0,0.0,0.0,0.0,0.0,0.0,0.0,0.0,0.0,-0.8811,-0.9065,-0.8796,-0.7812,-0.8013,-0.7783,-0.6668,-0.5928,-0.5483,0.0,0.0,0.0,0.0,0.0,0.0,0.0,0.0,0.0,0.0,0.0,0.0,0.0,0.0,0.0,0.0,0.0,0.0,0.0,0.0,0.0,0.0,0.0,0.0,0.0,0.0,0.0,0.0,0.0,0.0,0.0,0.0,0.0,0.0,0.0,0.0,0.0,0.0,0.0,0.0,0.0,0.0,0.0,0.0,0.0,0.0,0.0,0.0,0.0,0.0,0.0,0.0,0.0,0.0,0.0,0.0,0.0,0.0,0.0,0.0,0.0,0.0,0.0,0.0,0.0,0.0,0.0,0.0,0.0,0.0,0.0,0.0,0.0,0.0,0.0,0.0,0.0,0.0,0.0,0.0,0.0,0.0,0.0,0.0,0.0,0.0,0.0,0.0,0.0,0.0,0.0,0.0,0.0,0.0,0.0,0.0,0.0,0.0,0.0,0.0,0.0,0.0,0.0,0.0,-0.913,-0.9,-0.8372,-0.7773,-0.7064,-0.6266,-0.5353,-0.4787,-0.4787,0.0,0.0,0.0,0.0,0.0,0.0,0.0,0.0,0.0,0.0,0.0,0.0,0.0,0.0,0.0,0.0,0.0,0.0,0.0,0.0,0.0,0.0,0.0,0.0,0.0,0.0,0.0,0.0,0.0,0.0,0.0,0.0,0.0,0.0,0.0,0.0,0.0,0.0,0.0,0.0,0.0,0.0,0.0,0.0,0.0,0.0,0.0,0.0,0.0,0.0,0.0,0.0,0.0,0.0,0.0,0.0,0.0,0.0,0.0,0.0,0.0,0.0,0.0,0.0,0.0,0.0,0.0,0.0,0.0,0.0,0.0,0.0,0.0,0.0,0.0,0.0,0.0,0.0,0.0,0.0,0.0,0.0,0.0,0.0,0.0,0.0,0.0,0.0,0.0,0.0,0.0,0.0,0.0,0.0,0.0,0.0,0.0,0.0,0.0,0.0,0.0,0.0,-0.8688,-0.8664,-0.8369,-0.7634,-0.7008,-0.6321,-0.5558,-0.4944,-0.4584,-0.4522,0.0,0.0,0.0,0.0,0.0,0.0,0.0,0.0,0.0,0.0,0.0,0.0,0.0,0.0,0.0,0.0,0.0,0.0,0.0,0.0,0.0,0.0,0.0,0.0,0.0,0.0,0.0,0.0,0.0,0.0,0.0,0.0,0.0,0.0,0.0,0.0,0.0,0.0,0.0,0.0,0.0,0.0,0.0,0.0,0.0,0.0,0.0,0.0,0.0,0.0,0.0,0.0,0.0,0.0,0.0,0.0,0.0,0.0,0.0,0.0,0.0,0.0,0.0,0.0,0.0,0.0,0.0,0.0,0.0,0.0,0.0,0.0,0.0,0.0,0.0,0.0,0.0,0.0,0.0,0.0,0.0,0.0,0.0,0.0,0.0,0.0,0.0,0.0,0.0,0.0,0.0,0.0,0.0,0.0,0.0,0.0,0.0,0.0,0.0,0.0,0.0,0.0,-0.8031,-0.7954,-0.7485,-0.6319,-0.6086,-0.5715,-0.4917,-0.4766,-0.4629,-0.4546,0.0,0.0,0.0,0.0,0.0,0.0,0.0,0.0,0.0,0.0,0.0,0.0,0.0,0.0,0.0,0.0,0.0,0.0,0.0,0.0,0.0,0.0,0.0,0.0,0.0,0.0,0.0,0.0,0.0,0.0,0.0,0.0,0.0,0.0,0.0,0.0,0.0,0.0,0.0,0.0,0.0,0.0,0.0,0.0,0.0,0.0,0.0,0.0,0.0,0.0,0.0,0.0,0.0,0.0,0.0,0.0,0.0,0.0,0.0,0.0,-0.606,0.0,0.0,0.0,0.0,0.0,0.0,0.0,0.0,0.0,0.0,0.0,0.0,0.0,0.0,0.0,0.0,0.0,0.0,0.0,0.0,0.0,0.0,0.0,0.0,0.0,0.0,0.0,0.0,0.0,0.0,0.0,0.0,0.0,0.0,0.0,0.0,0.0,0.0,0.0,0.0,0.0,-0.8334,-0.8277,-0.8093,-0.7653,-0.6791,-0.6249,-0.6026,-0.524,-0.4677,-0.4643,0.0,0.0,0.0,0.0,0.0,0.0,0.0,0.0,0.0,0.0,0.0,0.0,0.0,0.0,0.0,0.0,0.0,0.0,0.0,0.0,0.0,0.0,0.0,0.0,0.0,0.0,0.0,0.0,0.0,0.0,0.0,0.0,0.0,0.0,0.0,0.0,0.0,0.0,0.0,0.0,0.0,0.0,0.0,0.0,0.0,0.0,0.0,0.0,0.0,0.0,0.0,0.0,0.0,0.0,0.0,0.0,0.0,0.0,0.0,0.0,0.0,-0.5429,0.0,0.0,0.0,0.0,0.0,0.0,0.0,0.0,0.0,0.0,0.0,0.0,0.0,0.0,0.0,0.0,0.0,0.0,0.0,0.0,0.0,0.0,0.0,0.0,0.0,0.0,0.0,0.0,0.0,0.0,0.0,0.0,0.0,0.0,0.0,0.0,0.0,0.0,0.0,0.0,-0.8045,-0.7838,-0.7527,-0.682,-0.6258,-0.5849,-0.5765,-0.5168,-0.4769,-0.4697,-0.4548,0.0,0.0,0.0,0.0,0.0,0.0,0.0,0.0,0.0,0.0,0.0,0.0,0.0,0.0,0.0,0.0,0.0,0.0,0.0,0.0,0.0,0.0,0.0,0.0,0.0,0.0,0.0,0.0,0.0,0.0,0.0,0.0,0.0,0.0,0.0,0.0,0.0,0.0,0.0,0.0,0.0,0.0,0.0,0.0,0.0,0.0,0.0,0.0,0.0,0.0,0.0,0.0,0.0,0.0,-0.6403,-0.6588,-0.6372,-0.5878,-0.5261,-0.4545,-0.4355,-0.4519,0.0,0.0,0.0,0.0,0.0,0.0,0.0,0.0,0.0,0.0,0.0,0.0,0.0,0.0,0.0,0.0,0.0,0.0,0.0,0.0,0.0,0.0,0.0,0.0,0.0,-0.8697,-0.8682,0.0,0.0,0.0,0.0,0.0,0.0,0.0,0.0,0.0,0.0,0.0,0.0,-0.7558,-0.7264,-0.6718,-0.5526,-0.5428,-0.5311,-0.5182,-0.5016,-0.4863,-0.4738,-0.4562,-0.4519,0.0,0.0,0.0,0.0,0.0,0.0,0.0,0.0,0.0,0.0,0.0,0.0,0.0,0.0,0.0,0.0,0.0,0.0,0.0,0.0,0.0,0.0,0.0,0.0,0.0,0.0,0.0,0.0,0.0,0.0,0.0,0.0,-0.7923,-0.8216,0.0,0.0,0.0,0.0,0.0,0.0,0.0,0.0,0.0,0.0,0.0,0.0,0.0,0.0,-0.8691,-0.858,-0.8547,-0.8587,-0.7186,-0.6558,-0.6534,-0.5336,-0.4736,-0.4625,-0.4498,0.0,-0.4519,-0.4519,0.0,0.0,0.0,0.0,0.0,0.0,0.0,0.0,0.0,0.0,0.0,0.0,0.0,0.0,0.0,0.0,0.0,0.0,0.0,0.0,0.0,0.0,-0.8225,-0.804,-0.8211,-0.8259,0.0,-0.809,-0.8804,-0.8804,0.0,0.0,0.0,0.0,0.0,0.0,0.0,0.0,-0.731,-0.7303,-0.693,-0.554,-0.5428,-0.5418,-0.5332,-0.5077,-0.4911,-0.4891,-0.4619,-0.4519,-0.4519,-0.4589,0.0,0.0,0.0,0.0,0.0,0.0,0.0,0.0,0.0,0.0,0.0,0.0,0.0,0.0,0.0,0.0,0.0,0.0,0.0,0.0,0.0,0.0,0.0,0.0,0.0,0.0,0.0,0.0,0.0,-0.7503,-0.7928,-0.811,-0.8417,-0.8617,0.0,0.0,0.0,0.0,0.0,0.0,0.0,0.0,0.0,-0.8804,-0.8804,-0.8804,-0.8804,-0.8374,-0.7996,-0.7563,-0.6912,-0.6215,-0.5542,-0.5317,-0.5034,-0.4718,-0.4718,-0.4718,-0.4707,-0.4587,-0.4519,-0.4519,0.0,0.0,0.0,0.0,0.0,-0.4589,-0.4589,0.0,0.0,0.0,0.0,0.0,0.0,0.0,0.0,0.0,0.0,0.0,0.0,0.0,0.0,-0.7502,-0.7576,-0.7709,-0.7828,-0.8247,-0.8497,0.0,-0.8584,-0.8858,-0.9025,0.0,0.0,0.0,0.0,0.0,-0.7441,-0.7011,-0.6387,-0.5477,-0.5428,-0.5428,-0.5428,-0.5162,-0.5003,-0.4925,-0.4792,-0.468,-0.4596,-0.4738,-0.4819,0.0,0.0,0.0,0.0,0.0,0.0,0.0,0.0,0.0,0.0,0.0,0.0,0.0,0.0,0.0,0.0,0.0,0.0,0.0,0.0,0.0,0.0,0.0,0.0,0.0,0.0,0.0,0.0,-0.7709,-0.8043,-0.8043,-0.8497,-0.8804,0.0,0.0,0.0,0.0,0.0,0.0,-0.8804,-0.8804,-0.8804,-0.8804,-0.8878,-0.8918,-0.8918,-0.8438,-0.7807,-0.7086,-0.6865,-0.6163,-0.5038,-0.5381,-0.5336,-0.4918,-0.4918,-0.4918,-0.4897,-0.4629,-0.4577,-0.4573,-0.4532,-0.4543,-0.4577,-0.4577,-0.4616,-0.4748,-0.4748,-0.4748,-0.4748,-0.4748,0.0,-0.4579,-0.4579,0.0,0.0,0.0,0.0,-0.6427,-0.6653,0.0,-0.6993,-0.6988,-0.7226,-0.7561,-0.7926,-0.8404,-0.8663,0.0,-0.8724,-0.9078,-0.9157,0.0,0.0,0.0,0.0,-0.7683,-0.7284,-0.6744,-0.6124,-0.554,-0.542,-0.5403,-0.5432,-0.522,-0.5084,-0.4979,-0.4938,-0.4867,-0.4755,-0.4894,-0.4972,-0.4972,0.0,0.0,0.0,0.0,0.0,0.0,0.0,0.0,0.0,0.0,0.0,0.0,0.0,0.0,0.0,0.0,0.0,0.0,0.0,0.0,0.0,0.0,0.0,0.0,0.0,0.0,0.0,0.0,0.0,-0.835,-0.8624,0.0,0.0,0.0,0.0,-0.8804,-0.8804,-0.8804,-0.8804,-0.8804,-0.8804,-0.8804,-0.9072,-0.9163,-0.9163,-0.9442,-0.9157,-0.8317,-0.7613,-0.679,-0.592,-0.5264,-0.4911,-0.4918,-0.4918,-0.4918,-0.4908,-0.4745,-0.4677,-0.4663,-0.4573,-0.4551,-0.4677,-0.4677,-0.4775,-0.4908,-0.4908,-0.4908,-0.4908,-0.4908,-0.4901,-0.4897,-0.4897,-0.4894,0.0,0.0,-0.4961,-0.5179,-0.5996,-0.6485,-0.6741,-0.6726,-0.7656,-0.822,-0.7205,-0.8379,-0.9633,0.0,-0.9646,-0.9552,-0.923,0.0,-0.8305,-0.8027,-0.7747,-0.724,-0.6555,-0.6668,-0.6511,-0.5714,-0.5579,-0.5518,-0.5439,-0.522,-0.5128,-0.5121,-0.4992,-0.4914,-0.4908,-0.5043,-0.5121,-0.5121,-0.527,0.0,0.0,0.0,0.0,0.0,0.0,0.0,0.0,0.0,0.0,0.0,0.0,0.0,0.0,0.0,0.0,0.0,0.0,0.0,0.0,0.0,0.0,0.0,0.0,0.0,0.0,0.0,0.0,-0.8427,-0.8631,0.0,0.0,-0.8804,-0.8804,-0.8804,-0.8804,-0.8804,-0.8804,-0.8804,-0.8804,-0.8804,-0.841,-0.8269,-0.8373,-0.7917,-0.7397,-0.6731,-0.6967,-0.6402,-0.5282,-0.5624,-0.5546,-0.5203,-0.5203,-0.5203,-0.5192,-0.5036,-0.4918,-0.4833,-0.4775,-0.4789,-0.484,-0.484,-0.4928,-0.5053,-0.5053,-0.5053,-0.504,-0.4948,-0.4918,-0.4918,-0.4918,-0.4982,-0.5053,-0.5053,-0.5199,-0.5428,-0.574,-0.5935,-0.6139,-0.6131,-0.6466,-0.6844,-0.6995,-0.7539,-0.8162,-0.8727,-0.9005,-0.912,-0.9272,-0.8346,-0.7558,-0.762,-0.7092,-0.6569,-0.6441,-0.6225,-0.5964,-0.5785,-0.5644,-0.5566,-0.5511,-0.5369,-0.5237,-0.5138,-0.5176,-0.5159,-0.506,-0.5199,-0.5281,-0.5281,-0.5332,-0.541,0.0,0.0,0.0,0.0,0.0,0.0,0.0,0.0,0.0,0.0,0.0,0.0,0.0,0.0,0.0,0.0,0.0,0.0,0.0,0.0,0.0,0.0,0.0,0.0,0.0,0.0,-0.8517,-0.8517,-0.8691,-0.8804,-0.8804,-0.8804,-0.8804,-0.8804,-0.8804,-0.8804,-0.8804,-0.8804,-0.8804,-0.8804,-0.841,-0.8263,-0.8317,-0.7706,-0.7042,-0.6366,-0.6671,-0.6233,-0.507,-0.5668,-0.5712,-0.5428,-0.5428,-0.5428,-0.5422,-0.525,-0.5152,-0.506,-0.4958,-0.4982,-0.5067,-0.5067,-0.5192,-0.5355,-0.5355,-0.5355,-0.5342,-0.5247,-0.5216,-0.5216,-0.5216,-0.5281,-0.5355,-0.5355,-0.5504,-0.5674,-0.5725,-0.5847,-0.5969,-0.6017,-0.6321,-0.6674,-0.7127,-0.7552,-0.7965,-0.8455,-0.8576,-0.8667,-0.8748,-0.7845,-0.7117,-0.7107,-0.6513,-0.6136,-0.6241,-0.5951,-0.5776,-0.5867,-0.5793,-0.5698,-0.5599,-0.5542,-0.5423,-0.522,-0.5355,-0.5369,-0.5213,-0.5359,-0.544,-0.544,-0.5488,-0.5559,-0.5661,0.0,0.0,0.0,0.0,0.0,0.0,0.0,0.0,0.0,0.0,0.0,0.0,0.0,0.0,0.0,0.0,0.0,0.0,0.0,0.0,0.0,0.0,0.0,-0.8824,-0.8824,-0.8824,-0.8831,-0.8831,-0.8831,-0.8831,-0.8831,-0.8831,-0.8824,-0.8824,-0.8824,-0.8824,-0.8811,-0.8818,-0.8831,-0.9044,-0.919,-0.921,-0.8907,-0.8292,-0.7442,-0.6948,-0.626,-0.5422,-0.5425,-0.5428,-0.5428,-0.5428,-0.5432,-0.5435,-0.5435,-0.5439,-0.5411,-0.5053,-0.5114,-0.5435,-0.5439,-0.5555,-0.58,-0.58,-0.58,-0.58,-0.58,-0.58,-0.5803,-0.5806,-0.581,-0.581,-0.5813,-0.582,-0.5857,-0.6006,-0.6159,-0.6308,-0.6447,-0.7266,-0.7924,-0.759,-0.847,-0.909,-0.8778,-0.8499,-0.823,-0.7744,-0.7327,-0.6888,-0.6469,-0.6026,0.0,-0.601,-0.603,-0.603,-0.6037,-0.6034,-0.5915,-0.563,-0.5725,-0.5681,-0.5459,-0.5511,-0.5525,-0.5449,-0.5511,-0.5593,-0.5596,-0.5735,-0.581,-0.581,0.0,0.0,0.0,0.0,0.0,0.0,0.0,0.0,0.0,0.0,0.0,0.0,0.0,0.0,0.0,0.0,0.0,0.0,0.0,0.0,0.0,0.0,-0.9064,-0.9064,-0.9064,-0.9205,-0.9419,-0.9446,-0.9446,-0.9446,-0.9446,-0.9352,-0.9084,-0.9064,-0.9064,-0.9064,-0.8925,-0.8998,-0.9426,-0.8802,-0.863,-0.889,-0.8186,-0.7466,-0.6697,-0.6561,-0.6018,-0.5199,-0.5311,-0.5428,-0.5428,-0.5428,-0.5423,-0.5528,-0.5528,-0.5589,-0.5661,-0.5477,-0.5457,-0.5538,-0.5644,-0.5732,-0.58,-0.58,-0.58,-0.58,-0.58,-0.58,-0.5823,-0.5932,-0.5966,-0.5989,-0.6105,-0.621,-0.6298,-0.6339,-0.6464,-0.659,-0.6627,-0.688,-0.6997,-0.6835,-0.7036,-0.7223,-0.7057,-0.7007,-0.7171,-0.7474,-0.6742,-0.6126,-0.5969,-0.5887,0.0,-0.601,-0.603,-0.6071,-0.6186,-0.6098,-0.5996,-0.5915,-0.5844,-0.5766,0.0,-0.5623,-0.5616,-0.5677,-0.5623,-0.5637,-0.5742,-0.5891,-0.5966,0.0,0.0,0.0,0.0,0.0,0.0,0.0,0.0,0.0,0.0,0.0,0.0,0.0,0.0,0.0,0.0,0.0,0.0,0.0,0.0,0.0,0.0,-0.907,-0.9269,-0.9515,-0.9506,-0.9492,-0.9659,-0.9686,-0.9686,-0.9686,-0.9686,-0.9613,-0.9439,-0.9426,-0.9426,-0.9426,-0.9265,-0.9332,-0.9673,-0.9112,-0.8939,-0.9184,-0.8061,-0.7257,-0.6885,-0.6277,-0.5739,-0.523,-0.5321,-0.5463,0.0,-0.5457,-0.5542,-0.5677,-0.5677,-0.5728,0.0,0.0,0.0,0.0,0.0,-0.603,-0.6081,-0.6081,-0.6081,-0.6091,-0.6159,-0.6135,-0.6112,-0.6264,-0.6312,-0.6329,-0.642,-0.6505,-0.6566,-0.6566,-0.6681,-0.6797,-0.6797,-0.6797,-0.6773,-0.6681,-0.6614,-0.6542,-0.6461,0.0,0.0,-0.711,-0.6615,-0.6156,-0.6091,-0.6135,-0.621,0.0,-0.6312,-0.6346,-0.6434,-0.6363,-0.6261,-0.6135,-0.6098,0.0,0.0,0.0,-0.5813,-0.5895,-0.582,0.0,0.0,0.0,-0.6125,0.0,0.0,0.0,0.0,-0.6176,-0.6213,0.0,0.0,0.0,0.0,0.0,0.0,0.0,0.0,0.0,0.0,0.0,0.0,0.0,0.0,0.0,0.0,-0.9289,-0.9586,-1.014,-1.002,-0.9853,-0.9793,-0.978,-0.978,-0.978,-0.978,-0.9766,-0.9733,-0.9733,-0.9733,-0.9733,0.0,0.0,0.0,0.0,-0.9688,-0.9662,-0.8371,-0.7601,-0.7414,-0.6155,-0.5519,-0.5456,-0.547,-0.5484,-0.5613,-0.5613,-0.5694,-0.5827,-0.5827,-0.5837,-0.585,-0.5833,-0.5922,-0.6071,-0.621,-0.6349,0.0,0.0,0.0,0.0,-0.6658,-0.661,-0.6525,-0.6678,-0.6715,-0.6705,-0.6722,-0.6725,-0.6725,-0.6725,-0.6841,-0.6953,-0.6953,-0.6953,-0.6949,-0.6932,-0.682,-0.6722,-0.6705,-0.6715,-0.6725,-0.6725,-0.6712,-0.6654,-0.6519,-0.6614,0.0,-0.6702,-0.6702,-0.6702,-0.6702,0.0,0.0,-0.6332,-0.641,-0.6302,-0.5901,-0.5989,-0.6047,-0.603,-0.6047,-0.6122,-0.6335,-0.6338,-0.6338,-0.6338,-0.6338,-0.6338,-0.6338,-0.6338,-0.6271,0.0,0.0,0.0,0.0,0.0,0.0,0.0,0.0,0.0,0.0,0.0,0.0,0.0,0.0,0.0,-0.9552,-0.9993,-1.0428,-1.0775,-1.0975,-1.0915,-1.051,-1.0456,-1.0456,-1.0456,-1.0456,-1.0294,-1.0053,-1.0033,-1.0033,-1.0033,-0.9813,0.0,-1.0436,-1.016,-0.9836,-0.9373,-0.9105,-0.8222,-0.6863,0.0,0.0,-0.5549,-0.5664,-0.5732,-0.5762,-0.5762,-0.5847,-0.5986,-0.5986,-0.6057,-0.6159,-0.6034,-0.6081,-0.622,-0.6251,-0.6349,-0.6471,-0.6471,-0.6552,-0.6661,-0.6692,-0.6681,-0.6685,-0.6837,-0.68,0.0,-0.6851,-0.6885,-0.6885,-0.6885,-0.6993,-0.7099,-0.7099,-0.7099,-0.7068,-0.6953,-0.6905,-0.6848,-0.6725,-0.68,-0.6885,-0.6885,-0.6783,-0.6692,-0.6661,-0.6681,-0.6702,-0.6702,-0.6702,-0.6702,-0.6702,-0.6702,-0.6678,-0.662,-0.6525,-0.6434,-0.6349,-0.6261,-0.6159,-0.6034,-0.6149,-0.623,-0.6261,-0.6338,-0.6338,-0.6338,-0.6338,-0.6338,-0.6338,-0.6338,-0.6322,0.0,0.0,0.0,0.0,0.0,0.0,0.0,0.0,0.0,0.0,0.0,-0.9025,0.0,0.0,-0.9773,-1.0074,-1.0488,-1.0875,-1.1169,-1.1209,-1.1102,-1.0815,-1.0775,-1.0722,-1.0638,-1.0624,-1.0557,-1.0347,-1.0341,-1.0341,-1.0341,-1.02,-1.0322,-1.0611,-1.0032,-0.9585,-0.9384,-0.8525,-0.7717,-0.6869,-0.6549,-0.6109,-0.5698,-0.5769,-0.5844,-0.5915,-0.5915,-0.6003,-0.6146,-0.6146,-0.6193,-0.6261,-0.6254,-0.6254,-0.6271,-0.6339,-0.6461,-0.6597,-0.6675,-0.6753,-0.6827,-0.6898,-0.6871,-0.6844,-0.699,-0.6983,-0.6936,-0.7014,-0.7034,-0.7034,-0.7034,-0.7088,-0.7139,-0.7139,-0.7139,-0.7122,-0.7051,-0.7095,-0.7126,-0.7051,-0.716,-0.7265,-0.7265,-0.72,-0.7099,-0.6943,-0.6919,-0.6919,-0.6919,-0.6919,-0.6919,-0.6919,-0.6919,-0.6892,-0.682,-0.6675,-0.6586,-0.6586,-0.6519,-0.641,-0.6257,-0.6325,-0.6332,-0.6264,-0.6332,-0.6366,-0.6366,-0.6444,-0.6481,-0.6481,-0.6481,-0.6478,0.0,0.0,0.0,0.0,0.0,0.0,0.0,0.0,-0.8911,-0.8965,-0.9212,-0.9356,-0.9356,-0.9886,-1.0381,-1.0681,-1.0975,-1.1263,-1.1557,-1.1343,-1.1142,-1.1082,-1.0982,-1.0815,-1.0645,-1.0624,-1.0624,-1.0624,-1.0624,-1.0624,-1.0624,-1.0678,-1.0578,-1.0379,-0.978,-0.9311,-0.9029,-0.7674,-0.6929,-0.6865,-0.6187,-0.5844,-0.5847,-0.5878,-0.5959,-0.6074,-0.6074,-0.6162,-0.6302,-0.6302,-0.6302,-0.6315,-0.6461,-0.6447,-0.6359,-0.6474,-0.6614,-0.6763,-0.6888,-0.6946,-0.699,-0.7102,-0.7061,-0.699,-0.7105,-0.7163,-0.7183,-0.7183,-0.7183,-0.719,-0.7221,-0.7207,-0.7193,-0.7221,-0.7231,-0.7231,-0.7231,-0.7329,-0.7414,-0.7414,-0.7516,-0.76,-0.76,-0.76,-0.7516,-0.7268,-0.7204,-0.7183,-0.7183,-0.7156,-0.7139,-0.7139,-0.7139,-0.7082,-0.6943,-0.6817,-0.6732,-0.6702,-0.6702,-0.6647,-0.6522,-0.6515,-0.6464,-0.6349,-0.6458,-0.6515,-0.6515,-0.6641,-0.6702,-0.6702,-0.6729,-0.6678,-0.7281,-0.7957,0.0,-0.837,-0.8571,-0.8838,0.0,0.0,-0.9265,-0.9532,-0.9813,-1.002,-1.002,-1.0501,-1.0989,-1.1283,-1.1577,-1.187,-1.2164,-1.1957,-1.1677,-1.141,-1.0922,-1.0658,-1.0624,-1.0624,-1.0624,-1.0624,-1.0624,-1.0624,-1.0624,-1.0808,-1.0535,-0.9663,-0.9746,-0.9045,-0.7398,-0.7191,-0.6702,-0.5946,-0.5939,-0.6003,-0.601,-0.6149,-0.6217,-0.6234,-0.6234,-0.6318,-0.6451,-0.6451,-0.6451,-0.6464,-0.6617,-0.6664,-0.6654,-0.6668,-0.6773,-0.6905,-0.6922,-0.701,-0.7119,-0.7136,-0.7129,-0.7119,-0.7136,-0.7238,-0.7346,-0.7346,-0.7346,-0.7377,-0.7512,-0.7448,-0.738,-0.7516,-0.755,-0.755,-0.755,-0.7563,-0.7573,-0.7573,-0.7587,-0.76,-0.76,-0.76,-0.7587,-0.7553,-0.7431,-0.7346,-0.7346,-0.7224,-0.7139,-0.7139,-0.7139,-0.7082,-0.6943,-0.6912,-0.6844,-0.6709,-0.6702,-0.6695,-0.6675,-0.6675,-0.6668,-0.6651,-0.6668,-0.6675,-0.6675,-0.6692,-0.6702,-0.6705,-0.6841,-0.6895,-0.8054,0.0,0.0,0.0,-0.8971,-0.9138,-0.9432,-0.9626,-0.9786,-0.9913,-1.0174,-1.0428,-1.0595,-1.0969,-1.1343,0.0,-1.1931,-1.2104,-1.2058,-1.1797,-1.1436,-1.0975,-1.0555,-1.0374,-1.0604,-1.0624,-1.0624,-1.0624,-1.0624,-1.0698,-1.0802,-1.039,-0.9977,-0.9713,-0.8783,-0.7904,-0.7227,-0.673,-0.6345,-0.6071,-0.6132,-0.6166,-0.6166,-0.623,-0.6305,-0.6383,-0.6383,-0.6468,-0.6607,-0.6607,-0.6607,-0.662,-0.6773,-0.6834,-0.6834,-0.6834,-0.6875,-0.6953,-0.7126,-0.7166,-0.7153,-0.7244,-0.7214,-0.7139,-0.7139,-0.7248,-0.737,-0.737,-0.7438,-0.7519,-0.7584,-0.7553,-0.7519,-0.7584,-0.76,-0.76,-0.76,-0.7665,-0.7723,-0.7723,-0.7794,-0.7855,-0.7855,-0.7855,-0.7855,-0.7855,-0.7655,-0.7506,-0.7506,-0.7448,-0.7407,-0.7407,-0.7329,-0.7251,-0.719,-0.7187,-0.7119,-0.6966,-0.6956,-0.6919,-0.6837,-0.6834,-0.6793,-0.6702,-0.679,-0.6834,-0.6834,-0.6915,-0.6956,-0.6956,-0.7021,-0.7051,-0.8626,0.0,0.0,-0.913,-0.9303,-0.9559,-0.986,-1.0087,-1.0261,-1.0341,-1.0528,-1.0742,-1.0955,-1.1229,0.0,-1.171,-1.1924,-1.1984,-1.1777,-1.1423,-1.1035,-1.0672,-1.0227,-1.008,-1.0362,-1.0394,-1.0441,-1.0441,-1.0577,-1.0752,-1.0982,-1.0111,-0.9582,-0.9617,-0.8131,-0.7216,-0.7049,-0.6389,-0.6149,-0.6338,-0.6338,-0.6338,-0.6264,-0.6302,-0.6396,-0.6536,-0.6536,-0.662,-0.6763,-0.6763,-0.6763,-0.6776,-0.6929,-0.7014,-0.7051,-0.7051,-0.7051,-0.7088,-0.7346,-0.7333,-0.7221,-0.7333,-0.7295,-0.7204,-0.7204,-0.7339,-0.7492,-0.7492,-0.7573,-0.7668,-0.7709,-0.7689,-0.7668,-0.7709,-0.7723,-0.7723,-0.7723,-0.7801,-0.7875,-0.7875,-0.7963,-0.8038,-0.8038,-0.8038,-0.8038,-0.8038,-0.7858,-0.7706,-0.7662,-0.7624,-0.76,-0.76,-0.7502,-0.7434,-0.7434,-0.7397,-0.7322,-0.721,-0.7163,-0.7095,-0.6993,-0.6987,-0.6936,-0.6824,-0.6929,-0.6987,-0.6987,-0.7092,-0.7139,-0.7139,-0.7139,-0.7139,0.0,0.0,-0.9176,-0.9183,-0.9666,-1.0167,-1.053,-1.0604,-1.0692,-1.0909,-1.0975,-1.0982,-1.0995,-1.1229,-1.143,-1.1436,-1.145,-1.145,-1.1443,-1.0949,-1.0645,-1.0624,-1.0047,-0.9699,0.0,-0.9967,-1.0134,-1.0134,-1.0401,-1.0752,-1.0982,-1.0288,-0.9552,-0.8849,-0.8112,-0.7314,-0.6331,-0.6331,-0.6254,-0.6338,-0.6338,-0.6338,-0.6268,-0.6403,-0.6549,-0.6695,-0.6695,-0.678,-0.6922,-0.6922,-0.6922,-0.6936,-0.7078,-0.7224,-0.7356,-0.7356,-0.7356,-0.738,-0.7539,-0.7492,-0.7363,-0.737,-0.7366,-0.7363,-0.7363,-0.7567,-0.7797,-0.7797,-0.7801,-0.7838,-0.7987,-0.7916,-0.7841,-0.7991,-0.8024,-0.8024,-0.8024,-0.8028,-0.8031,-0.8031,-0.8035,-0.8038,-0.8038,-0.8038,-0.8038,-0.8038,-0.8031,-0.7974,-0.7824,-0.7685,-0.76,-0.76,-0.7597,-0.7594,-0.7594,-0.7458,-0.737,-0.7363,-0.7224,-0.7139,-0.7132,-0.7132,-0.7132,-0.7126,-0.7132,-0.7132,-0.7132,-0.7139,-0.7139,-0.7139,-0.7139,-0.7139,0.0,0.0,-0.9276,-0.9726,-1.012,-1.0488,-1.0782,-1.0995,-1.1109,-1.1009,-1.0842,-1.0701,-1.0701,-1.0628,-1.0681,-1.1076,-1.1136,-1.1136,-1.1136,-1.0969,-1.0701,-1.0314,-1.0094,0.0,0.0,0.0,0.0,-1.0114,-1.0568,-1.0975,-1.1263,-1.0633,-1.0174,-1.0125,-0.8647,-0.7687,-0.7411,-0.6695,-0.6308,-0.64,-0.6305,-0.6338,-0.6345,-0.6407,-0.6556,-0.6705,-0.6807,-0.6936,-0.7068,-0.7068,-0.7068,-0.7085,-0.7234,-0.7326,-0.7383,-0.7485,-0.7522,-0.7529,-0.7584,-0.7499,-0.739,-0.7489,-0.7522,-0.7522,-0.7522,-0.7658,-0.7811,-0.7811,-0.7885,-0.7974,-0.8024,-0.8001,-0.7977,-0.8028,-0.8038,-0.8038,-0.8038,-0.8038,-0.8038,-0.8038,-0.8038,-0.8038,-0.8038,-0.8038,-0.8038,-0.8038,-0.8038,-0.8021,-0.797,-0.7831,-0.778,-0.7882,-0.7801,-0.774,-0.774,-0.7692,-0.7624,-0.7529,-0.7377,-0.7292,-0.7292,-0.7193,-0.7139,-0.7139,-0.7139,-0.7139,-0.7139,-0.7139,-0.7139,-0.7139,-0.7139,-0.7139,0.0,-0.9472,-0.98,-1.018,-1.0655,-1.1049,-1.1129,-1.1209,-1.1189,-1.0902,-1.0521,-1.0309,-1.0309,-1.0094,-1.0087,-1.0468,-1.0521,-1.0561,-1.0661,-1.0588,-1.0428,-1.0147,-1.0027,0.0,0.0,0.0,0.0,-1.0274,-1.0722,-1.1169,-1.1563,-1.0818,-1.0519,-1.0777,-0.8904,-0.793,-0.7965,-0.6924,-0.6383,-0.6471,-0.638,-0.6335,-0.6342,-0.6488,-0.6607,-0.6712,-0.6915,-0.7054,-0.7139,-0.7139,-0.7173,-0.7234,-0.7333,-0.7404,-0.7465,-0.7563,-0.76,-0.7607,-0.7658,-0.7577,-0.7478,-0.7628,-0.7675,-0.7675,-0.7675,-0.7777,-0.7892,-0.7892,-0.7963,-0.8038,-0.8038,-0.8038,-0.8038,-0.8038,-0.8038,-0.8038,-0.8038,-0.8038,-0.8038,-0.8038,-0.8038,-0.8038,-0.8038,-0.8038,-0.8038,-0.8038,-0.8038,-0.8038,-0.8038,-0.7953,-0.7929,-0.8028,-0.795,-0.7892,-0.7892,-0.7841,-0.7773,-0.7682,-0.7536,-0.7428,-0.7373,-0.7275,-0.7197,-0.7143,-0.7139,-0.7139,-0.7139,-0.7139,-0.7139,-0.7139,-0.7139,-0.7139,-0.9236,-0.992,-1.0631,-1.0658,-1.1229,-1.177,-1.147,-1.1182,-1.0882,-1.0638,-1.006,-0.9659,0.0,0.0,-0.9653,-0.9699,-0.9693,-0.9793,-1.0094,-0.9913,-0.9853,0.0,0.0,0.0,0.0,0.0,0.0,-1.0692,0.0,-1.1283,-1.1837,-1.1,-1.0615,-1.0875,-0.9034,-0.8053,-0.8074,-0.7049,-0.6491,-0.6485,-0.6485,-0.6478,-0.6478,-0.6637,-0.6709,-0.6715,-0.701,-0.7139,-0.7139,-0.7139,-0.7227,-0.736,-0.7366,-0.7461,-0.7587,-0.7587,-0.7587,-0.7607,-0.775,-0.7719,-0.7634,-0.7767,-0.7818,-0.7824,-0.7824,-0.7923,-0.8038,-0.8038,-0.8038,-0.8038,-0.8038,-0.8038,-0.8038,-0.8038,-0.8038,-0.8038,-0.8038,-0.8038,-0.8038,-0.8038,-0.8038,-0.8038,-0.8038,-0.8038,-0.8038,-0.8038,-0.8038,-0.8038,-0.8038,-0.8038,-0.8038,-0.8038,-0.8038,-0.8038,-0.8038,-0.7906,-0.7824,-0.7824,-0.7682,-0.7536,-0.739,-0.7366,-0.7288,-0.7143,-0.7139,-0.7139,-0.7139,-0.7139,-0.7139,-0.7139,-0.7139,-0.7139,-1.004,-1.045,-1.0732,-1.1096,-1.1369,-1.1463,-1.1169,-1.0875,-1.0591,-1.0013,-0.9613,-0.9352,0.0,0.0,0.0,-0.99,-0.9826,0.0,-1.0374,-1.0568,0.0,0.0,0.0,-1.0982,-1.0982,-1.1116,0.0,0.0,-1.1603,-1.171,-1.1864,-1.1847,-1.1942,-1.2309,-1.0202,-0.9293,-0.9615,-0.7724,-0.6756,-0.6644,-0.6644,-0.6583,-0.6481,-0.6749,-0.6807,-0.6715,-0.701,-0.7139,-0.7139,-0.7139,-0.7163,-0.721,-0.7326,-0.7397,-0.7431,-0.7431,-0.7431,-0.7451,-0.76,-0.7699,-0.7763,-0.7797,-0.7889,-0.798,-0.798,-0.8007,-0.8038,-0.8038,-0.8038,-0.8038,-0.8038,-0.8038,-0.8038,-0.8038,-0.8038,-0.8038,-0.8038,-0.8038,-0.8038,-0.8038,-0.8038,-0.8038,-0.8038,-0.8038,-0.8038,-0.8038,-0.8038,-0.8038,-0.8038,-0.8038,-0.8038,-0.8038,-0.8038,-0.8038,-0.8038,-0.8004,-0.798,-0.798,-0.774,-0.7584,-0.7543,-0.7322,-0.718,-0.7139,-0.7139,-0.7139,-0.7139,-0.7139,-0.7139,-0.7139,-0.7139,-0.7139,-1.049,-1.0907,-1.1182,-1.1376,-1.1423,-1.1316,-1.0902,-1.0481,-1.0047,-0.9586,-0.9252,0.0,0.0,0.0,0.0,0.0,0.0,0.0,-1.0287,-1.0621,-1.0848,0.0,-1.1249,0.0,-1.1423,-1.1543,-1.169,0.0,-1.187,-1.1924,-1.2051,-1.2338,-1.2572,-1.2815,-1.1315,-1.0432,-1.0277,-0.8606,-0.771,-0.7541,-0.7049,-0.6756,-0.6678,-0.6851,-0.6881,-0.6814,0.0,-0.7139,-0.7139,-0.7139,-0.718,-0.7251,-0.7336,-0.737,-0.737,-0.737,-0.737,-0.7394,-0.7546,-0.7692,-0.7821,-0.7889,-0.797,-0.8038,-0.8038,-0.8038,-0.8038,-0.8038,-0.8038,-0.8038,-0.8038,-0.8038,-0.8038,-0.8038,-0.8038,-0.8038,-0.8038,-0.8038,-0.8038,-0.8038,-0.8038,-0.8062,-0.813,-0.8082,-0.8062,-0.813,-0.8082,-0.8038,-0.8038,-0.8038,-0.8038,-0.8038,-0.8038,-0.8038,-0.8038,-0.8038,-0.8038,-0.8038,-0.7885,-0.7736,-0.7604,-0.7434,-0.7278,-0.7143,-0.7139,-0.7173,-0.7241,-0.7241,-0.7275,-0.7343,-0.7343,-0.7343,-1.0719,-1.1256,-1.1804,-1.155,-1.143,-1.1216,-1.0635,-1.0047,-0.9539,-0.919,0.0,0.0,-0.9137,0.0,-0.9058,-0.9646,0.0,-0.9506,-1.0094,-1.0461,-1.0768,-1.1022,-1.1343,-1.1543,-1.1543,-1.181,-1.1984,-1.1984,-1.2024,-1.2138,-1.2351,-1.2605,-1.2779,-1.2698,-1.2239,-1.1394,-1.0188,-0.9307,-0.8793,-0.8442,-0.7454,-0.6946,-0.6929,-0.6949,-0.6946,-0.6936,0.0,0.0,-0.7139,-0.7139,-0.7221,-0.7343,-0.7343,-0.7343,-0.7343,-0.7363,-0.737,-0.7397,-0.7567,-0.7709,-0.7834,-0.7991,-0.8038,-0.8038,-0.8038,-0.8038,-0.8038,-0.8038,-0.8038,-0.8038,-0.8038,-0.8038,-0.8038,-0.8038,-0.8038,-0.8038,-0.8038,-0.8038,-0.8038,-0.8038,-0.8055,-0.8113,-0.8248,-0.8174,-0.8136,-0.8252,-0.8157,-0.8062,-0.8041,-0.8038,-0.8038,-0.8038,-0.8038,-0.8038,-0.8038,-0.8038,-0.8038,-0.8038,-0.8021,-0.7885,-0.7611,-0.758,-0.7444,-0.7177,-0.717,-0.7248,-0.74,-0.74,-0.7468,-0.76,-0.76,-0.76,-1.1142,-1.1563,-1.1857,-1.1804,-1.143,-1.0915,-1.0327,-0.974,0.0,0.0,0.0,-0.9123,-0.9176,0.0,0.0,-0.9947,0.0,0.0,0.0,0.0,0.0,0.0,0.0,0.0,0.0,0.0,0.0,0.0,0.0,0.0,-1.2755,-1.2795,-1.257,-1.205,-1.2188,-1.1223,-0.9025,-0.8966,-0.8368,-0.7182,-0.7135,-0.7041,-0.6932,-0.7051,-0.7041,-0.6936,0.0,0.0,-0.7139,-0.7139,-0.7156,-0.718,-0.718,-0.718,-0.7193,-0.7322,-0.737,-0.7411,-0.7682,-0.779,-0.7834,-0.7991,-0.8038,-0.8038,-0.8038,-0.8038,-0.8038,-0.8038,-0.8038,-0.8038,-0.8038,-0.8038,-0.8038,-0.8038,-0.8038,-0.8038,-0.8038,-0.8038,-0.8038,-0.8038,-0.8143,-0.8238,-0.8265,-0.8347,-0.8374,-0.8286,-0.8248,-0.8184,-0.8055,-0.8038,-0.8038,-0.8038,-0.8038,-0.8038,-0.8038,-0.8038,-0.8038,-0.8038,-0.7919,-0.7777,-0.7607,-0.7478,-0.7387,-0.7333,-0.7329,-0.7407,-0.756,-0.756,-0.7573,-0.76,-0.76,-0.76,-1.1309,-1.175,-1.2017,-1.171,-1.1202,-1.0615,-1.0027,0.0,0.0,0.0,0.0,-0.9276,-0.9639,0.0,0.0,0.0,0.0,0.0,0.0,0.0,0.0,0.0,0.0,0.0,0.0,0.0,0.0,0.0,0.0,0.0,-1.2986,-1.3133,-1.3166,-1.3079,-1.314,-1.2711,-1.1483,-1.0274,-0.9424,-0.8837,-0.7545,-0.7034,-0.7041,-0.7109,-0.7102,-0.7044,-0.7109,0.0,-0.7139,-0.7139,-0.7139,-0.7139,-0.7139,-0.719,-0.7272,-0.7346,-0.7421,-0.7519,-0.7736,-0.7811,-0.7834,-0.7991,-0.8038,-0.8038,-0.8038,-0.8038,-0.8038,-0.8038,-0.8038,-0.8038,-0.8038,-0.8038,-0.8038,-0.8038,-0.8038,-0.8038,-0.8038,-0.8038,-0.8038,-0.8038,-0.8163,-0.8272,-0.8272,-0.8326,-0.8347,-0.8282,-0.8201,-0.8123,-0.8048,-0.8038,-0.8038,-0.8038,-0.8038,-0.8038,-0.8038,-0.8038,-0.8038,-0.8038,-0.797,-0.7865,-0.7716,-0.7638,-0.7563,-0.7492,-0.7492,-0.7563,-0.7709,-0.7709,-0.775,-0.7828,-0.7828,-0.7828,-1.1329,-1.181,-1.2071,-1.1476,-1.0942,-1.045,-0.974,-0.9185,0.0,0.0,0.0,0.0,0.0,0.0,0.0,0.0,0.0,0.0,0.0,0.0,0.0,0.0,0.0,0.0,0.0,0.0,0.0,0.0,0.0,0.0,-1.3287,-1.3581,-1.3814,-1.3988,-1.4055,-1.3911,-1.3463,-1.1712,-1.0552,-1.0042,-0.8193,-0.7292,-0.7139,-0.7139,-0.7139,-0.7139,-0.7139,0.0,0.0,-0.7153,-0.716,-0.719,-0.719,-0.7265,-0.738,-0.7441,-0.7543,-0.7665,-0.7811,-0.7862,-0.7879,-0.8001,-0.8038,-0.8038,-0.8038,-0.8038,-0.8038,-0.8038,-0.8038,-0.8038,-0.8038,-0.8038,-0.8038,-0.8038,-0.8038,-0.8038,-0.8038,-0.8065,-0.8079,-0.8045,-0.8214,-0.8343,-0.8282,-0.8323,-0.8343,-0.8279,-0.8167,-0.8075,-0.8041,-0.8038,-0.8038,-0.8038,-0.8038,-0.8038,-0.8038,-0.8038,-0.8038,-0.8038,-0.8038,-0.797,-0.7818,-0.7811,-0.7756,-0.7648,-0.7645,-0.7716,-0.7862,-0.7862,-0.7923,-0.8038,-0.8038,-0.8038,-1.1276,-1.1663,-1.1764,-1.1176,-1.0795,-1.0334,-0.9472,0.0,0.0,0.0,0.0,0.0,0.0,0.0,0.0,0.0,0.0,0.0,0.0,0.0,0.0,0.0,0.0,0.0,0.0,0.0,0.0,0.0,0.0,0.0,0.0,-1.3888,-1.3935,-1.3687,-1.3948,-1.3276,-1.1462,-1.1875,-1.0889,-0.8383,-0.8627,-0.8177,-0.7139,-0.7139,-0.7139,-0.7139,0.0,0.0,0.0,-0.72,-0.7224,-0.735,-0.735,-0.736,-0.7404,-0.7672,-0.778,-0.7814,-0.7967,-0.8018,-0.8021,-0.8035,-0.8038,-0.8038,-0.8038,-0.8038,-0.8038,-0.8038,-0.8038,-0.8038,-0.8038,-0.8038,-0.8038,-0.8038,-0.8038,-0.8038,-0.8038,-0.815,-0.8208,-0.8065,-0.8381,-0.8584,-0.8316,-0.8492,-0.8577,-0.8313,-0.8258,-0.8197,-0.8058,-0.8038,-0.8038,-0.8038,-0.8038,-0.8038,-0.8038,-0.8038,-0.8038,-0.8038,-0.8038,-0.797,-0.7818,-0.7811,-0.7804,-0.779,-0.779,-0.7868,-0.8018,-0.8018,-0.8024,-0.8038,-0.8038,-0.8038,-1.0795,-1.1249,-1.1463,-1.0875,-1.0508,-1.0107,-0.9342,0.0,0.0,0.0,-0.9399,-0.9699,0.0,0.0,0.0,0.0,0.0,0.0,0.0,0.0,0.0,0.0,0.0,0.0,0.0,0.0,0.0,0.0,0.0,0.0,0.0,-1.3754,-1.3848,-1.3908,-1.4021,-1.3748,-1.2977,-1.2456,-1.1321,-0.9672,-0.9038,-0.8174,-0.7139,-0.7139,-0.7139,-0.7139,0.0,0.0,0.0,-0.7204,-0.7285,-0.7499,-0.7407,-0.7482,-0.7651,-0.7767,-0.7868,-0.7957,-0.8018,-0.8038,-0.8038,-0.8038,-0.8038,-0.8038,-0.8038,-0.8038,-0.8038,-0.8038,-0.8038,-0.8038,-0.8038,-0.8038,-0.8038,-0.8038,-0.8109,-0.8177,-0.8177,-0.8228,-0.8252,-0.8191,-0.8323,-0.8381,-0.8167,-0.8306,-0.8374,-0.8163,-0.8133,-0.8109,-0.8045,-0.8038,-0.8038,-0.8038,-0.8038,-0.8038,-0.8038,-0.8038,-0.8038,-0.8038,-0.8038,-0.8011,-0.795,-0.7946,-0.7946,-0.7946,-0.7946,-0.7977,-0.8038,-0.8038,-0.8038,-0.8038,-0.8038,-0.8038,-1.0623,-1.085,-1.0922,-1.0421,-1.014,-0.9833,0.0,0.0,0.0,-0.9123,-0.9479,-0.9773,-1.006,0.0,0.0,0.0,0.0,0.0,0.0,0.0,0.0,0.0,0.0,0.0,0.0,0.0,0.0,0.0,0.0,0.0,0.0,-1.3594,-1.3741,-1.3948,-1.4041,-1.4001,-1.3828,-1.3112,-1.1954,-1.0509,-0.9658,-0.8496,-0.7139,-0.7139,-0.7139,-0.7143,0.0,0.0,0.0,-0.7302,-0.7404,-0.7594,-0.7529,-0.7628,-0.7818,-0.7862,-0.7946,-0.8038,-0.8038,-0.8038,-0.8038,-0.8038,-0.8038,-0.8038,-0.8038,-0.8038,-0.8038,-0.8038,-0.8038,-0.8052,-0.8096,-0.8072,-0.8062,-0.815,-0.8221,-0.8272,-0.8272,-0.8303,-0.8306,-0.8218,-0.8275,-0.8269,-0.8072,-0.8204,-0.8282,-0.813,-0.8143,-0.817,-0.817,-0.8133,-0.8106,-0.8106,-0.8065,-0.8038,-0.8038,-0.8038,-0.8038,-0.8038,-0.8038,-0.8038,-0.8038,-0.8038,-0.8038,-0.8038,-0.8038,-0.8038,-0.8038,-0.8038,-0.8038,-0.8038,-0.8038,-0.8038,-1.0931,-1.059,-1.006,-0.9766,-0.9693,-0.9532,0.0,0.0,0.0,0.0,-0.9479,-0.9773,-1.006,-1.0361,-1.0624,-1.0624,0.0,0.0,0.0,0.0,0.0,0.0,0.0,0.0,0.0,0.0,0.0,0.0,0.0,0.0,0.0,-1.3487,-1.3559,-1.3647,-1.3935,-1.3808,-1.3227,-1.3794,-1.2819,-1.0203,-1.0419,-0.9396,-0.7139,-0.7139,-0.7139,0.0,0.0,0.0,0.0,-0.7533,-0.7597,-0.7614,-0.7753,-0.7807,-0.7828,-0.798,-0.8038,-0.8038,-0.8038,-0.8038,-0.8038,-0.8038,-0.8038,-0.8038,-0.8038,-0.8038,-0.8038,-0.8038,-0.8038,-0.8075,-0.8228,-0.8153,-0.8113,-0.8408,-0.837,-0.8272,-0.8272,-0.8381,-0.8394,-0.8099,-0.8279,-0.8387,-0.8092,-0.8282,-0.8431,-0.8289,-0.8387,-0.8476,-0.8476,-0.8353,-0.8269,-0.8269,-0.813,-0.8038,-0.8038,-0.8038,-0.8038,-0.8038,-0.8038,-0.8038,-0.8038,-0.8038,-0.8038,-0.8038,-0.8038,-0.8038,-0.8038,-0.8038,-0.8038,-0.8038,-0.8038,-0.8038,-1.0617,-1.0558,-1.0307,-0.9559,-0.9379,-0.9279,-0.8891,0.0,0.0,0.0,0.0,-0.9773,-1.006,-1.0361,-1.0494,-1.0294,-1.018,0.0,0.0,0.0,0.0,0.0,0.0,0.0,0.0,0.0,0.0,0.0,0.0,0.0,0.0,-1.3788,-1.3948,-1.3948,-1.4041,-1.4001,-1.3814,-1.3206,-1.2037,-1.0509,-0.9808,-0.8623,-0.7139,-0.7139,0.0,0.0,0.0,0.0,0.0,-0.7424,-0.7563,-0.775,-0.7794,-0.7875,-0.7974,-0.8021,-0.8038,-0.8038,-0.8038,-0.8038,-0.8038,-0.8038,-0.8038,-0.8038,-0.8038,-0.8038,-0.8038,-0.8038,-0.8038,-0.8052,-0.8099,-0.8153,-0.8194,-0.8184,-0.8299,-0.8387,-0.8292,-0.8306,-0.8309,-0.8214,-0.8275,-0.8306,-0.8214,-0.8353,-0.8465,-0.8421,-0.8455,-0.8482,-0.8482,-0.836,-0.8272,-0.8272,-0.8133,-0.8038,-0.8038,-0.8038,-0.8038,-0.8038,-0.8038,-0.8038,-0.8038,-0.8038,-0.8038,-0.8038,-0.8038,-0.8038,-0.8038,-0.8038,-0.8038,-0.8038,-0.8038,-0.8038,0.0,-1.0432,-1.0163,-0.9282,-0.9024,0.0,0.0,0.0,0.0,0.0,0.0,0.0,-1.006,-1.0361,-1.0501,-1.0314,-1.0281,0.0,0.0,0.0,0.0,0.0,0.0,0.0,0.0,0.0,0.0,0.0,0.0,0.0,0.0,0.0,-1.4088,-1.4088,-1.4088,-1.4088,-1.4088,-1.2942,-1.1724,-1.0611,-0.9405,-0.8277,-0.7139,-0.7139,0.0,0.0,0.0,0.0,0.0,-0.7468,-0.7614,-0.7743,-0.7851,-0.7957,-0.8038,-0.8038,-0.8038,-0.8038,-0.8038,-0.8038,-0.8038,-0.8038,-0.8038,-0.8038,-0.8038,-0.8038,-0.8038,-0.8038,-0.8038,-0.8055,-0.8113,-0.8153,-0.8187,-0.8201,-0.8347,-0.8459,-0.837,-0.8394,-0.8421,-0.8364,-0.835,-0.835,-0.835,-0.8472,-0.8567,-0.8567,-0.8567,-0.8587,-0.8648,-0.8476,-0.8374,-0.8431,-0.8252,-0.8126,-0.8126,-0.8072,-0.8038,-0.8038,-0.8038,-0.8038,-0.8038,-0.8038,-0.8038,-0.8038,-0.8038,-0.8038,-0.8038,-0.8038,-0.8038,-0.8038,-0.8038,-0.8038,0.0,0.0,0.0,0.0,0.0,0.0,0.0,0.0,0.0,0.0,0.0,0.0,-1.006,-1.0341,-1.0591,-1.0591,-1.0591,0.0,0.0,0.0,0.0,0.0,0.0,0.0,0.0,0.0,0.0,0.0,0.0,0.0,0.0,0.0,-1.4068,-1.4088,-1.4068,-1.4068,-1.4088,-1.2851,-1.1638,-1.0611,-0.9318,-0.8189,-0.7139,-0.7139,0.0,0.0,0.0,0.0,0.0,-0.7628,-0.7733,-0.7645,-0.7929,-0.8038,-0.8038,-0.8038,-0.8038,-0.8038,-0.8038,-0.8038,-0.8038,-0.8038,-0.8038,-0.8038,-0.8038,-0.8038,-0.8038,-0.8038,-0.8038,-0.8072,-0.8218,-0.8153,-0.8126,-0.8401,-0.8476,-0.8482,-0.8482,-0.8594,-0.8652,-0.8509,-0.8489,-0.8499,-0.8499,-0.8625,-0.8726,-0.8726,-0.8726,-0.8777,-0.892,-0.8672,-0.8537,-0.8679,-0.8431,-0.8255,-0.8255,-0.8123,-0.8038,-0.8038,-0.8038,-0.8038,-0.8038,-0.8038,-0.8038,-0.8038,-0.8038,-0.8038,-0.8038,-0.8038,-0.8038,-0.8038,-0.8038,-0.8038,0.0,0.0,0.0,0.0,0.0,0.0,0.0,0.0,0.0,0.0,0.0,0.0,-1.002,-1.0174,-1.0221,-1.0221,0.0,0.0,0.0,0.0,0.0,0.0,0.0,0.0,0.0,0.0,0.0,0.0,0.0,0.0,0.0,0.0,-1.3854,-1.4082,-1.3868,-1.3854,-1.4082,-1.2083,-1.0869,-1.0611,-0.8532,-0.7404,-0.7139,-0.7139,0.0,0.0,0.0,0.0,-0.7343,-0.7675,-0.779,-0.778,-0.7967,-0.8038,-0.8038,-0.8038,-0.8038,-0.8038,-0.8038,-0.8038,-0.8038,-0.8038,-0.8038,-0.8038,-0.8038,-0.8038,-0.8038,-0.8038,-0.8038,-0.8048,-0.8082,-0.8153,-0.8235,-0.8303,-0.8404,-0.8482,-0.8482,-0.8509,-0.8523,-0.8489,-0.8577,-0.8655,-0.8655,-0.8784,-0.8882,-0.8882,-0.8882,-0.8899,-0.8933,-0.8672,-0.8496,-0.853,-0.8272,-0.8096,-0.8096,-0.8062,-0.8038,-0.8038,-0.8038,-0.8038,-0.8038,-0.8038,-0.8038,-0.8038,-0.8038,-0.8038,-0.8038,-0.8038,-0.8038,-0.8038,-0.8038,-0.8038,0.0,0.0,0.0,0.0,0.0,0.0,0.0,0.0,0.0,0.0,0.0,0.0,0.0,0.0,0.0,0.0,0.0,0.0,0.0,0.0,0.0,0.0,0.0,0.0,0.0,0.0,0.0,0.0,0.0,0.0,0.0,0.0,-1.3654,-1.3687,-1.3527,-1.3336,-1.3194,-1.1313,-1.0203,-0.9695,-0.7971,-0.7139,-0.7139,-0.7139,0.0,0.0,0.0,0.0,-0.739,-0.7621,-0.7753,-0.7828,-0.798,-0.8038,-0.8038,-0.8038,-0.8038,-0.8038,-0.8038,-0.8038,-0.8038,-0.8038,-0.8038,-0.8038,-0.8038,-0.8038,-0.8038,-0.8038,-0.8038,-0.8038,-0.8038,-0.8153,-0.8272,-0.8272,-0.8431,-0.8587,-0.8587,-0.8642,-0.8693,-0.8693,-0.8757,-0.8815,-0.8815,-0.8882,-0.894,-0.894,-0.8879,-0.8859,-0.893,-0.8733,-0.8587,-0.8587,-0.8381,-0.8218,-0.815,-0.8079,-0.8038,-0.8038,-0.8038,-0.8038,-0.8038,-0.8038,-0.8038,-0.8038,-0.8038,-0.8038,-0.8038,-0.8038,-0.8038,-0.8038,-0.8038,-0.8038,0.0,0.0,0.0,0.0,0.0,0.0,0.0,0.0,0.0,0.0,0.0,0.0,0.0,0.0,0.0,0.0,0.0,0.0,0.0,0.0,0.0,0.0,0.0,0.0,0.0,0.0,0.0,0.0,0.0,0.0,0.0,0.0,0.0,-1.322,-1.3166,-1.2683,-1.1758,-1.0752,-0.9695,-0.8692,-0.7588,-0.7139,-0.7139,-0.7139,-0.7139,0.0,0.0,0.0,-0.7383,-0.7536,-0.7682,-0.7824,-0.7953,-0.8018,-0.8038,-0.8038,-0.8038,-0.8038,-0.8038,-0.8038,-0.8038,-0.8038,-0.8038,-0.8038,-0.8038,-0.8038,-0.8038,-0.8038,-0.8038,-0.8045,-0.8069,-0.8153,-0.8252,-0.8323,-0.8509,-0.8686,-0.8733,-0.8849,-0.894,-0.894,-0.894,-0.894,-0.894,-0.894,-0.894,-0.894,-0.8828,-0.8794,-0.892,-0.8804,-0.871,-0.871,-0.8574,-0.8425,-0.8282,-0.815,-0.8065,-0.8041,-0.8038,-0.8038,-0.8038,-0.8038,-0.8038,-0.8038,-0.8038,-0.8038,-0.8038,-0.8038,-0.8038,-0.8038,-0.8038,-0.8038,0.0,0.0,0.0,0.0,0.0,0.0,0.0,0.0,0.0,0.0,0.0,0.0,0.0,0.0,0.0,0.0,0.0,0.0,0.0,0.0,0.0,0.0,0.0,0.0,0.0,0.0,0.0,0.0,0.0,0.0,0.0,0.0,0.0,-1.32,-1.2953,-1.197,-1.0121,-1.0182,-0.9695,-0.8692,-0.7588,-0.7139,-0.7139,-0.7139,-0.7139,0.0,0.0,-0.735,-0.7383,-0.7536,-0.7682,-0.7814,-0.7838,-0.7926,-0.8038,-0.8038,-0.8038,-0.8038,-0.8038,-0.8038,-0.8038,-0.8038,-0.8038,-0.8038,-0.8038,-0.8038,-0.8038,-0.8038,-0.8038,-0.8069,-0.8201,-0.8153,-0.817,-0.855,-0.8577,-0.8587,-0.8849,-0.8923,-0.894,-0.894,-0.894,-0.894,-0.894,-0.894,-0.894,-0.894,-0.892,-0.8913,-0.8933,-0.8804,-0.871,-0.871,-0.8574,-0.8425,-0.8282,-0.8248,-0.818,-0.8048,-0.8038,-0.8038,-0.8038,-0.8038,-0.8038,-0.8038,-0.8038,-0.8038,-0.8038,-0.8038,-0.8038,-0.8038,-0.8038,-0.8038,0.0,0.0,0.0,0.0,0.0,0.0,0.0,0.0,0.0,0.0,0.0,0.0,0.0,0.0,0.0,0.0,0.0,0.0,0.0,0.0,0.0,0.0,0.0,0.0,0.0,0.0,0.0,0.0,0.0,0.0,0.0,0.0,0.0,0.0,-1.2579,-1.1809,-1.028,-0.9994,-0.9087,-0.7632,-0.7211,-0.7065,-0.7139,-0.7139,-0.7139,-0.7143,0.0,-0.7292,-0.7377,-0.7448,-0.7563,-0.7695,-0.7695,-0.7787,-0.7926,-0.8011,-0.8038,-0.8038,-0.8038,-0.8038,-0.8038,-0.8038,-0.8038,-0.8038,-0.8038,-0.8038,-0.8038,-0.8038,-0.8038,-0.8055,-0.8126,-0.8153,-0.8235,-0.852,-0.8598,-0.8665,-0.8893,-0.894,-0.894,-0.894,-0.894,-0.894,-0.894,-0.894,-0.894,-0.894,-0.894,-0.894,-0.894,-0.8876,-0.8801,-0.872,-0.8648,-0.8516,-0.8289,-0.8272,-0.8204,-0.8052,-0.8038,-0.8038,-0.8038,-0.8038,-0.8038,-0.8038,-0.8038,-0.8038,-0.8038,-0.8038,-0.8038,-0.8038,-0.8038,-0.8038,-1.0012,0.0,0.0,0.0,0.0,0.0,0.0,0.0,0.0,0.0,0.0,0.0,0.0,0.0,0.0,0.0,0.0,0.0,0.0,0.0,0.0,0.0,0.0,0.0,0.0,0.0,0.0,0.0,0.0,0.0,0.0,0.0,0.0,0.0,-1.2305,-1.17,-1.0484,-0.9985,-0.8862,-0.6973,-0.6884,-0.6953,-0.7092,-0.7092,-0.7109,-0.7139,-0.7139,-0.7207,-0.7319,-0.7319,-0.7407,-0.7546,-0.7546,-0.7655,-0.7824,-0.7943,-0.8007,-0.8038,-0.8038,-0.8038,-0.8038,-0.8038,-0.8038,-0.8038,-0.8038,-0.8038,-0.8038,-0.8038,-0.8038,-0.8048,-0.8082,-0.8153,-0.8262,-0.8438,-0.857,-0.8699,-0.8852,-0.8913,-0.894,-0.894,-0.894,-0.894,-0.894,-0.894,-0.894,-0.894,-0.894,-0.894,-0.894,-0.894,-0.8893,-0.8777,-0.8764,-0.8659,-0.8394,-0.8313,-0.8221,-0.8102,-0.8058,-0.8038,-0.8038,-0.8038,-0.8038,-0.8038,-0.8038,-0.8038,-0.8038,-0.8038,-0.8038,-0.8038,-0.8038,-0.8038,-1.0167,-0.9762,0.0,0.0,0.0,0.0,0.0,0.0,0.0,0.0,0.0,0.0,0.0,0.0,0.0,0.0,0.0,0.0,0.0,0.0,0.0,0.0,0.0,0.0,0.0,0.0,0.0,0.0,0.0,0.0,0.0,0.0,0.0,0.0,0.0,-1.1397,-0.9448,-1.0282,-0.9795,-0.7911,-0.7129,-0.6797,-0.6946,-0.6946,-0.7014,-0.7139,-0.7139,-0.7146,-0.7156,-0.7156,-0.7248,-0.7387,-0.7387,-0.756,-0.7814,-0.7824,-0.7919,-0.8038,-0.8038,-0.8038,-0.8038,-0.8038,-0.8038,-0.8038,-0.8038,-0.8038,-0.8038,-0.8038,-0.8038,-0.8072,-0.8218,-0.8153,-0.8126,-0.8414,-0.8489,-0.854,-0.8696,-0.8838,-0.894,-0.894,-0.894,-0.894,-0.894,-0.894,-0.894,-0.894,-0.894,-0.894,-0.894,-0.894,-0.8933,-0.8923,-0.8923,-0.8855,-0.8693,-0.8428,-0.8265,-0.8255,-0.8119,-0.8038,-0.8038,-0.8038,-0.8038,-0.8038,-0.8038,-0.8038,-0.8038,-0.8038,-0.8038,-0.8038,-0.8038,-0.8038,-0.9666,-0.9465,0.0,0.0,0.0,0.0,0.0,0.0,0.0,0.0,0.0,0.0,0.0,0.0,0.0,0.0,0.0,0.0,0.0,0.0,0.0,0.0,0.0,0.0,0.0,0.0,0.0,0.0,0.0,0.0,0.0,0.0,0.0,0.0,0.0,-1.1367,-0.9968,-0.9894,-0.918,-0.7884,-0.7593,-0.7259,-0.6929,-0.6929,-0.7007,-0.7139,-0.7139,-0.7139,-0.7139,-0.7139,-0.7173,-0.7248,-0.7438,-0.7584,-0.7702,-0.7885,-0.7991,-0.8038,-0.8038,-0.8038,-0.8038,-0.8038,-0.8038,-0.8038,-0.8038,-0.8038,-0.8038,-0.8038,-0.8038,-0.8055,-0.8113,-0.8082,-0.8092,-0.8299,-0.8418,-0.8523,-0.8676,-0.8828,-0.894,-0.894,-0.894,-0.894,-0.894,-0.894,-0.894,-0.894,-0.894,-0.894,-0.894,-0.894,-0.894,-0.894,-0.8855,-0.8733,-0.8581,-0.8384,-0.8231,-0.8133,-0.8072,-0.8038,-0.8038,-0.8038,-0.8038,-0.8038,-0.8038,-0.8038,-0.8038,-0.8038,-0.8038,-0.8038,-0.8038,-0.8038,-0.9316,-0.9316,0.0,0.0,0.0,0.0,0.0,0.0,0.0,0.0,0.0,0.0,0.0,0.0,0.0,0.0,0.0,0.0,0.0,0.0,0.0,0.0,0.0,0.0,0.0,0.0,0.0,0.0,0.0,0.0,0.0,0.0,0.0,0.0,0.0,-1.143,-1.0407,-0.9999,-0.914,-0.7783,-0.7905,-0.7492,-0.6783,-0.6783,-0.6892,-0.7075,-0.7075,-0.7099,-0.7139,-0.7139,-0.7139,-0.716,-0.7373,-0.7516,-0.7624,-0.7828,-0.796,-0.8038,-0.8038,-0.8038,-0.8038,-0.8038,-0.8038,-0.8038,-0.8038,-0.8038,-0.8038,-0.8038,-0.8038,-0.8038,-0.8038,-0.8038,-0.8065,-0.8174,-0.8343,-0.8509,-0.8615,-0.8798,-0.894,-0.894,-0.894,-0.894,-0.894,-0.894,-0.894,-0.894,-0.894,-0.894,-0.894,-0.894,-0.894,-0.894,-0.8801,-0.8669,-0.8564,-0.8381,-0.8245,-0.8184,-0.8092,-0.8038,-0.8038,-0.8038,-0.8038,-0.8038,-0.8038,-0.8038,-0.8038,-0.8038,-0.8038,-0.8038,-0.8038,-0.8038,0.0,0.0,0.0,0.0,0.0,0.0,0.0,0.0,0.0,0.0,0.0,0.0,0.0,0.0,0.0,0.0,0.0,0.0,0.0,0.0,0.0,0.0,0.0,0.0,0.0,0.0,0.0,0.0,0.0,0.0,0.0,0.0,0.0,0.0,0.0,0.0,-1.0395,-1.0648,-0.9804,-0.7778,-0.7778,-0.7336,-0.6471,-0.6471,-0.6637,-0.6926,-0.6929,-0.7007,-0.7136,-0.7139,-0.7139,-0.7139,-0.7143,-0.7329,-0.7597,-0.76,-0.7787,-0.8038,-0.8038,-0.8038,-0.8038,-0.8038,-0.8038,-0.8038,-0.8038,-0.8038,-0.8038,-0.8038,-0.8038,-0.8038,-0.8038,-0.8038,-0.8038,-0.8038,-0.8265,-0.8479,-0.8482,-0.872,-0.8937,-0.894,-0.894,-0.894,-0.894,-0.894,-0.894,-0.894,-0.894,-0.894,-0.894,-0.894,-0.894,-0.894,-0.8804,-0.8713,-0.871,-0.8442,-0.8333,-0.8472,-0.8204,-0.8041,-0.8041,-0.8038,-0.8038,-0.8038,-0.8038,-0.8038,-0.8038,-0.8038,-0.8038,-0.8038,-0.8038,-0.8038,0.0,0.0,0.0,0.0,0.0,0.0,0.0,0.0,0.0,0.0,0.0,0.0,0.0,0.0,0.0,0.0,0.0,0.0,0.0,0.0,0.0,0.0,0.0,0.0,0.0,0.0,0.0,0.0,0.0,0.0,0.0,0.0,0.0,0.0,0.0,0.0,-0.9793,-0.9417,-0.8674,-0.7426,-0.684,-0.6531,-0.6471,-0.6471,-0.658,-0.6773,-0.6881,-0.6892,-0.6841,-0.6946,-0.7051,-0.7149,-0.7258,-0.736,-0.7451,-0.756,-0.7719,-0.7879,-0.7879,-0.795,-0.8038,-0.8038,-0.8038,-0.8038,-0.8038,-0.8038,-0.8038,-0.8038,-0.8038,-0.8038,-0.8038,-0.8038,-0.8038,-0.8038,-0.8191,-0.836,-0.8462,-0.8638,-0.8811,-0.8916,-0.894,-0.894,-0.894,-0.894,-0.894,-0.894,-0.894,-0.894,-0.894,-0.894,-0.894,-0.894,-0.8899,-0.8828,-0.872,-0.8628,-0.8554,-0.8486,-0.8306,-0.8201,-0.8201,-0.8099,-0.8038,-0.8038,-0.8038,-0.8038,-0.8038,-0.8038,-0.8038,-0.8038,-0.8038,-0.8038,0.0,0.0,0.0,0.0,0.0,0.0,0.0,0.0,0.0,0.0,0.0,0.0,0.0,0.0,0.0,0.0,0.0,0.0,0.0,0.0,0.0,0.0,0.0,0.0,0.0,0.0,0.0,0.0,0.0,0.0,0.0,0.0,0.0,0.0,0.0,0.0,-1.011,-0.9157,-0.8385,-0.7924,-0.7123,-0.6594,-0.6386,-0.6386,-0.6468,-0.6617,-0.6773,-0.6787,-0.6709,-0.68,-0.6922,-0.7065,-0.716,-0.7268,-0.739,-0.7543,-0.7689,-0.7821,-0.7882,-0.7963,-0.8038,-0.8038,-0.8038,-0.8038,-0.8038,-0.8038,-0.8038,-0.8038,-0.8038,-0.8038,-0.8038,-0.8038,-0.8038,-0.8038,-0.816,-0.8309,-0.8452,-0.8601,-0.8757,-0.891,-0.894,-0.894,-0.894,-0.894,-0.894,-0.894,-0.894,-0.894,-0.894,-0.894,-0.894,-0.894,-0.8882,-0.8811,-0.8716,-0.8655,-0.8608,-0.8574,-0.8384,-0.8296,-0.835,-0.815,-0.8038,-0.8038,-0.8038,-0.8038,-0.8038,-0.8038,-0.8038,-0.8038,-0.8038,-0.8038,0.0,0.0,0.0,0.0,0.0,0.0,0.0,0.0,0.0,0.0,0.0,0.0,0.0,0.0,0.0,0.0,0.0,0.0,0.0,0.0,0.0,0.0,0.0,0.0,0.0,0.0,0.0,0.0,0.0,0.0,0.0,0.0,0.0,0.0,0.0,0.0,-1.0995,-0.96,-0.8902,0.0,-0.8266,-0.7387,-0.6412,-0.6412,-0.6496,-0.6478,-0.6607,-0.6675,-0.6698,-0.6685,-0.677,-0.6909,-0.6922,-0.7092,-0.735,-0.7502,-0.7648,-0.7794,-0.7946,-0.8007,-0.8021,-0.8035,-0.8038,-0.8038,-0.8038,-0.8038,-0.8038,-0.8038,-0.8038,-0.8038,-0.8038,-0.8038,-0.8038,-0.8038,-0.8147,-0.8292,-0.8448,-0.8591,-0.8737,-0.8906,-0.894,-0.894,-0.894,-0.894,-0.894,-0.894,-0.894,-0.894,-0.894,-0.894,-0.894,-0.894,-0.8815,-0.873,-0.873,-0.8604,-0.8581,-0.8723,-0.8455,-0.8347,-0.8476,-0.8197,-0.8038,-0.8038,-0.8038,-0.8038,-0.8038,-0.8038,-0.8038,-0.8038,-0.8038,-0.8038,0.0,0.0,0.0,0.0,0.0,0.0,0.0,0.0,0.0,0.0,0.0,0.0,0.0,0.0,0.0,0.0,0.0,0.0,0.0,0.0,0.0,0.0,0.0,0.0,0.0,0.0,0.0,0.0,0.0,0.0,0.0,0.0,0.0,0.0,0.0,-1.0762,-1.0989,-1.0031,-0.9661,0.0,-0.9223,-0.8379,-0.748,-0.748,-0.711,-0.6468,-0.639,-0.6485,-0.6692,-0.6569,-0.661,-0.6763,-0.6881,-0.6966,-0.7041,-0.7187,-0.7336,-0.7489,-0.7641,-0.7767,-0.7879,-0.8001,-0.8038,-0.8038,-0.8038,-0.8038,-0.8038,-0.8038,-0.8038,-0.8038,-0.8038,-0.8038,-0.8038,-0.8038,-0.8065,-0.816,-0.8425,-0.8509,-0.8611,-0.8886,-0.894,-0.894,-0.894,-0.894,-0.894,-0.894,-0.894,-0.894,-0.894,-0.894,-0.894,-0.894,-0.891,-0.8889,-0.8889,-0.8859,-0.8855,-0.8889,-0.8604,-0.8452,-0.8479,-0.8197,-0.8038,-0.8038,-0.8038,-0.8038,-0.8038,-0.8038,-0.8038,-0.8038,-0.8038,-0.8038,0.0,0.0,0.0,0.0,0.0,0.0,0.0,0.0,0.0,0.0,0.0,0.0,0.0,0.0,0.0,0.0,0.0,0.0,0.0,0.0,0.0,0.0,0.0,0.0,0.0,0.0,0.0,0.0,0.0,0.0,0.0,0.0,0.0,0.0,-1.0695,-1.0842,-1.0995,-1.0374,-1.0143,-1.0407,-1.0087,-0.9691,-0.921,-0.7702,-0.6839,-0.6366,-0.6291,-0.6349,-0.6485,-0.6403,-0.6458,-0.6607,-0.6759,-0.6865,-0.6956,-0.717,-0.7302,-0.7394,-0.7546,-0.7692,-0.7824,-0.7906,-0.798,-0.8038,-0.8038,-0.8038,-0.8038,-0.8038,-0.8038,-0.8038,-0.8038,-0.8038,-0.8038,-0.8038,-0.8038,-0.8119,-0.8418,-0.8482,-0.8574,-0.8879,-0.894,-0.894,-0.894,-0.894,-0.894,-0.894,-0.894,-0.894,-0.894,-0.894,-0.894,-0.894,-0.894,-0.894,-0.894,-0.894,-0.894,-0.894,-0.8652,-0.8482,-0.8482,-0.8197,-0.8038,-0.8038,-0.8038,-0.8038,-0.8038,-0.8038,-0.8038,-0.8038,-0.8038,-0.8038,0.0,0.0,0.0,0.0,0.0,0.0,0.0,0.0,0.0,0.0,0.0,0.0,0.0,0.0,0.0,0.0,0.0,0.0,0.0,0.0,0.0,0.0,0.0,0.0,0.0,0.0,0.0,0.0,0.0,0.0,0.0,0.0,-1.0645,-1.0698,-1.0868,-1.1042,-1.1142,-1.0835,-1.0647,-1.0695,-1.0757,-1.0783,-1.0708,-0.8003,-0.6718,-0.6567,-0.6338,-0.6338,-0.6338,-0.6338,-0.6329,-0.6454,-0.663,-0.6776,-0.6926,-0.7224,-0.7333,-0.7353,-0.7506,-0.7655,-0.778,-0.7801,-0.7916,-0.8038,-0.8038,-0.8038,-0.8038,-0.8038,-0.8038,-0.8038,-0.8038,-0.8038,-0.8038,-0.8038,-0.8038,-0.8113,-0.8387,-0.8465,-0.8564,-0.8845,-0.892,-0.894,-0.894,-0.894,-0.894,-0.894,-0.894,-0.894,-0.894,-0.894,-0.894,-0.894,-0.894,-0.894,-0.894,-0.894,-0.894,-0.894,-0.8652,-0.8482,-0.8482,-0.8197,-0.8038,-0.8038,-0.8038,-0.8038,-0.8038,-0.8038,-0.8038,-0.8038,-0.8038,-0.8038,0.0,0.0,0.0,0.0,0.0,0.0,0.0,0.0,0.0,0.0,0.0,0.0,0.0,0.0,0.0,0.0,0.0,0.0,0.0,0.0,0.0,0.0,0.0,0.0,0.0,0.0,0.0,0.0,0.0,0.0,0.0,-1.0624,-1.0739,-1.0929,-1.0969,-1.1236,-1.175,-1.1759,-1.1847,-1.2018,-1.1224,-1.0783,-1.0783,-0.9518,-0.8389,-0.7557,-0.6641,-0.6338,-0.6338,-0.6338,-0.6349,-0.6318,-0.6593,-0.6712,-0.6766,-0.7061,-0.717,-0.7193,-0.735,-0.7502,-0.7648,-0.777,-0.7916,-0.8038,-0.8038,-0.8038,-0.8038,-0.8038,-0.8038,-0.8038,-0.8038,-0.8038,-0.8038,-0.8038,-0.8038,-0.8089,-0.8262,-0.8394,-0.8533,-0.8706,-0.8849,-0.894,-0.894,-0.894,-0.894,-0.894,-0.894,-0.894,-0.894,-0.894,-0.894,-0.894,-0.894,-0.894,-0.894,-0.894,-0.894,-0.894,-0.8652,-0.8482,-0.8482,-0.8197,-0.8038,-0.8038,-0.8038,-0.8038,-0.8038,-0.8038,-0.8038,-0.8038,-0.8038,-0.8038,0.0,0.0,0.0,0.0,0.0,0.0,0.0,0.0,0.0,0.0,0.0,0.0,0.0,0.0,0.0,0.0,0.0,0.0,0.0,0.0,0.0,0.0,0.0,0.0,0.0,0.0,0.0,0.0,0.0,0.0,-1.0624,-1.0624,-1.0695,-1.0982,-1.1149,-1.1436,-1.1864,-1.2031,-1.2178,-1.2298,-1.1848,-1.162,-1.162,-1.0565,-0.9291,-0.7783,-0.7326,-0.6795,-0.6338,-0.6338,-0.6338,-0.6291,-0.6586,-0.6702,-0.6736,-0.7031,-0.7139,-0.7149,-0.7217,-0.7343,-0.7495,-0.7645,-0.779,-0.7926,-0.8014,-0.8038,-0.8038,-0.8038,-0.8038,-0.8038,-0.8038,-0.8038,-0.8038,-0.8038,-0.8038,-0.8058,-0.8126,-0.8319,-0.8554,-0.8791,-0.8893,-0.894,-0.894,-0.894,-0.894,-0.894,-0.894,-0.894,-0.894,-0.894,-0.894,-0.894,-0.894,-0.894,-0.894,-0.894,-0.894,-0.894,-0.8652,-0.8482,-0.8482,-0.8197,-0.8038,-0.8038,-0.8038,-0.8038,-0.8038,-0.8038,-0.8038,-0.8038,-0.8038,-0.8038,0.0,0.0,0.0,0.0,0.0,0.0,0.0,0.0,0.0,0.0,0.0,0.0,0.0,0.0,0.0,0.0,0.0,0.0,0.0,0.0,0.0,0.0,0.0,0.0,0.0,0.0,0.0,0.0,0.0,0.0,-1.0624,-1.0624,-1.0728,-1.1089,-1.1316,-1.1603,-1.1977,-1.2191,-1.2305,-1.2305,-1.2305,-1.2305,-1.2305,-1.1539,-1.0185,-0.8537,-0.8008,-0.7403,-0.6641,-0.6412,-0.6338,-0.6285,-0.6542,-0.6664,-0.6732,-0.699,-0.7109,-0.7139,-0.7139,-0.7241,-0.7397,-0.755,-0.7695,-0.7838,-0.7994,-0.8038,-0.8038,-0.8038,-0.8038,-0.8038,-0.8038,-0.8038,-0.8038,-0.8038,-0.8038,-0.8052,-0.8089,-0.8299,-0.856,-0.8828,-0.8913,-0.894,-0.894,-0.894,-0.894,-0.894,-0.894,-0.894,-0.894,-0.894,-0.894,-0.894,-0.894,-0.894,-0.894,-0.894,-0.894,-0.894,-0.8652,-0.8482,-0.8482,-0.8197,-0.8038,-0.8038,-0.8038,-0.8038,-0.8038,-0.8038,-0.8038,-0.8038,-0.8038,-0.8038,0.0,0.0,0.0,0.0,0.0,0.0,0.0,0.0,0.0,0.0,0.0,0.0,0.0,0.0,0.0,0.0,0.0,0.0,0.0,0.0,0.0,0.0,0.0,0.0,0.0,0.0,0.0,0.0,0.0,0.0,-1.0624,-1.0624,-1.0822,-1.1383,-1.1416,-1.1697,-1.2271,-1.2291,-1.2305,-1.2305,-1.2305,-1.2305,-1.2305,-1.2224,-1.162,-1.0559,-0.8609,-0.7783,-0.7629,-0.6721,-0.6338,-0.6352,-0.6427,-0.6573,-0.6719,-0.6881,-0.7024,-0.7139,-0.7139,-0.7241,-0.7397,-0.755,-0.7695,-0.7838,-0.7994,-0.8038,-0.8038,-0.8038,-0.8038,-0.8038,-0.8038,-0.8038,-0.8038,-0.8038,-0.8038,-0.8079,-0.8225,-0.8377,-0.853,-0.8693,-0.8838,-0.894,-0.894,-0.894,-0.894,-0.894,-0.894,-0.894,-0.894,-0.894,-0.894,-0.894,-0.894,-0.894,-0.894,-0.894,-0.894,-0.894,-0.8652,-0.8482,-0.8482,-0.8197,-0.8038,-0.8038,-0.8038,-0.8038,-0.8038,-0.8038,-0.8038,-0.8038,-0.8038,-0.8038,0.0,0.0,0.0,0.0,0.0,0.0,0.0,0.0,0.0,0.0,0.0,0.0,0.0,0.0,0.0,0.0,0.0,0.0,0.0,0.0,0.0,0.0,0.0,0.0,0.0,0.0,0.0,0.0,0.0,0.0,-1.0835,-1.1015,-1.1296,-1.1697,-1.171,-1.1897,-1.2298,-1.2305,-1.2305,-1.2305,-1.2305,-1.2305,-1.2305,-1.2305,-1.2077,-1.162,-0.9669,-0.8389,-0.7783,-0.7403,-0.6868,-0.6274,-0.6417,-0.6566,-0.6719,-0.6871,-0.7017,-0.7139,-0.7139,-0.7177,-0.7265,-0.7516,-0.7634,-0.7723,-0.7967,-0.8038,-0.8038,-0.8038,-0.8038,-0.8038,-0.8038,-0.8038,-0.8038,-0.8038,-0.8038,-0.8055,-0.8109,-0.8313,-0.8526,-0.8679,-0.8832,-0.894,-0.894,-0.894,-0.894,-0.894,-0.894,-0.894,-0.894,-0.894,-0.894,-0.894,-0.894,-0.894,-0.894,-0.894,-0.894,-0.894,-0.8652,-0.8482,-0.8482,-0.8197,-0.8038,-0.8038,-0.8038,-0.8038,-0.8038,-0.8038,-0.8038,-0.8038,-0.8038,-0.8038,0.0,0.0,0.0,0.0,0.0,0.0,0.0,0.0,0.0,0.0,0.0,0.0,0.0,0.0,0.0,0.0,0.0,0.0,0.0,0.0,0.0,0.0,0.0,0.0,0.0,0.0,0.0,0.0,0.0,0.0,-1.0995,-1.1269,-1.1563,-1.1857,-1.1964,-1.2104,-1.2298,-1.2305,-1.2305,-1.2305,-1.2305,-1.2305,-1.2305,-1.2305,-1.2305,-1.2224,-1.0496,-0.9216,-0.8237,-0.7553,-0.6872,-0.6349,-0.6366,-0.6522,-0.6712,-0.6814,-0.6973,-0.7139,-0.7139,-0.7139,-0.719,-0.7499,-0.76,-0.7655,-0.795,-0.8038,-0.8038,-0.8038,-0.8038,-0.8038,-0.8038,-0.8038,-0.8038,-0.8038,-0.8038,-0.8038,-0.8038,-0.8235,-0.8455,-0.8604,-0.8757,-0.8879,-0.893,-0.894,-0.894,-0.894,-0.894,-0.894,-0.894,-0.894,-0.894,-0.894,-0.894,-0.894,-0.894,-0.894,-0.8916,-0.8866,-0.8621,-0.8462,-0.8414,-0.8174,-0.8038,-0.8038,-0.8038,-0.8038,-0.8038,-0.8038,-0.8038,-0.8038,-0.8038,-0.8038,0.0,0.0,0.0,0.0,0.0,0.0,0.0,0.0,0.0,0.0,0.0,0.0,0.0,0.0,0.0,0.0,0.0,0.0,0.0,0.0,0.0,0.0,0.0,0.0,0.0,0.0,0.0,0.0,0.0,-1.1009,-1.1009,-1.1289,-1.1583,-1.187,-1.2151,-1.2305,-1.2305,-1.2305,-1.2305,-1.2305,-1.2305,-1.2305,-1.2305,-1.2305,-1.2305,-1.2224,-1.1236,-1.019,-0.9145,-0.7176,-0.6338,-0.6338,-0.6338,-0.6441,-0.6702,-0.6702,-0.6888,-0.7139,-0.7139,-0.7139,-0.719,-0.7492,-0.7597,-0.7655,-0.7943,-0.8035,-0.8038,-0.8038,-0.8038,-0.8038,-0.8038,-0.8038,-0.8038,-0.8038,-0.8038,-0.8038,-0.8038,-0.8157,-0.8306,-0.8455,-0.8604,-0.876,-0.8913,-0.894,-0.894,-0.894,-0.894,-0.894,-0.894,-0.894,-0.894,-0.894,-0.8933,-0.8933,-0.894,-0.8933,-0.8869,-0.8726,-0.857,-0.8421,-0.8282,-0.8126,-0.8038,-0.8038,-0.8038,-0.8038,-0.8038,-0.8038,-0.8038,-0.8038,-0.8038,-0.8038,-0.8804,0.0,0.0,0.0,0.0,0.0,0.0,0.0,0.0,0.0,0.0,0.0,0.0,0.0,0.0,0.0,0.0,0.0,0.0,0.0,0.0,0.0,0.0,0.0,0.0,0.0,0.0,0.0,-1.1022,-1.1309,-1.1309,-1.1784,-1.2098,-1.2178,-1.2258,-1.2305,-1.2305,-1.2305,-1.2305,-1.2305,-1.2305,-1.2305,-1.2305,-1.2305,-1.2305,-1.2224,-1.0496,-0.9518,-0.9226,-0.7936,-0.6945,-0.6338,-0.6338,-0.6441,-0.6702,-0.6702,-0.6888,-0.7139,-0.7139,-0.7139,-0.7173,-0.737,-0.7509,-0.7634,-0.7818,-0.795,-0.8038,-0.8038,-0.8038,-0.8038,-0.8038,-0.8038,-0.8038,-0.8038,-0.8038,-0.8038,-0.8038,-0.8072,-0.8177,-0.8431,-0.8604,-0.876,-0.8913,-0.894,-0.894,-0.894,-0.894,-0.894,-0.894,-0.894,-0.894,-0.894,-0.8842,-0.8818,-0.893,-0.8835,-0.8804,-0.8872,-0.8628,-0.8465,-0.8425,-0.8177,-0.8038,-0.8038,-0.8038,-0.8038,-0.8038,-0.8038,-0.8038,-0.8038,-0.8038,-0.8038,0.0,0.0,0.0,0.0,0.0,0.0,0.0,-0.8804,0.0,0.0,0.0,0.0,0.0,0.0,0.0,0.0,0.0,0.0,0.0,0.0,0.0,0.0,0.0,0.0,0.0,0.0,0.0,0.0,-1.1096,-1.153,-1.1777,-1.2118,-1.2305,-1.2305,-1.2305,-1.2305,-1.2305,-1.2305,-1.2305,-1.2305,-1.2305,-1.2305,-1.2305,-1.2305,-1.2305,-1.2224,-1.0201,-0.9296,-0.9221,-0.7783,-0.6795,-0.6338,-0.6338,-0.6441,-0.6702,-0.6702,-0.6888,-0.7139,-0.7139,-0.7139,-0.7166,-0.7322,-0.7431,-0.7543,-0.775,-0.7872,-0.7957,-0.8021,-0.8038,-0.8038,-0.8038,-0.8038,-0.8038,-0.8038,-0.8038,-0.8038,-0.8038,-0.8038,-0.8109,-0.8347,-0.8465,-0.8574,-0.8723,-0.8801,-0.8845,-0.8845,-0.8899,-0.8916,-0.8852,-0.8845,-0.8818,-0.8754,-0.8669,-0.8676,-0.8828,-0.876,-0.872,-0.8747,-0.8581,-0.8428,-0.8303,-0.8133,-0.8038,-0.8038,-0.8038,-0.8038,-0.8038,-0.8038,-0.8038,-0.8038,-0.8038,-0.8038,0.0,0.0,0.0,0.0,0.0,0.0,-0.8758,-0.8752,-0.8771,0.0,0.0,0.0,0.0,0.0,0.0,0.0,0.0,0.0,0.0,0.0,0.0,0.0,0.0,0.0,0.0,0.0,-1.0624,-1.0624,-1.1096,-1.1663,-1.2225,-1.2285,-1.2305,-1.2305,-1.2305,-1.2305,-1.2305,-1.2305,-1.2305,-1.2305,-1.2305,-1.2305,-1.2305,-1.2305,-1.2305,-1.2224,-1.0201,-0.9296,-0.9145,-0.7099,-0.6338,-0.6338,-0.6338,-0.643,-0.6678,-0.6695,-0.6875,-0.7119,-0.7136,-0.7139,-0.7163,-0.7299,-0.7356,-0.7424,-0.7702,-0.7797,-0.7841,-0.7994,-0.8038,-0.8038,-0.8038,-0.8038,-0.8038,-0.8038,-0.8038,-0.8038,-0.8038,-0.8038,-0.8079,-0.8218,-0.8258,-0.8316,-0.8459,-0.8594,-0.8686,-0.8686,-0.8801,-0.8838,-0.8703,-0.8686,-0.8632,-0.8496,-0.8469,-0.8526,-0.8696,-0.8696,-0.8642,-0.854,-0.8516,-0.8391,-0.8123,-0.8099,-0.8082,-0.8065,-0.8048,-0.8038,-0.8038,-0.8038,-0.8038,-0.8038,-0.8038,-0.8038,0.0,0.0,0.0,0.0,0.0,0.0,-0.8646,-0.8321,-0.8115,0.0,0.0,0.0,0.0,0.0,0.0,0.0,0.0,0.0,0.0,0.0,0.0,0.0,0.0,0.0,0.0,0.0,-1.0624,-1.0624,-1.1096,-1.1583,-1.1937,-1.2178,-1.2305,-1.2305,-1.2305,-1.2305,-1.2305,-1.2305,-1.2305,-1.2305,-1.2305,-1.2305,-1.2305,-1.2305,-1.2305,-1.2224,-1.0201,-0.9296,-0.9145,-0.7099,-0.6338,-0.6338,-0.6338,-0.6366,-0.6532,-0.6654,-0.6814,-0.6987,-0.7102,-0.7139,-0.7146,-0.7177,-0.7272,-0.7404,-0.7587,-0.7723,-0.7841,-0.7994,-0.8038,-0.8038,-0.8038,-0.8038,-0.8038,-0.8038,-0.8038,-0.8038,-0.8038,-0.8038,-0.8048,-0.8079,-0.8184,-0.8316,-0.8459,-0.8506,-0.8526,-0.8526,-0.8554,-0.856,-0.853,-0.8526,-0.8516,-0.8486,-0.8381,-0.8421,-0.8686,-0.8598,-0.8618,-0.8835,-0.8733,-0.8638,-0.8581,-0.8459,-0.8343,-0.8228,-0.8102,-0.8038,-0.8038,-0.8038,-0.8038,-0.8038,-0.8038,-0.8038,0.0,0.0,0.0,-0.7128,0.0,0.0,0.0,-0.7402,-0.7235,0.0,0.0,0.0,0.0,0.0,0.0,0.0,0.0,0.0,0.0,0.0,0.0,0.0,0.0,0.0,0.0,0.0,-1.0685,-1.0768,-1.1182,-1.1557,-1.1857,-1.2144,-1.2305,-1.2305,-1.2305,-1.2305,-1.2305,-1.2305,-1.2305,-1.2305,-1.2305,-1.2305,-1.2305,-1.2305,-1.1996,-1.1471,-0.997,-0.8998,-0.8466,-0.6945,-0.6338,-0.6338,-0.6338,-0.6346,-0.6491,-0.6644,-0.6797,-0.6949,-0.7092,-0.7139,-0.7139,-0.7139,-0.7193,-0.7285,-0.7441,-0.7638,-0.7828,-0.7902,-0.798,-0.8038,-0.8038,-0.8038,-0.8038,-0.8038,-0.8038,-0.8038,-0.8038,-0.8038,-0.8038,-0.8038,-0.8102,-0.8177,-0.8248,-0.8326,-0.8377,-0.8377,-0.8435,-0.8459,-0.8384,-0.8377,-0.8347,-0.8269,-0.8197,-0.8248,-0.8472,-0.8421,-0.8442,-0.8594,-0.8601,-0.853,-0.8381,-0.8377,-0.8306,-0.816,-0.8079,-0.8038,-0.8038,-0.8038,-0.8038,-0.8038,-0.8038,-0.8038,0.0,0.0,0.0,0.0,0.0,-0.6431,0.0,0.0,0.0,-0.6648,0.0,0.0,0.0,0.0,0.0,0.0,0.0,0.0,0.0,0.0,0.0,0.0,0.0,0.0,0.0,0.0,-1.0719,-1.0895,-1.1229,-1.153,-1.177,-1.2111,-1.2305,-1.2305,-1.2305,-1.2305,-1.2305,-1.2305,-1.2305,-1.2305,-1.2305,-1.2305,-1.2305,-1.2305,-1.1768,-1.0708,-0.9744,-0.8689,-0.7706,-0.6718,-0.6338,-0.6338,-0.6338,-0.6332,-0.6451,-0.66,-0.6753,-0.6905,-0.7051,-0.7115,-0.7139,-0.7139,-0.716,-0.7207,-0.7333,-0.7577,-0.7811,-0.7811,-0.7923,-0.8038,-0.8038,-0.8038,-0.8038,-0.8038,-0.8038,-0.8038,-0.8038,-0.8038,-0.8038,-0.8038,-0.8038,-0.8038,-0.8038,-0.8143,-0.8225,-0.8225,-0.8323,-0.8353,-0.8241,-0.8225,-0.8177,-0.8055,-0.8038,-0.8102,-0.8258,-0.8272,-0.8282,-0.8309,-0.8418,-0.8374,-0.8136,-0.8218,-0.8211,-0.8085,-0.8055,-0.8038,-0.8038,-0.8038,-0.8038,-0.8038,-0.8038,-0.8038,0.0,0.0,0.0,0.0,-0.5651,0.0,0.0,0.0,-0.6129,-0.689,0.0,0.0,0.0,0.0,0.0,0.0,0.0,0.0,0.0,0.0,0.0,0.0,0.0,0.0,0.0,0.0,0.0,-1.0672,-1.1116,-1.1443,-1.147,-1.2004,-1.2305,-1.2305,-1.2305,-1.2305,-1.2305,-1.2305,-1.2305,-1.2305,-1.2305,-1.2305,-1.2305,-1.2305,-1.1768,-1.0708,-0.9744,-0.8689,-0.7706,-0.6718,-0.6338,-0.6338,-0.6338,-0.6271,-0.6302,-0.6444,-0.6597,-0.6749,-0.6902,-0.7034,-0.7139,-0.7139,-0.7234,-0.735,-0.7366,-0.7577,-0.7811,-0.7811,-0.7923,-0.8038,-0.8038,-0.8038,-0.8038,-0.8038,-0.8038,-0.8038,-0.8038,-0.8038,-0.8038,-0.8038,-0.8038,-0.8038,-0.8038,-0.8055,-0.8065,-0.8065,-0.8079,-0.8082,-0.8069,-0.8065,-0.8058,-0.8041,-0.8038,-0.8102,-0.8258,-0.8272,-0.8323,-0.8452,-0.8472,-0.8465,-0.8431,-0.833,-0.8262,-0.8245,-0.8109,-0.8038,-0.8038,-0.8038,-0.8038,-0.8038,-0.8038,-0.8038,0.0,0.0,0.0,0.0,0.0,0.0,0.0,0.0,-0.537,0.0,0.0,0.0,0.0,0.0,0.0,0.0,0.0,0.0,0.0,0.0,0.0,0.0,0.0,0.0,0.0,0.0,0.0,0.0,0.0,-1.1176,-1.1176,-1.157,-1.1797,-1.1797,-1.1797,-1.1877,-1.2051,-1.2051,-1.2138,-1.2305,-1.2305,-1.2305,-1.2305,-1.2305,-1.1768,-1.0708,-0.9744,-0.8689,-0.7706,-0.6718,-0.6338,-0.6338,-0.6338,-0.6338,-0.6278,-0.642,-0.6569,-0.6722,-0.6875,-0.7021,-0.7139,-0.7139,-0.7183,-0.7255,-0.7346,-0.7519,-0.7706,-0.7787,-0.7923,-0.8038,-0.8038,-0.8038,-0.8038,-0.8038,-0.8038,-0.8038,-0.8038,-0.8038,-0.8038,-0.8038,-0.8038,-0.8038,-0.8038,-0.8038,-0.8038,-0.8038,-0.8038,-0.8038,-0.8038,-0.8038,-0.8038,-0.8038,-0.8038,-0.8065,-0.813,-0.8136,-0.8163,-0.8221,-0.8225,-0.8265,-0.8353,-0.8214,-0.8136,-0.8136,-0.8072,-0.8038,-0.8038,-0.8038,-0.8038,-0.8038,-0.8038,-0.8038,-0.4877,0.0,0.0,0.0,0.0,0.0,0.0,0.0,0.0,0.0,0.0,0.0,0.0,0.0,0.0,0.0,0.0,0.0,0.0,0.0,0.0,0.0,0.0,0.0,0.0,0.0,0.0,0.0,-1.0828,0.0,-1.0995,-1.1269,-1.1463,-1.1543,-1.147,-1.1603,-1.1984,-1.1911,-1.2011,-1.2305,-1.2305,-1.2305,-1.2305,-1.2305,-1.1768,-1.0708,-0.9744,-0.8689,-0.7706,-0.6718,-0.6338,-0.6338,-0.6338,-0.6338,-0.6352,-0.6376,-0.6536,-0.6715,-0.6827,-0.6987,-0.7139,-0.7139,-0.7139,-0.7163,-0.7275,-0.7444,-0.7621,-0.7726,-0.7892,-0.8038,-0.8038,-0.8038,-0.8038,-0.8038,-0.8038,-0.8038,-0.8038,-0.8038,-0.8038,-0.8038,-0.8038,-0.8038,-0.8038,-0.8038,-0.8038,-0.8038,-0.8038,-0.8038,-0.8038,-0.8038,-0.8038,-0.8038,-0.8038,-0.8038,-0.8038,-0.8038,-0.8038,-0.8038,-0.8038,-0.8089,-0.8204,-0.8099,-0.8038,-0.8038,-0.8038,-0.8038,-0.8038,-0.8038,-0.8038,-0.8038,-0.8038,-0.8038,0.0,0.0,0.0,-0.4918,0.0,0.0,0.0,0.0,-0.5165,0.0,0.0,0.0,0.0,0.0,0.0,0.0,0.0,0.0,0.0,0.0,0.0,0.0,0.0,0.0,0.0,0.0,0.0,-1.0624,-1.0828,-1.0995,-1.0995,-1.1269,-1.1557,-1.1844,-1.1577,-1.1703,-1.2285,-1.2011,-1.2011,-1.2305,-1.2305,-1.2305,-1.2305,-1.2305,-1.1768,-1.0708,-0.9744,-0.8689,-0.7706,-0.6718,-0.6338,-0.6338,-0.6338,-0.6338,-0.6338,-0.6345,-0.6451,-0.6702,-0.6705,-0.6898,-0.7139,-0.7139,-0.7139,-0.7143,-0.7146,-0.736,-0.76,-0.7604,-0.7818,-0.8038,-0.8038,-0.8038,-0.8038,-0.8038,-0.8038,-0.8038,-0.8038,-0.8038,-0.8038,-0.8038,-0.8038,-0.8038,-0.8038,-0.8038,-0.8038,-0.8038,-0.8038,-0.8038,-0.8038,-0.8038,-0.8038,-0.8038,-0.8038,-0.8038,-0.8038,-0.8038,-0.8038,-0.8038,-0.8038,-0.8041,-0.8045,-0.8041,-0.8038,-0.8038,-0.8038,-0.8038,-0.8038,-0.8038,-0.8038,-0.8038,-0.8038,-0.8038,0.0,0.0,-0.5084,-0.5186,0.0,0.0,0.0,0.0,0.0,0.0,0.0,0.0,0.0,0.0,0.0,0.0,0.0,0.0,0.0,0.0,0.0,0.0,0.0,0.0,0.0,0.0,0.0,-1.0624,-1.0648,-1.0708,0.0,-1.0795,-1.0989,-1.1283,-1.1189,-1.1423,-1.2011,-1.1917,-1.2011,-1.2305,-1.2305,-1.2305,-1.2305,-1.2305,-1.2077,-1.1768,-1.0714,-0.9744,-0.8694,-0.7706,-0.6872,-0.6338,-0.6338,-0.6338,-0.6349,-0.6366,-0.6529,-0.6729,-0.6922,-0.7058,-0.7139,-0.7139,-0.7139,-0.716,-0.7261,-0.7434,-0.7617,-0.7712,-0.7885,-0.8038,-0.8038,-0.8038,-0.8038,-0.8038,-0.8038,-0.8038,-0.8038,-0.8038,-0.8038,-0.8038,-0.8038,-0.8038,-0.8038,-0.8038,-0.8038,-0.8038,-0.8038,-0.8038,-0.8038,-0.8038,-0.8038,-0.8038,-0.8038,-0.8038,-0.8038,-0.8038,-0.8038,-0.8038,-0.8038,-0.8038,-0.8038,-0.8038,-0.8038,-0.8038,-0.8038,-0.8038,-0.8038,-0.8038,-0.8092,-0.8194,-0.8194,-0.8194,-0.5318,-0.5287,0.0,-0.5338,-0.5428,0.0,-0.5428,0.0,0.0,0.0,0.0,0.0,0.0,0.0,0.0,0.0,0.0,0.0,0.0,0.0,0.0,0.0,0.0,0.0,0.0,0.0,-1.0624,-1.0624,-1.0624,-1.0624,0.0,0.0,-1.0848,-1.1136,-1.1149,-1.143,-1.2017,-1.1917,-1.2011,-1.2305,-1.2305,-1.2305,-1.2305,-1.2305,-1.2305,-1.2224,-1.1236,-1.0265,-0.9221,-0.8618,-0.7557,-0.6338,-0.6718,-0.6644,-0.6278,-0.642,-0.6603,-0.681,-0.7,-0.7099,-0.7139,-0.7139,-0.7139,-0.7156,-0.7258,-0.7397,-0.755,-0.7695,-0.7841,-0.797,-0.8024,-0.8038,-0.8038,-0.8038,-0.8038,-0.8038,-0.8038,-0.8038,-0.8038,-0.8038,-0.8038,-0.8038,-0.8038,-0.8038,-0.8038,-0.8038,-0.8038,-0.8038,-0.8038,-0.8038,-0.8038,-0.8038,-0.8038,-0.8038,-0.8038,-0.8038,-0.8038,-0.8038,-0.8038,-0.8038,-0.8038,-0.8038,-0.8089,-0.8194,-0.8092,-0.8092,-0.8197,-0.8092,-0.8119,-0.8272,-0.8323,-0.8374]}]]